[[{"header":{"parameterUnit":"m.s-1","parameterCategory":1,"la1":31.0,"la2":29.5877,"lo1":-88.7671,"lo2":-86.6584,"dy":0.0162,"dx":0.0185,"nx":115,"ny":88,"refTime":"2024-08-01T18:00:00:Z","depth":0,"parameterNumber":2,"parameterNumberName":"U-component_of_WINDS"},"data":[0.0,0.0,0.0,0.0,0.0,0.0,0.0,0.0,0.0,0.0,0.0,0.0,0.0,0.0,0.0,0.0,0.0,0.0,0.0,0.0,0.0,0.0,0.0,0.0,0.0,0.0,0.0,0.0,0.0,0.0,0.0,0.0,0.0,0.0,0.0,0.0,0.0,0.0,0.0,0.0,0.0,0.0,0.0,0.0,0.0,0.0,0.0,0.0,0.0,0.0,0.0,0.0,0.0,0.0,0.0,0.0,0.0,0.0,0.0,0.0,0.0,0.0,0.0,0.0,0.0,0.0,0.0,0.0,0.0,0.0,0.0,0.0,0.0,0.0,0.0,0.0,0.0,0.0,0.0,0.0,0.0,0.0,0.0,0.0,0.0,0.0,0.0,0.0,0.0,0.0,0.0,0.0,0.0,0.0,0.0,0.0,0.0,0.0,0.0,0.0,0.0,0.0,0.0,0.0,0.0,0.0,0.0,0.0,0.0,0.0,0.0,0.0,0.0,0.0,0.0,0.0,0.0,0.0,0.0,0.0,0.0,0.0,0.0,0.0,0.0,0.0,0.0,0.0,0.0,0.0,0.0,0.0,0.0,0.0,0.0,0.0,0.0,0.0,0.0,0.0,0.0,0.0,0.0,0.0,0.0,0.0,0.0,0.0,0.0,0.0,0.0,0.0,0.0,0.0,0.0,0.0,0.0,0.0,0.0,0.0,0.0,0.0,0.0,0.0,0.0,0.0,0.0,0.0,0.0,0.0,0.0,0.0,0.0,0.0,0.0,0.0,0.0,0.0,0.0,0.0,0.0,0.0,0.0,0.0,0.0,0.0,0.0,0.0,0.0,0.0,0.0,0.0,0.0,0.0,0.0,0.0,0.0,0.0,0.0,0.0,0.0,0.0,0.0,0.0,0.0,0.0,0.0,0.0,0.0,0.0,0.0,0.0,0.0,0.0,0.0,0.0,0.0,0.0,0.0,0.0,0.0,0.0,0.0,0.0,0.0,0.0,0.0,0.0,0.0,0.0,0.0,0.0,0.0,0.0,0.0,0.0,0.0,0.0,0.0,0.0,0.0,0.0,0.0,0.0,0.0,0.0,0.0,0.0,0.0,0.0,0.0,0.0,0.0,0.0,0.0,0.0,0.0,0.0,0.0,0.0,0.0,0.0,0.0,0.0,0.0,0.0,0.0,0.0,0.0,0.0,0.0,0.0,0.0,0.0,0.0,0.0,0.0,0.0,0.0,0.0,0.0,0.0,0.0,0.0,0.0,0.0,0.0,0.0,0.0,0.0,0.0,0.0,0.0,0.0,0.0,0.0,0.0,0.0,0.0,0.0,0.0,0.0,0.0,0.0,0.0,0.0,0.0,0.0,0.0,0.0,0.0,0.0,0.0,0.0,0.0,0.0,0.0,0.0,0.0,0.0,0.0,0.0,0.0,0.0,0.0,0.0,0.0,0.0,0.0,0.0,0.0,0.0,0.0,0.0,0.0,0.0,0.0,0.0,0.0,0.0,0.0,0.0,0.0,0.0,0.0,0.0,0.0,0.0,0.0,0.0,0.0,0.0,0.0,0.0,0.0,0.0,0.0,0.0,0.0,0.0,0.0,0.0,0.0,0.0,0.0,0.0,0.0,0.0,0.0,0.0,0.0,0.0,0.0,0.0,0.0,0.0,0.0,0.0,0.0,0.0,0.0,0.0,0.0,0.0,0.0,0.0,0.0,0.0,0.0,0.0,0.0,0.0,0.0,0.0,0.0,0.0,0.0,0.0,0.0,0.0,0.0,0.0,0.0,0.0,0.0,0.0,0.0,0.0,0.0,0.0,0.0,0.0,0.0,0.0,0.0,0.0,0.0,0.0,0.0,0.0,0.0,0.0,0.0,0.0,0.0,0.0,0.0,0.0,0.0,0.0,0.0,0.0,0.0,0.0,0.0,0.0,0.0,0.0,0.0,0.0,0.0,0.0,0.0,0.0,0.0,0.0,0.0,0.0,0.0,0.0,0.0,0.0,0.0,0.0,0.0,0.0,0.0,0.0,0.0,0.0,0.0,0.0,0.0,0.0,0.0,0.0,0.0,0.0,0.0,0.0,0.0,0.0,0.0,0.0,0.0,0.0,0.0,0.0,0.0,0.0,0.0,0.0,0.0,0.0,0.0,0.0,0.0,0.0,0.0,0.0,0.0,0.0,0.0,0.0,0.0,0.0,0.0,0.0,0.0,0.0,0.0,0.0,0.0,0.0,0.0,0.0,0.0,0.0,0.0,0.0,0.0,0.0,0.0,0.0,0.0,0.0,0.0,0.0,0.0,0.0,0.0,0.0,0.0,0.0,0.0,0.0,0.0,0.0,0.0,0.0,0.0,0.0,0.0,0.0,0.0,0.0,0.0,0.0,0.0,0.0,0.0,0.0,0.0,0.0,0.0,0.0,0.0,0.0,0.0,0.0,0.0,0.0,0.0,0.0,0.0,0.0,0.0,0.0,0.0,0.0,0.0,0.0,0.0,0.0,0.0,0.0,0.0,0.0,0.0,0.0,0.0,0.0,0.0,0.0,0.0,0.0,0.0,0.0,0.0,0.0,0.0,0.0,0.0,0.0,0.0,0.0,0.0,0.0,0.0,0.0,0.0,0.0,0.0,0.0,0.0,0.0,0.0,0.0,0.0,0.0,0.0,0.0,0.0,0.0,0.0,0.0,0.0,0.0,0.0,0.0,0.0,0.0,0.0,0.0,0.0,0.0,0.0,0.0,0.0,0.0,0.0,0.0,0.0,0.0,0.0,0.0,0.0,0.0,0.0,0.0,0.0,0.0,0.0,0.0,0.0,0.0,0.0,0.0,0.0,0.0,0.0,0.0,0.0,0.0,0.0,0.0,0.0,0.0,0.0,0.0,0.0,0.0,0.0,0.0,0.0,0.0,0.0,0.0,0.0,0.0,0.0,0.0,0.0,0.0,0.0,0.0,0.0,0.0,0.0,0.0,0.0,0.0,0.0,0.0,0.0,0.0,0.0,0.0,0.0,0.0,0.0,0.0,0.0,0.0,0.0,0.0,0.0,0.0,0.0,0.0,0.0,0.0,0.0,0.0,0.0,0.0,0.0,0.0,0.0,0.0,0.0,0.0,0.0,0.0,0.0,0.0,0.0,0.0,0.0,0.0,0.0,0.0,0.0,0.0,0.0,0.0,0.0,0.0,0.0,0.0,0.0,0.0,0.0,0.0,0.0,0.0,0.0,0.0,0.0,0.0,0.0,0.0,0.0,0.0,0.0,0.0,0.0,0.0,0.0,0.0,0.0,0.0,0.0,0.0,0.0,0.0,0.0,0.0,0.0,0.0,0.0,0.0,0.0,0.0,0.0,0.0,0.0,0.0,0.0,0.0,0.0,0.0,0.0,0.0,0.0,0.0,0.0,0.0,0.0,0.0,0.0,0.0,0.0,0.0,0.0,0.0,0.0,0.0,0.0,0.0,0.0,0.0,0.0,0.0,0.0,0.0,0.0,0.0,0.0,0.0,0.0,0.0,0.0,0.0,0.0,0.0,0.0,0.0,0.0,0.0,0.0,0.0,0.0,0.0,0.0,0.0,0.0,0.0,0.0,0.0,0.0,0.0,0.0,0.0,0.0,0.0,0.0,0.0,0.0,0.0,0.0,0.0,0.0,0.0,0.0,0.0,0.0,0.0,0.0,0.0,0.0,0.0,0.0,0.0,0.0,0.0,0.0,0.0,0.0,0.0,0.0,0.0,0.0,0.0,0.0,0.0,0.0,0.0,0.0,0.0,0.0,0.0,0.0,0.0,0.0,0.0,0.0,0.0,0.0,0.0,0.0,0.0,0.0,0.0,0.0,0.0,0.0,0.0,0.0,0.0,0.0,0.0,0.0,0.0,0.0,0.0,0.0,0.0,0.0,0.0,0.0,0.0,0.0,0.0,0.0,0.0,0.0,0.0,0.0,0.0,0.0,0.0,0.0,0.0,0.0,0.0,0.0,0.0,0.0,0.0,0.0,0.0,0.0,0.0,0.0,0.0,0.0,0.0,0.0,0.0,0.0,0.0,0.0,0.0,0.0,0.0,0.0,0.0,0.0,0.0,0.0,0.0,0.0,0.0,0.0,0.0,0.0,0.0,0.0,0.0,0.0,0.0,0.0,0.0,0.0,0.0,0.0,0.0,0.0,0.0,0.0,0.0,0.0,0.0,0.0,0.0,0.0,0.0,0.0,0.0,0.0,0.0,0.0,0.0,0.0,0.0,0.0,0.0,0.0,0.0,0.0,0.0,0.0,0.0,0.0,0.0,3.911,0.0,0.0,0.0,0.0,0.0,0.0,0.0,0.0,0.0,0.0,0.0,0.0,0.0,0.0,0.0,0.0,0.0,0.0,0.0,0.0,0.0,0.0,0.0,0.0,0.0,0.0,0.0,0.0,0.0,0.0,0.0,0.0,0.0,0.0,0.0,0.0,0.0,0.0,0.0,0.0,0.0,0.0,0.0,0.0,0.0,0.0,0.0,0.0,0.0,0.0,0.0,0.0,0.0,0.0,0.0,0.0,0.0,0.0,0.0,0.0,0.0,0.0,0.0,0.0,0.0,0.0,0.0,0.0,0.0,0.0,0.0,0.0,0.0,0.0,0.0,0.0,0.0,0.0,0.0,0.0,0.0,0.0,0.0,0.0,0.0,0.0,0.0,0.0,0.0,0.0,0.0,0.0,0.0,0.0,0.0,0.0,0.0,0.0,0.0,0.0,0.0,0.0,0.0,0.0,0.0,0.0,0.0,0.0,0.0,0.0,4.2325,4.2809,4.2371,4.1507,4.0223,0.0,0.0,0.0,0.0,0.0,0.0,0.0,0.0,0.0,0.0,0.0,0.0,0.0,0.0,0.0,0.0,0.0,0.0,0.0,0.0,0.0,0.0,0.0,0.0,0.0,0.0,0.0,0.0,0.0,0.0,0.0,0.0,0.0,0.0,0.0,0.0,0.0,0.0,0.0,0.0,0.0,0.0,0.0,0.0,0.0,0.0,0.0,0.0,0.0,0.0,0.0,0.0,0.0,0.0,0.0,0.0,0.0,0.0,0.0,0.0,0.0,0.0,0.0,0.0,0.0,0.0,0.0,0.0,0.0,0.0,0.0,0.0,0.0,0.0,0.0,0.0,0.0,0.0,0.0,0.0,0.0,0.0,0.0,0.0,0.0,0.0,0.0,0.0,0.0,0.0,0.0,0.0,0.0,0.0,0.0,0.0,0.0,0.0,0.0,0.0,0.0,0.0,0.0,0.0,0.0,0.0,0.0,0.0,0.0,0.0,0.0,0.0,4.2969,4.1816,4.0382,0.0,0.0,0.0,0.0,0.0,0.0,0.0,0.0,0.0,0.0,0.0,0.0,0.0,0.0,0.0,0.0,0.0,0.0,0.0,0.0,0.0,0.0,0.0,0.0,0.0,0.0,0.0,0.0,0.0,0.0,0.0,0.0,0.0,0.0,0.0,0.0,0.0,0.0,0.0,0.0,0.0,0.0,0.0,0.0,0.0,0.0,0.0,0.0,0.0,0.0,0.0,0.0,0.0,0.0,0.0,0.0,0.0,0.0,0.0,0.0,0.0,0.0,0.0,0.0,0.0,0.0,0.0,0.0,0.0,0.0,0.0,0.0,0.0,0.0,0.0,0.0,0.0,0.0,0.0,0.0,0.0,0.0,0.0,0.0,0.0,0.0,0.0,0.0,0.0,0.0,0.0,0.0,0.0,0.0,0.0,0.0,0.0,0.0,0.0,0.0,0.0,0.0,0.0,0.0,0.0,0.0,0.0,0.0,0.0,0.0,4.3907,4.4727,4.3908,0.0,3.8871,0.0,0.0,0.0,0.0,0.0,0.0,0.0,0.0,0.0,0.0,0.0,0.0,0.0,0.0,0.0,0.0,0.0,0.0,0.0,0.0,0.0,0.0,0.0,0.0,0.0,0.0,0.0,0.0,0.0,0.0,0.0,0.0,0.0,0.0,0.0,0.0,0.0,0.0,0.0,0.0,0.0,0.0,0.0,0.0,0.0,0.0,0.0,0.0,0.0,0.0,0.0,0.0,0.0,0.0,0.0,0.0,0.0,0.0,0.0,0.0,0.0,0.0,0.0,0.0,0.0,0.0,0.0,0.0,0.0,0.0,0.0,0.0,0.0,0.0,0.0,0.0,0.0,0.0,0.0,0.0,0.0,0.0,0.0,0.0,0.0,0.0,0.0,0.0,0.0,0.0,0.0,0.0,0.0,0.0,0.0,0.0,0.0,0.0,0.0,0.0,0.0,0.0,0.0,0.0,0.0,0.0,0.0,0.0,0.0,0.0,4.4258,4.5622,4.4325,4.2236,0.0,0.0,0.0,0.0,0.0,0.0,0.0,0.0,0.0,0.0,0.0,0.0,0.0,0.0,0.0,0.0,0.0,0.0,0.0,0.0,0.0,0.0,0.0,0.0,0.0,0.0,0.0,0.0,0.0,0.0,0.0,0.0,0.0,0.0,0.0,0.0,0.0,0.0,0.0,0.0,0.0,0.0,0.0,0.0,0.0,0.0,0.0,0.0,0.0,0.0,0.0,0.0,0.0,0.0,0.0,0.0,0.0,0.0,0.0,0.0,0.0,0.0,0.0,0.0,0.0,0.0,0.0,0.0,0.0,0.0,0.0,0.0,0.0,0.0,0.0,0.0,0.0,0.0,0.0,0.0,0.0,0.0,0.0,0.0,0.0,0.0,0.0,0.0,0.0,0.0,0.0,0.0,0.0,0.0,0.0,0.0,0.0,0.0,0.0,0.0,0.0,0.0,0.0,0.0,0.0,0.0,0.0,0.0,0.0,0.0,4.3524,0.0,4.564,4.4368,4.2383,3.9877,0.0,0.0,0.0,0.0,0.0,0.0,0.0,0.0,0.0,0.0,0.0,0.0,0.0,0.0,0.0,0.0,0.0,0.0,0.0,0.0,0.0,0.0,0.0,0.0,0.0,0.0,0.0,0.0,0.0,0.0,0.0,0.0,0.0,0.0,0.0,0.0,0.0,0.0,0.0,0.0,0.0,0.0,0.0,0.0,0.0,0.0,0.0,0.0,0.0,0.0,0.0,0.0,0.0,0.0,0.0,0.0,0.0,0.0,0.0,0.0,0.0,0.0,0.0,0.0,0.0,0.0,0.0,0.0,0.0,0.0,0.0,0.0,0.0,0.0,0.0,0.0,0.0,0.0,0.0,0.0,0.0,0.0,0.0,0.0,0.0,0.0,0.0,0.0,0.0,0.0,0.0,0.0,0.0,0.0,0.0,0.0,0.0,0.0,0.0,0.0,0.0,0.0,0.0,0.0,0.0,0.0,0.0,0.0,0.0,4.3423,4.3903,4.4851,4.4058,4.2398,0.0,0.0,0.0,0.0,0.0,0.0,0.0,0.0,0.0,0.0,0.0,0.0,0.0,0.0,0.0,0.0,0.0,0.0,0.0,0.0,0.0,0.0,0.0,0.0,0.0,0.0,0.0,0.0,0.0,0.0,0.0,0.0,0.0,0.0,0.0,0.0,0.0,0.0,0.0,0.0,0.0,0.0,0.0,0.0,0.0,0.0,0.0,0.0,0.0,0.0,0.0,0.0,0.0,0.0,0.0,0.0,0.0,0.0,0.0,0.0,0.0,0.0,0.0,0.0,0.0,0.0,0.0,0.0,0.0,0.0,0.0,0.0,0.0,0.0,0.0,0.0,0.0,0.0,0.0,0.0,0.0,0.0,0.0,0.0,0.0,0.0,0.0,0.0,0.0,0.0,0.0,0.0,0.0,0.0,0.0,0.0,0.0,0.0,0.0,0.0,0.0,0.0,0.0,0.0,0.0,0.0,0.0,0.0,0.0,4.3139,4.4292,4.5126,4.5444,4.4189,4.279,0.0,0.0,0.0,0.0,0.0,0.0,0.0,0.0,0.0,0.0,0.0,0.0,0.0,0.0,0.0,0.0,0.0,0.0,0.0,0.0,0.0,0.0,0.0,0.0,0.0,0.0,0.0,0.0,0.0,0.0,0.0,0.0,0.0,0.0,0.0,0.0,0.0,0.0,0.0,0.0,0.0,0.0,0.0,0.0,0.0,0.0,0.0,0.0,0.0,0.0,0.0,0.0,0.0,0.0,0.0,0.0,0.0,0.0,0.0,0.0,0.0,0.0,0.0,0.0,0.0,0.0,0.0,0.0,0.0,0.0,0.0,0.0,0.0,0.0,0.0,0.0,0.0,0.0,0.0,0.0,0.0,0.0,0.0,0.0,0.0,0.0,0.0,0.0,0.0,0.0,0.0,0.0,0.0,0.0,0.0,0.0,0.0,0.0,0.0,0.0,0.0,0.0,0.0,0.0,0.0,0.0,0.0,0.0,0.0,4.3691,0.0,4.6128,0.0,4.4885,4.3518,0.0,0.0,0.0,0.0,0.0,0.0,0.0,0.0,0.0,0.0,0.0,0.0,0.0,0.0,0.0,0.0,0.0,0.0,0.0,0.0,0.0,0.0,0.0,0.0,0.0,0.0,0.0,0.0,0.0,0.0,0.0,0.0,0.0,0.0,0.0,0.0,0.0,0.0,0.0,0.0,0.0,0.0,0.0,0.0,0.0,0.0,0.0,0.0,0.0,0.0,0.0,0.0,0.0,0.0,0.0,0.0,0.0,0.0,0.0,0.0,0.0,0.0,0.0,0.0,0.0,0.0,0.0,0.0,0.0,0.0,0.0,0.0,0.0,0.0,0.0,0.0,0.0,0.0,0.0,0.0,0.0,0.0,0.0,0.0,0.0,0.0,0.0,0.0,0.0,0.0,0.0,0.0,0.0,0.0,0.0,0.0,0.0,0.0,0.0,0.0,0.0,0.0,0.0,0.0,0.0,0.0,0.0,0.0,4.2531,4.5104,4.6184,4.6781,4.687,4.6066,4.4534,0.0,0.0,0.0,0.0,0.0,0.0,0.0,0.0,0.0,0.0,0.0,0.0,0.0,0.0,0.0,0.0,0.0,0.0,0.0,0.0,0.0,0.0,0.0,0.0,0.0,0.0,0.0,0.0,0.0,0.0,0.0,0.0,0.0,0.0,0.0,0.0,0.0,0.0,0.0,0.0,0.0,0.0,0.0,0.0,0.0,0.0,0.0,0.0,0.0,0.0,0.0,0.0,0.0,0.0,0.0,0.0,0.0,0.0,0.0,0.0,0.0,0.0,0.0,0.0,0.0,0.0,0.0,0.0,0.0,0.0,0.0,0.0,0.0,0.0,0.0,0.0,0.0,0.0,0.0,0.0,0.0,0.0,0.0,0.0,0.0,0.0,0.0,0.0,0.0,0.0,0.0,0.0,0.0,0.0,0.0,0.0,0.0,0.0,0.0,0.0,0.0,0.0,0.0,0.0,0.0,0.0,0.0,0.0,0.0,4.577,4.6824,4.7357,4.7409,4.6167,4.4893,0.0,0.0,0.0,0.0,0.0,0.0,0.0,0.0,0.0,0.0,0.0,0.0,0.0,0.0,0.0,0.0,0.0,0.0,0.0,0.0,0.0,0.0,0.0,0.0,0.0,0.0,0.0,0.0,0.0,0.0,0.0,0.0,0.0,0.0,0.0,0.0,0.0,0.0,0.0,0.0,0.0,0.0,0.0,0.0,0.0,0.0,0.0,0.0,0.0,0.0,0.0,0.0,0.0,0.0,0.0,0.0,0.0,0.0,0.0,0.0,0.0,0.0,0.0,0.0,0.0,0.0,0.0,0.0,0.0,0.0,0.0,0.0,0.0,0.0,0.0,0.0,0.0,0.0,0.0,0.0,0.0,0.0,0.0,0.0,0.0,0.0,0.0,0.0,0.0,0.0,0.0,0.0,0.0,0.0,0.0,0.0,0.0,0.0,0.0,0.0,0.0,0.0,0.0,0.0,0.0,0.0,0.0,0.0,0.0,4.6688,4.774,4.8287,4.834,4.7228,4.5875,4.4208,0.0,0.0,0.0,0.0,0.0,0.0,0.0,0.0,0.0,0.0,0.0,0.0,0.0,0.0,0.0,0.0,0.0,0.0,0.0,0.0,0.0,0.0,0.0,0.0,0.0,0.0,0.0,0.0,0.0,0.0,0.0,0.0,0.0,0.0,0.0,0.0,0.0,0.0,0.0,0.0,0.0,0.0,0.0,0.0,0.0,0.0,0.0,0.0,0.0,0.0,0.0,0.0,0.0,0.0,0.0,0.0,0.0,0.0,0.0,0.0,0.0,0.0,0.0,0.0,0.0,0.0,0.0,0.0,0.0,0.0,0.0,0.0,0.0,0.0,0.0,0.0,0.0,0.0,0.0,0.0,0.0,0.0,0.0,0.0,0.0,0.0,0.0,0.0,0.0,0.0,0.0,0.0,0.0,0.0,0.0,0.0,0.0,0.0,0.0,0.0,0.0,0.0,0.0,0.0,0.0,0.0,0.0,0.0,4.7761,4.893,4.9496,4.9529,4.9002,4.7262,0.0,0.0,0.0,0.0,0.0,0.0,0.0,0.0,0.0,0.0,0.0,0.0,0.0,0.0,0.0,0.0,0.0,0.0,0.0,0.0,0.0,0.0,0.0,0.0,0.0,0.0,0.0,0.0,0.0,0.0,0.0,0.0,0.0,0.0,0.0,0.0,0.0,0.0,0.0,0.0,0.0,0.0,0.0,0.0,0.0,0.0,0.0,0.0,0.0,0.0,0.0,0.0,0.0,0.0,0.0,0.0,0.0,0.0,0.0,0.0,0.0,0.0,0.0,0.0,0.0,0.0,0.0,0.0,0.0,0.0,0.0,0.0,0.0,0.0,0.0,0.0,0.0,0.0,0.0,0.0,0.0,0.0,0.0,0.0,0.0,0.0,0.0,0.0,0.0,0.0,0.0,0.0,0.0,0.0,0.0,0.0,0.0,0.0,0.0,0.0,0.0,0.0,0.0,0.0,0.0,0.0,0.0,0.0,0.0,4.7849,4.9626,5.0407,5.0085,4.949,4.8032,0.0,0.0,0.0,0.0,0.0,0.0,0.0,0.0,0.0,0.0,0.0,0.0,0.0,0.0,0.0,0.0,0.0,0.0,0.0,0.0,0.0,0.0,0.0,0.0,0.0,0.0,0.0,0.0,0.0,0.0,0.0,0.0,0.0,0.0,0.0,0.0,0.0,0.0,0.0,0.0,0.0,0.0,0.0,0.0,0.0,0.0,0.0,0.0,0.0,0.0,0.0,0.0,0.0,0.0,0.0,0.0,0.0,0.0,0.0,0.0,0.0,0.0,0.0,0.0,0.0,0.0,0.0,0.0,0.0,0.0,0.0,0.0,0.0,0.0,0.0,0.0,0.0,0.0,0.0,0.0,0.0,0.0,0.0,0.0,0.0,0.0,0.0,0.0,0.0,0.0,0.0,0.0,0.0,0.0,0.0,0.0,0.0,0.0,0.0,0.0,0.0,0.0,0.0,0.0,0.0,0.0,0.0,0.0,4.574,4.7849,4.9536,5.0443,5.0515,4.9859,4.8482,0.0,0.0,0.0,0.0,0.0,0.0,0.0,0.0,0.0,0.0,0.0,0.0,0.0,0.0,0.0,0.0,0.0,0.0,0.0,0.0,0.0,0.0,0.0,0.0,0.0,0.0,0.0,0.0,0.0,0.0,0.0,0.0,0.0,0.0,0.0,0.0,0.0,0.0,0.0,0.0,0.0,0.0,0.0,0.0,0.0,0.0,0.0,0.0,0.0,0.0,0.0,0.0,0.0,0.0,0.0,0.0,0.0,0.0,0.0,0.0,0.0,0.0,0.0,0.0,0.0,0.0,0.0,0.0,0.0,0.0,0.0,0.0,0.0,0.0,0.0,0.0,0.0,0.0,0.0,0.0,0.0,0.0,0.0,0.0,0.0,0.0,0.0,0.0,0.0,0.0,0.0,0.0,0.0,0.0,0.0,0.0,0.0,0.0,0.0,0.0,0.0,0.0,0.0,0.0,0.0,0.0,0.0,0.0,4.5333,4.7672,4.8974,4.9976,5.0725,5.007,4.8753,0.0,0.0,0.0,0.0,0.0,0.0,0.0,0.0,0.0,0.0,0.0,0.0,0.0,0.0,0.0,0.0,0.0,0.0,0.0,0.0,0.0,0.0,0.0,0.0,0.0,0.0,0.0,0.0,0.0,0.0,0.0,0.0,0.0,0.0,0.0,0.0,0.0,0.0,0.0,0.0,0.0,0.0,0.0,0.0,0.0,0.0,0.0,0.0,0.0,0.0,0.0,0.0,0.0,0.0,0.0,0.0,0.0,0.0,0.0,0.0,0.0,0.0,0.0,0.0,0.0,0.0,0.0,0.0,0.0,0.0,0.0,0.0,0.0,0.0,0.0,0.0,0.0,0.0,0.0,0.0,0.0,0.0,0.0,0.0,0.0,0.0,0.0,0.0,0.0,0.0,0.0,0.0,0.0,0.0,0.0,0.0,0.0,0.0,0.0,0.0,0.0,0.0,0.0,0.0,0.0,0.0,0.0,0.0,4.552,4.6801,4.8655,4.9972,5.054,4.9984,4.8821,0.0,0.0,0.0,0.0,0.0,0.0,0.0,0.0,0.0,0.0,0.0,0.0,0.0,0.0,0.0,0.0,0.0,0.0,0.0,0.0,0.0,0.0,0.0,0.0,0.0,0.0,0.0,0.0,0.0,0.0,0.0,0.0,0.0,0.0,0.0,0.0,0.0,0.0,0.0,0.0,0.0,0.0,0.0,0.0,0.0,0.0,0.0,0.0,4.8883,0.0,0.0,0.0,0.0,0.0,0.0,0.0,0.0,0.0,0.0,0.0,0.0,0.0,0.0,0.0,0.0,0.0,0.0,0.0,0.0,0.0,0.0,0.0,0.0,0.0,0.0,0.0,0.0,0.0,0.0,0.0,0.0,0.0,0.0,0.0,0.0,0.0,0.0,0.0,0.0,0.0,0.0,0.0,0.0,0.0,0.0,0.0,0.0,0.0,0.0,0.0,0.0,0.0,0.0,0.0,0.0,0.0,0.0,0.0,4.5246,4.6557,4.8219,4.9402,4.9998,4.9188,4.8247,0.0,0.0,0.0,0.0,0.0,0.0,0.0,0.0,0.0,0.0,0.0,0.0,0.0,0.0,0.0,0.0,0.0,0.0,0.0,0.0,0.0,0.0,0.0,0.0,0.0,0.0,0.0,0.0,0.0,0.0,0.0,0.0,0.0,0.0,0.0,0.0,0.0,0.0,0.0,0.0,0.0,0.0,0.0,0.0,0.0,0.0,0.0,0.0,0.0,0.0,0.0,0.0,0.0,0.0,0.0,0.0,0.0,0.0,0.0,0.0,0.0,0.0,0.0,0.0,0.0,0.0,0.0,0.0,0.0,0.0,0.0,0.0,0.0,0.0,0.0,0.0,0.0,0.0,0.0,0.0,0.0,0.0,0.0,0.0,0.0,0.0,0.0,0.0,0.0,0.0,0.0,0.0,0.0,0.0,0.0,0.0,0.0,0.0,0.0,0.0,0.0,0.0,0.0,0.0,0.0,0.0,0.0,4.2912,4.4724,4.6356,4.7666,4.8635,4.9393,4.8163,4.7352,4.7062,0.0,0.0,0.0,0.0,0.0,0.0,0.0,0.0,0.0,0.0,0.0,0.0,0.0,0.0,0.0,0.0,0.0,0.0,0.0,0.0,0.0,0.0,0.0,0.0,0.0,0.0,0.0,0.0,0.0,0.0,0.0,0.0,0.0,0.0,0.0,0.0,0.0,0.0,4.6639,4.8845,0.0,0.0,0.0,0.0,0.0,0.0,0.0,0.0,5.1396,0.0,0.0,0.0,0.0,0.0,0.0,0.0,0.0,0.0,0.0,0.0,0.0,0.0,0.0,0.0,0.0,0.0,0.0,0.0,0.0,0.0,0.0,0.0,0.0,0.0,0.0,0.0,0.0,0.0,0.0,0.0,0.0,0.0,0.0,0.0,0.0,0.0,0.0,0.0,0.0,0.0,0.0,0.0,0.0,0.0,0.0,0.0,0.0,0.0,0.0,0.0,0.0,0.0,0.0,0.0,0.0,4.0159,4.2674,4.4581,4.5624,4.7111,4.8129,4.8759,4.7556,4.652,4.5683,0.0,0.0,0.0,0.0,0.0,0.0,0.0,0.0,0.0,0.0,0.0,0.0,0.0,0.0,0.0,0.0,0.0,0.0,0.0,0.0,0.0,0.0,0.0,0.0,0.0,0.0,0.0,0.0,0.0,0.0,0.0,0.0,0.0,0.0,0.0,0.0,0.0,0.0,0.0,5.0426,5.1369,0.0,0.0,0.0,0.0,0.0,0.0,0.0,0.0,5.1304,0.0,0.0,0.0,0.0,0.0,0.0,0.0,0.0,0.0,0.0,0.0,0.0,0.0,0.0,0.0,0.0,0.0,0.0,0.0,0.0,0.0,0.0,0.0,0.0,0.0,0.0,0.0,0.0,0.0,0.0,0.0,0.0,0.0,0.0,0.0,0.0,0.0,0.0,0.0,0.0,0.0,0.0,0.0,0.0,0.0,0.0,0.0,0.0,0.0,0.0,0.0,0.0,0.0,0.0,0.0,3.9787,4.2101,4.3969,4.5476,4.656,4.7471,4.8129,4.6886,4.5808,0.0,0.0,0.0,0.0,0.0,0.0,0.0,0.0,0.0,0.0,0.0,0.0,0.0,0.0,0.0,0.0,0.0,0.0,0.0,0.0,0.0,0.0,0.0,0.0,0.0,0.0,0.0,0.0,0.0,0.0,0.0,0.0,0.0,0.0,0.0,0.0,0.0,0.0,0.0,0.0,5.1473,5.2278,5.3182,0.0,0.0,0.0,0.0,0.0,0.0,5.2328,5.2025,0.0,0.0,0.0,0.0,0.0,0.0,0.0,0.0,0.0,0.0,0.0,0.0,0.0,0.0,0.0,0.0,0.0,0.0,0.0,0.0,0.0,0.0,0.0,0.0,0.0,0.0,0.0,0.0,0.0,0.0,0.0,0.0,0.0,0.0,0.0,0.0,0.0,0.0,0.0,0.0,0.0,0.0,0.0,0.0,0.0,0.0,0.0,0.0,0.0,0.0,0.0,0.0,0.0,0.0,0.0,3.9433,4.1431,4.326,4.5227,4.6017,4.6791,4.7471,4.6288,4.5147,0.0,0.0,0.0,0.0,0.0,0.0,0.0,0.0,0.0,0.0,0.0,0.0,0.0,0.0,0.0,0.0,0.0,0.0,0.0,0.0,0.0,0.0,0.0,0.0,0.0,0.0,0.0,0.0,0.0,0.0,0.0,0.0,0.0,0.0,0.0,0.0,0.0,0.0,0.0,0.0,0.0,5.3135,5.397,5.4117,0.0,0.0,0.0,0.0,5.3858,5.3312,0.0,0.0,0.0,0.0,0.0,0.0,0.0,0.0,0.0,0.0,0.0,0.0,0.0,0.0,0.0,0.0,0.0,0.0,0.0,0.0,0.0,0.0,0.0,0.0,0.0,0.0,0.0,0.0,0.0,0.0,0.0,0.0,0.0,0.0,0.0,0.0,0.0,0.0,0.0,0.0,0.0,0.0,0.0,0.0,0.0,0.0,0.0,0.0,0.0,0.0,0.0,0.0,0.0,0.0,0.0,0.0,3.8635,4.0592,4.2485,4.4524,4.5405,4.6198,4.6929,4.5666,4.4429,0.0,0.0,0.0,0.0,0.0,0.0,0.0,0.0,0.0,0.0,0.0,0.0,0.0,0.0,0.0,0.0,0.0,0.0,0.0,0.0,0.0,0.0,0.0,0.0,0.0,0.0,0.0,0.0,0.0,0.0,0.0,0.0,0.0,0.0,0.0,0.0,0.0,0.0,0.0,0.0,0.0,5.3902,5.4769,5.4875,5.4614,0.0,0.0,5.3814,5.3814,5.3791,0.0,0.0,0.0,0.0,0.0,0.0,0.0,0.0,0.0,0.0,0.0,0.0,0.0,0.0,0.0,0.0,0.0,0.0,0.0,0.0,0.0,0.0,0.0,0.0,0.0,0.0,0.0,0.0,0.0,0.0,0.0,0.0,0.0,0.0,0.0,0.0,0.0,0.0,0.0,0.0,0.0,0.0,0.0,0.0,0.0,0.0,0.0,0.0,0.0,0.0,0.0,0.0,0.0,0.0,0.0,3.464,3.751,3.9653,4.1722,4.3758,4.4737,4.5583,4.6198,4.4888,4.3714,0.0,0.0,0.0,0.0,0.0,0.0,0.0,0.0,0.0,0.0,0.0,0.0,0.0,0.0,0.0,0.0,0.0,0.0,0.0,0.0,0.0,0.0,0.0,0.0,0.0,0.0,0.0,0.0,0.0,0.0,0.0,0.0,0.0,0.0,0.0,0.0,0.0,0.0,0.0,0.0,0.0,0.0,5.6174,5.634,0.0,0.0,0.0,5.6537,5.6562,0.0,0.0,0.0,0.0,0.0,0.0,0.0,0.0,0.0,0.0,0.0,0.0,0.0,0.0,0.0,0.0,0.0,0.0,0.0,0.0,0.0,0.0,0.0,0.0,0.0,0.0,0.0,0.0,0.0,0.0,0.0,0.0,0.0,0.0,0.0,0.0,0.0,0.0,0.0,0.0,0.0,0.0,0.0,0.0,0.0,0.0,0.0,0.0,0.0,0.0,0.0,0.0,0.0,0.0,0.0,0.0,0.0,3.6425,3.8609,4.0749,4.2921,4.4004,4.4768,4.53,4.4086,0.0,0.0,0.0,0.0,0.0,0.0,0.0,0.0,0.0,0.0,0.0,0.0,0.0,0.0,0.0,0.0,0.0,0.0,0.0,0.0,0.0,0.0,0.0,0.0,0.0,0.0,0.0,3.7596,0.0,0.0,0.0,0.0,0.0,0.0,0.0,0.0,0.0,0.0,0.0,0.0,0.0,0.0,5.5581,5.7091,5.7404,5.7791,0.0,0.0,5.8518,5.859,5.7334,5.611,0.0,0.0,0.0,0.0,0.0,0.0,0.0,0.0,0.0,0.0,0.0,0.0,0.0,0.0,0.0,0.0,0.0,0.0,0.0,0.0,0.0,0.0,0.0,0.0,0.0,0.0,0.0,0.0,0.0,0.0,0.0,0.0,0.0,0.0,0.0,0.0,0.0,0.0,0.0,0.0,0.0,0.0,0.0,0.0,0.0,0.0,0.0,0.0,0.0,0.0,0.0,0.0,0.0,0.0,0.0,3.5548,3.7564,3.9779,4.2029,4.2951,4.3663,4.4282,4.3217,4.2076,0.0,0.0,0.0,0.0,0.0,0.0,0.0,0.0,0.0,0.0,0.0,0.0,0.0,0.0,0.0,0.0,0.0,0.0,0.0,0.0,0.0,0.0,0.0,0.0,0.0,0.0,0.0,0.0,0.0,0.0,0.0,0.0,0.0,0.0,0.0,0.0,0.0,0.0,0.0,0.0,0.0,5.5917,5.6865,5.767,5.8149,0.0,5.8256,5.8335,5.8335,5.7603,5.6789,5.6046,0.0,0.0,0.0,0.0,0.0,0.0,0.0,0.0,0.0,0.0,0.0,0.0,0.0,0.0,0.0,0.0,0.0,0.0,0.0,0.0,0.0,0.0,0.0,0.0,0.0,0.0,0.0,0.0,0.0,0.0,0.0,0.0,0.0,0.0,0.0,0.0,0.0,0.0,0.0,0.0,0.0,0.0,0.0,0.0,0.0,0.0,0.0,0.0,0.0,0.0,0.0,0.0,0.0,3.2086,3.4926,3.6761,3.8866,4.1113,4.214,4.2951,4.3457,4.247,4.1571,0.0,0.0,0.0,0.0,0.0,0.0,0.0,0.0,0.0,0.0,0.0,0.0,0.0,0.0,0.0,0.0,0.0,0.0,0.0,0.0,0.0,0.0,0.0,0.0,0.0,0.0,0.0,0.0,4.2155,4.3369,4.494,0.0,0.0,0.0,0.0,0.0,0.0,0.0,0.0,0.0,0.0,5.6613,5.7939,5.8425,0.0,0.0,5.9599,5.9687,5.9781,5.9027,5.8204,5.7464,5.6676,0.0,0.0,0.0,0.0,0.0,0.0,0.0,0.0,0.0,0.0,0.0,0.0,0.0,0.0,0.0,0.0,0.0,0.0,0.0,0.0,0.0,0.0,0.0,0.0,0.0,0.0,0.0,0.0,0.0,0.0,0.0,0.0,0.0,0.0,0.0,0.0,0.0,0.0,0.0,0.0,0.0,0.0,0.0,0.0,0.0,0.0,0.0,0.0,0.0,0.0,0.0,0.0,3.143,3.4121,3.5843,3.7871,4.0142,4.1141,4.1893,4.2386,4.1755,4.1053,0.0,0.0,0.0,0.0,0.0,0.0,0.0,0.0,0.0,0.0,0.0,0.0,0.0,0.0,0.0,0.0,0.0,0.0,0.0,0.0,0.0,0.0,0.0,0.0,0.0,0.0,0.0,0.0,4.3489,4.4677,4.6375,0.0,0.0,0.0,0.0,0.0,0.0,0.0,0.0,0.0,0.0,5.7794,5.8812,5.9482,5.9992,6.0484,6.0657,6.0665,6.0533,5.974,5.8974,5.8476,0.0,0.0,0.0,0.0,0.0,0.0,0.0,0.0,0.0,0.0,0.0,0.0,0.0,0.0,0.0,0.0,0.0,0.0,0.0,0.0,0.0,0.0,0.0,0.0,0.0,0.0,0.0,1.8442,0.0,0.0,1.9272,0.0,0.0,0.0,0.0,0.0,0.0,0.0,0.0,0.0,0.0,0.0,0.0,0.0,0.0,0.0,0.0,0.0,0.0,0.0,0.0,0.0,0.0,3.0486,3.3177,3.4756,3.6645,3.8854,3.9853,4.0546,4.1057,4.1011,4.0517,3.9496,0.0,0.0,0.0,0.0,0.0,0.0,0.0,0.0,0.0,0.0,0.0,0.0,0.0,0.0,0.0,0.0,0.0,0.0,0.0,0.0,0.0,0.0,0.0,0.0,0.0,0.0,4.3142,4.4959,4.6557,0.0,0.0,0.0,0.0,0.0,0.0,0.0,0.0,0.0,0.0,5.8051,5.9395,5.9399,6.0827,6.1613,6.1001,6.1093,6.0957,6.0289,5.9397,5.874,0.0,0.0,0.0,0.0,0.0,0.0,0.0,0.0,0.0,0.0,0.0,0.0,0.0,0.0,0.0,0.0,0.0,0.0,0.0,0.0,0.0,0.0,0.0,0.0,0.0,0.0,0.0,1.9183,1.937,0.0,0.0,0.0,0.0,0.0,0.0,0.0,0.0,0.0,0.0,0.0,2.818,2.9269,0.0,0.0,0.0,0.0,0.0,0.0,0.0,0.0,0.0,0.0,0.0,0.0,3.0624,3.315,3.4562,3.6223,3.8134,3.897,3.959,4.0027,4.021,3.9757,3.8655,0.0,0.0,0.0,0.0,0.0,0.0,0.0,0.0,0.0,0.0,0.0,0.0,0.0,0.0,0.0,0.0,0.0,0.0,0.0,0.0,0.0,0.0,0.0,0.0,0.0,4.3376,0.0,0.0,0.0,0.0,0.0,0.0,0.0,0.0,0.0,0.0,0.0,5.6752,5.7971,5.9103,6.0033,6.0594,6.1314,6.1694,0.0,0.0,0.0,0.0,0.0,0.0,0.0,0.0,0.0,0.0,0.0,0.0,0.0,0.0,6.178,6.038,5.9941,5.9617,5.9077,0.0,0.0,0.0,0.0,0.0,0.0,0.0,0.0,0.0,0.0,0.0,0.0,0.0,0.0,2.0649,2.0775,2.0537,0.0,0.0,0.0,0.0,0.0,0.0,0.0,0.0,2.6732,2.8232,2.9105,3.0285,3.0767,0.0,3.0122,2.9194,0.0,0.0,0.0,0.0,0.0,0.0,0.0,0.0,3.0605,3.296,3.4283,3.5687,3.7243,3.8004,3.8639,3.906,3.9446,3.9335,3.8596,3.8012,3.6855,0.0,0.0,0.0,0.0,0.0,0.0,0.0,0.0,0.0,0.0,0.0,0.0,0.0,0.0,0.0,0.0,0.0,0.0,0.0,0.0,0.0,0.0,0.0,4.4943,0.0,0.0,0.0,0.0,0.0,0.0,0.0,0.0,0.0,5.5714,5.6847,5.8053,5.9169,6.0162,6.0964,6.144,0.0,0.0,0.0,0.0,0.0,0.0,0.0,6.2394,6.2673,6.2363,6.232,6.2972,6.3538,6.4253,6.5141,0.0,0.0,6.2408,6.2064,6.1987,6.1444,6.1356,6.1391,6.1344,6.1234,6.1015,0.0,0.0,0.0,0.0,0.0,0.0,0.0,0.0,2.2232,2.2517,0.0,2.2323,0.0,0.0,0.0,0.0,2.0923,2.2385,0.0,0.0,2.7077,2.8675,2.9862,3.083,3.1173,3.0957,3.0363,3.0053,3.0166,2.8762,0.0,0.0,0.0,0.0,0.0,0.0,3.0292,3.2517,3.3792,3.5104,3.6408,3.7185,3.7742,3.8239,3.8722,3.9084,3.9283,3.8335,3.7573,3.6929,3.5339,0.0,0.0,0.0,0.0,0.0,0.0,0.0,0.0,0.0,0.0,0.0,0.0,0.0,0.0,0.0,0.0,0.0,0.0,0.0,0.0,4.5444,0.0,0.0,0.0,0.0,0.0,0.0,0.0,0.0,0.0,0.0,5.8013,5.8648,5.9235,5.9844,0.0,0.0,0.0,0.0,6.3416,6.273,6.3376,6.3729,6.3027,6.271,6.2823,6.3637,0.0,0.0,6.4688,6.5001,6.544,6.6945,6.7024,6.6367,6.4395,6.4016,6.3986,6.393,6.3915,6.4002,6.3985,6.3729,6.3488,2.4709,0.0,0.0,0.0,0.0,2.2876,2.3359,2.3455,2.4012,2.4298,2.4165,2.3372,0.0,0.0,0.0,0.0,0.0,0.0,2.4813,2.6035,2.8287,2.9838,3.0536,3.1848,3.2345,3.1989,3.1902,3.1542,3.0995,3.0508,2.9742,2.8732,0.0,0.0,0.0,0.0,3.1096,3.2818,3.441,3.5661,3.6652,3.744,3.8133,3.8568,3.8629,3.8654,3.8655,3.8498,3.7979,3.7201,3.623,0.0,0.0,0.0,0.0,0.0,0.0,0.0,0.0,0.0,0.0,0.0,0.0,0.0,0.0,0.0,0.0,0.0,0.0,0.0,4.4801,4.6621,4.7751,0.0,0.0,0.0,0.0,0.0,0.0,0.0,0.0,0.0,6.2096,6.1115,6.0663,0.0,0.0,6.3812,6.4414,6.482,6.5001,6.4837,6.5162,0.0,6.5105,6.4942,6.4897,6.5143,6.4905,6.5029,6.6149,6.6334,6.6618,6.7553,6.7686,6.7428,6.6801,6.6334,6.5885,6.5403,6.5251,6.5285,6.5245,6.5133,6.5001,2.6868,2.5108,2.4639,2.4146,2.3799,2.4509,2.4931,2.5032,2.5415,2.5614,2.5576,2.483,2.4141,2.3639,2.2997,0.0,0.0,0.0,2.5534,2.6615,2.8625,2.9928,3.0724,3.1826,3.221,3.2081,3.2102,3.1867,3.1377,3.1141,3.0618,2.9912,0.0,0.0,2.9064,3.0286,3.1481,3.2819,3.4314,3.5568,3.6386,3.7097,3.7707,3.8049,3.8069,3.7964,3.7954,3.8309,3.8141,3.7422,3.7071,3.6298,0.0,0.0,0.0,0.0,0.0,0.0,0.0,0.0,0.0,0.0,0.0,3.7464,3.929,0.0,0.0,0.0,4.3406,4.4754,4.6467,4.839,0.0,0.0,0.0,0.0,0.0,0.0,0.0,5.975,6.0989,6.2311,6.4134,6.3209,6.2708,6.3787,6.4288,6.4802,6.5331,0.0,6.562,6.5632,6.6026,6.6297,6.6297,6.6125,6.6075,6.6086,6.6294,6.6588,6.7104,6.7215,6.7347,6.77,6.7847,6.7794,6.7741,6.7463,6.7163,6.6639,6.6544,6.6549,6.6565,6.6492,6.6316,2.8916,2.8333,2.7008,2.6088,2.5595,2.589,2.6097,2.637,2.6596,2.6699,2.666,2.6256,2.5642,2.4794,2.4284,0.0,2.4132,2.5063,2.6088,2.7045,2.8272,2.9283,3.0369,3.0982,3.1223,3.1223,3.1244,3.1354,3.1244,3.1023,3.0892,3.0721,3.0059,2.9525,2.9252,3.0426,3.1485,3.2556,3.4011,3.5086,3.5971,3.6478,3.6873,3.7165,3.7039,3.7108,3.7413,3.7848,3.7949,3.7776,3.7736,3.7344,3.6411,0.0,0.0,0.0,0.0,0.0,0.0,0.0,0.0,0.0,0.0,0.0,0.0,0.0,0.0,0.0,4.5454,0.0,4.8286,5.0666,0.0,0.0,0.0,5.5549,5.6484,5.7954,5.9638,6.16,0.0,0.0,6.4858,6.4931,6.5077,6.538,6.5396,6.5359,6.5433,6.561,6.5639,6.5713,6.6265,6.6795,6.6795,6.6675,6.6643,6.6643,6.7193,6.7577,6.7667,6.7704,6.765,6.7687,6.7687,6.7687,6.7687,6.765,6.7687,6.7614,6.7614,6.765,6.7594,6.7594,6.7373,2.9637,2.9346,2.9234,2.8366,2.7157,2.7611,2.7745,2.7564,2.7757,2.7776,2.7526,2.6912,2.6031,2.4905,2.4593,2.4754,2.527,2.5989,2.6754,2.7492,2.8783,2.9618,2.9945,3.06,3.0988,3.1007,3.1237,3.1371,3.1371,3.1466,3.1305,3.0777,3.0877,3.0598,3.0178,3.0802,3.1511,3.2501,3.3835,3.5346,3.672,3.6161,3.6194,3.6922,3.6282,3.6168,3.664,3.7108,3.752,3.7821,3.7803,3.7402,3.6822,3.6191,0.0,0.0,0.0,0.0,0.0,0.0,0.0,0.0,0.0,4.0067,4.1528,0.0,4.4036,0.0,4.8383,5.0207,5.0691,5.2762,0.0,0.0,5.5921,5.7282,5.7486,5.9481,6.1406,6.282,6.4004,6.5068,6.612,6.6286,6.6286,6.6308,6.6061,6.608,6.6665,6.6738,6.6793,6.6793,6.7048,6.7286,6.7249,6.7376,6.7376,6.743,6.7577,6.7687,6.7687,6.7687,6.7687,6.7687,6.7687,6.7687,6.7687,6.7616,6.7561,6.7561,6.7633,6.7687,6.7687,6.7687,6.7614,3.0371,3.0176,3.041,2.9889,2.8802,2.8964,2.8655,2.8141,2.8377,2.8153,2.7618,2.7088,2.6635,2.6169,2.5847,2.6064,2.6555,2.6995,2.7306,2.7728,2.8744,2.916,2.9212,2.9906,3.0236,3.0255,3.0743,3.0957,3.1133,3.1505,3.1602,3.1328,3.1368,3.1268,3.0908,3.1043,3.1633,3.2313,3.3781,3.5135,3.6231,3.5792,3.5803,3.6386,3.589,3.5842,3.6193,3.6546,3.7041,3.7675,3.7949,3.7987,3.7694,3.7401,3.6916,0.0,0.0,0.0,0.0,0.0,0.0,0.0,0.0,0.0,0.0,0.0,4.6803,4.9126,5.0992,5.2369,5.3179,5.5243,5.6562,5.6704,5.8078,5.9044,5.9219,6.091,6.2424,6.3463,6.4464,6.5457,6.6197,6.6294,6.633,6.6355,6.6175,6.6301,6.6931,6.7154,6.721,6.721,6.7266,6.7341,6.7341,6.7415,6.7488,6.7488,6.7488,6.7488,6.7488,6.7488,6.7524,6.7524,6.7488,6.7488,6.7488,6.7433,6.7378,6.7414,6.7414,6.747,6.7433,6.7488,6.7488,3.1016,3.0976,3.0976,3.0703,3.0234,2.9883,2.925,2.8584,2.8584,2.8153,2.7484,2.7138,2.7252,2.7586,2.7251,2.7322,2.7651,2.7706,2.7809,2.7903,2.821,2.841,2.86,2.9057,2.9331,2.9505,3.0116,3.068,3.1084,3.1463,3.1797,3.2129,3.1797,3.1601,3.1582,3.1387,3.1616,3.2227,3.3593,3.458,3.5268,3.5341,3.5502,3.5868,3.5675,3.5793,3.6155,3.6393,3.6824,3.7612,3.832,3.8738,3.8882,3.8837,3.8671,0.0,3.8003,0.0,0.0,0.0,0.0,0.0,0.0,0.0,0.0,4.7253,4.9992,5.2362,5.3361,5.4449,5.566,5.7756,5.9077,5.9227,6.0095,6.0836,6.1238,6.2151,6.3031,6.372,6.4588,6.5278,6.5675,6.5675,6.5768,6.5895,6.5922,6.6136,6.6691,6.6925,6.704,6.7097,6.7154,6.7137,6.7213,6.7213,6.721,6.721,6.721,6.721,6.721,6.721,6.721,6.721,6.721,6.721,6.721,6.7193,6.7193,6.721,6.7134,6.7113,6.721,6.721,6.721,3.1719,3.1406,3.1406,3.1015,3.0374,3.0296,2.9718,2.9007,2.869,2.8408,2.7996,2.7432,2.7241,2.7332,2.6972,2.6893,2.6982,2.7303,2.7615,2.7921,2.8246,2.8683,2.8856,2.8975,2.9398,2.9953,3.0313,3.0882,3.1546,3.191,3.209,3.2168,3.209,3.2031,3.2031,0.0,0.0,0.0,3.2799,3.3593,3.4602,3.4471,3.4939,3.5888,3.5709,0.0,3.6948,3.7023,3.7467,3.846,3.9112,0.0,0.0,0.0,0.0,0.0,0.0,0.0,0.0,0.0,0.0,0.0,4.6494,4.7471,4.6811,5.0184,5.2746,5.3799,5.5742,5.7199,5.7825,5.9463,6.0482,6.0593,6.1579,6.2285,6.2438,6.2993,6.3543,6.3796,6.4218,6.4671,6.5046,6.5149,6.518,6.5379,6.551,6.564,6.5768,6.6207,6.6452,6.6452,6.6727,6.6961,6.719,6.7154,6.719,6.7227,6.719,6.721,6.721,6.721,6.721,6.721,6.721,6.721,6.721,6.7154,6.704,6.7076,6.6845,6.675,6.7097,6.721,6.721,3.2051,3.1855,3.1836,3.1463,0.0,3.0581,2.9982,2.9278,2.884,2.831,2.7765,2.7441,2.7319,2.7383,2.7151,2.7239,2.7434,2.7766,2.7973,2.7973,2.8289,2.8625,2.8787,2.8908,2.9489,3.0119,3.0607,3.1321,3.1969,3.2338,3.2578,3.2773,3.2578,3.248,3.2461,3.2051,3.186,3.2018,3.2567,3.3163,3.3974,3.4383,3.4885,3.5626,3.6109,0.0,0.0,0.0,0.0,0.0,0.0,0.0,0.0,0.0,0.0,4.2899,4.3224,4.3574,4.3892,4.5113,4.5932,4.6307,4.8952,5.0601,5.0475,5.2922,5.4777,5.5781,5.7526,5.8705,5.9172,6.0345,6.122,6.1458,6.1953,6.2459,6.2693,6.2923,6.3302,6.3639,6.3858,6.4145,6.4533,6.4603,6.4637,6.4843,6.4876,6.5046,6.5247,6.5768,6.6146,6.6269,6.6427,6.6632,6.6772,6.6867,6.6867,6.6998,6.6961,6.7019,6.7019,6.7019,6.7019,6.6867,6.6867,6.6867,6.675,6.6691,6.6668,6.6632,6.6512,6.6452,6.675,6.6809,6.6867,3.2344,3.2285,3.2285,3.1769,3.0983,3.0781,3.0231,2.9636,0.0,0.0,0.0,2.7427,2.7356,2.7423,2.7441,2.7599,2.79,2.8229,2.8367,2.8246,2.8559,2.8774,2.8939,2.9202,2.9769,3.0507,3.1143,3.1741,3.2411,3.2786,3.3066,3.3359,3.3066,3.2871,3.2773,3.2642,3.2315,3.2089,3.2723,3.3327,3.3891,3.4843,3.5533,3.6041,3.7086,3.7733,3.7808,3.8416,3.8918,3.9389,4.02,4.116,4.2385,4.3172,4.4079,4.5052,4.5666,4.5941,4.6123,4.7186,4.8142,4.8593,5.1236,5.31,5.3959,5.5114,5.6272,5.7506,5.873,5.9577,6.0109,6.0853,6.1465,6.1837,6.1997,6.2156,6.2537,6.2615,6.2923,6.3377,6.3452,6.3673,6.4037,6.4143,6.418,6.4358,6.4393,6.4498,6.4911,6.5445,6.5958,6.6146,6.6243,6.6233,6.6404,6.65,6.6512,6.6668,6.6727,6.6727,6.6727,6.6727,6.6668,6.6512,6.6452,6.6452,6.633,6.6269,6.6269,6.6207,6.6207,6.6146,6.6146,6.6207,6.633,3.3027,3.2695,3.2715,3.2073,3.1199,3.1077,3.0691,3.0088,2.9333,2.8747,2.8354,2.7979,2.7758,2.7452,2.7228,2.7246,2.7539,2.8009,2.8412,2.8918,2.9364,2.9792,3.034,3.0464,3.0915,3.1539,3.1951,3.2431,3.2796,3.3194,3.3379,3.3398,3.3359,3.3144,3.2851,3.3336,3.343,3.2954,3.3353,3.4046,3.5177,3.6197,3.7178,3.8231,3.8871,3.9637,4.0343,4.0721,4.117,4.1696,4.2526,4.3371,4.423,4.4924,4.5789,4.6643,4.6956,4.7427,4.8106,4.9257,5.0816,5.2617,5.3953,5.4709,5.4884,5.6144,5.7306,5.8107,5.9014,5.9903,6.0501,6.0936,6.1252,6.1465,6.1756,6.2076,6.2156,6.2459,6.2693,6.2847,6.3,6.3227,6.36,6.3673,6.3854,6.4143,6.4354,6.4392,6.4638,6.4979,6.548,6.5804,6.5867,6.5958,6.6269,6.633,6.633,6.633,6.6391,6.6391,6.6391,6.6499,6.6438,6.6366,6.6413,6.6413,6.6315,6.6146,6.6164,6.62,6.601,6.5818,6.5853,6.5818,6.5939,3.3301,3.3125,3.3144,3.2517,3.1475,3.0897,3.0451,3.0167,2.9819,2.9514,2.9148,2.9008,2.8763,2.8395,2.8289,2.8289,2.8412,2.8835,2.9154,2.9418,2.9847,3.0296,3.0997,3.0997,3.1471,3.2352,3.2516,3.2865,3.3165,3.3292,3.3418,3.3418,3.3418,3.3446,3.3414,3.3697,3.3973,3.4085,3.4186,3.4658,3.5488,3.6511,3.7543,3.847,3.9474,4.0245,4.0681,4.1222,4.1757,4.2157,4.2997,4.388,4.4894,4.5834,4.6811,4.7956,4.8735,4.9494,5.0135,5.1187,5.2412,5.3781,5.4578,5.5213,5.5551,5.6747,5.7737,5.8159,5.917,5.9804,6.012,6.0581,6.1002,6.1252,6.1628,6.1837,6.1997,6.2268,6.2537,6.2693,6.277,6.2923,6.3227,6.3302,6.3508,6.4042,6.4571,6.507,6.5256,6.5652,6.5758,6.5459,6.548,6.5675,6.5994,6.6021,6.6083,6.6269,6.6269,6.6269,6.6305,6.6531,6.6693,6.6702,6.6825,6.7082,6.7053,6.6922,6.6856,6.6856,6.679,6.6692,6.6589,6.6589,6.6505,3.3574,3.3574,3.3457,3.2845,3.1891,3.0983,3.0604,3.0479,3.0461,3.0336,3.0049,2.9886,2.9564,2.9208,2.9208,2.919,2.9333,2.9654,2.9815,2.994,3.0299,3.0877,3.1514,3.1552,3.21,3.2892,3.3038,3.3165,3.3418,3.3418,3.3418,3.3418,3.3418,3.3544,3.3922,3.3922,3.4298,3.5025,3.5066,3.5318,3.5951,3.7077,3.8114,3.8821,4.0193,4.0832,4.0967,4.1806,4.2423,4.2746,4.3596,4.4599,4.5684,4.6648,4.7707,4.9089,5.0023,5.102,5.1932,5.2615,5.3473,5.4371,5.484,5.5379,5.6017,5.7019,5.7778,5.8119,5.8972,5.954,5.9804,6.0292,6.075,6.1002,6.1417,6.179,6.1951,6.2189,6.2459,6.2649,6.2649,6.2761,6.3051,6.3162,6.3546,6.4376,6.5156,6.5731,6.5918,6.611,6.5924,6.5584,6.5508,6.5884,6.6109,6.6245,6.641,6.6558,6.663,6.6674,6.671,6.7039,6.716,6.71,6.7394,6.7543,6.7515,6.741,6.7375,6.7235,6.713,6.7235,6.7095,6.7095,6.7161,3.4023,3.3945,3.3594,3.3038,3.2346,3.1926,3.1505,3.1249,3.1267,3.1267,3.1157,3.0121,2.9582,2.919,2.9226,2.9476,2.9743,3.0068,3.0375,3.0772,3.1102,3.167,3.2218,3.2218,3.2619,3.3292,3.3311,3.333,3.3457,3.3457,3.3437,3.3418,3.3418,3.3583,3.3942,3.4193,3.4693,3.5294,3.5869,3.656,3.7265,3.8439,3.9499,4.0429,4.1485,4.2051,4.2276,4.3425,4.4128,4.4489,4.546,4.6552,4.7403,4.7866,4.8541,4.9743,5.0162,5.1144,5.2981,5.3516,5.4051,5.497,5.531,5.5671,5.5979,5.6537,5.7115,5.7871,5.8427,5.8972,5.9628,6.012,6.0548,6.0717,6.1301,6.1709,6.179,6.2144,6.2381,6.2381,6.2527,6.273,6.3475,6.3713,6.4132,6.4937,6.5357,6.5652,6.5852,6.6006,6.6167,6.6155,6.6453,6.6884,6.7196,6.7406,6.7262,6.7401,6.7404,6.7366,6.733,6.7437,6.7513,6.7513,6.7585,6.7693,6.7517,6.72,6.7129,6.7195,6.7015,6.6694,6.6516,6.6729,6.688,3.4453,3.4394,3.3984,3.3398,3.2696,3.2294,3.2038,3.1653,3.1653,3.1653,3.1616,3.1156,3.0774,3.0502,3.0502,3.0629,3.0774,3.0938,3.1139,3.1413,3.1579,3.2038,3.2657,3.2657,3.2912,3.3457,3.3691,3.3809,3.3848,3.4043,3.418,3.418,3.4438,3.4695,3.4952,3.5335,3.5845,3.6498,3.7231,3.7854,3.8552,3.9281,4.024,4.1354,4.2462,4.3044,4.3301,4.4077,4.4751,4.5232,4.5866,4.6559,4.7478,4.7918,4.8709,4.9931,5.1045,5.2206,5.3406,5.3875,5.4369,5.4976,5.5329,5.5762,5.6009,5.6372,5.6827,5.759,5.8243,5.8792,5.9274,5.9946,6.0463,6.0633,6.1219,6.1709,6.1709,6.2144,6.2415,6.2415,6.2787,6.3159,6.3645,6.4436,6.5094,6.5663,6.6004,6.6404,6.6599,6.6872,6.7074,6.723,6.7614,6.7536,6.7339,6.7165,6.7271,6.7411,6.7411,6.7411,6.7517,6.7658,6.7797,6.7797,6.8006,6.8179,6.8243,6.8064,6.799,6.7771,6.784,6.7765,6.7765,6.7765,6.7915,3.4883,3.4824,3.4434,3.3934,3.3258,3.2886,3.2592,3.2188,3.2094,3.2038,3.2038,3.2038,3.191,3.1635,3.1635,3.1635,3.1635,3.1635,3.1782,3.2038,3.2038,3.235,3.3085,3.3104,3.3289,3.3809,3.4101,3.4238,3.4277,3.4531,3.4687,3.4707,3.51,3.5511,3.5751,3.616,3.6804,3.7424,3.8059,3.8881,3.9552,4.0273,4.108,4.1798,4.2998,4.3708,4.3708,4.4444,4.5102,4.5681,4.6039,4.669,4.751,4.8181,4.9035,5.0325,5.1858,5.2894,5.35,5.4007,5.4422,5.4803,5.5197,5.5601,5.591,5.6176,5.6634,5.7401,5.815,5.861,5.8972,5.9859,6.0378,6.0463,6.1219,6.1709,6.1709,6.2278,6.2719,6.2753,6.3396,6.3903,6.4241,6.5155,6.605,6.6234,6.6724,6.718,6.7346,6.7523,6.765,6.7845,6.8083,6.7946,6.7318,6.7469,6.7583,6.7583,6.776,6.7831,6.7655,6.7998,6.8129,6.8239,6.8537,6.86,6.8392,6.8454,6.8405,6.8362,6.8362,6.8327,6.8033,6.8327,6.8362,3.5351,3.5293,3.4863,3.4517,3.4085,3.37,3.3398,3.3009,3.263,3.2441,3.2459,3.2441,3.2422,3.2294,3.2441,3.2294,3.2294,3.2294,3.2313,3.2459,3.2459,3.2777,3.3527,3.3546,3.3979,3.4512,3.4629,3.4687,3.4707,3.4726,3.4687,3.4726,3.5179,3.5551,3.5961,3.65,3.7061,3.7912,3.8546,3.9456,4.0464,4.1489,4.1877,4.206,4.3022,4.3806,4.3806,4.4817,4.5565,4.5893,4.6678,4.7431,4.8068,4.8762,4.9648,5.1044,5.2085,5.2894,5.3453,5.3972,5.442,5.473,5.5108,5.5411,5.5979,5.6077,5.6439,5.7401,5.7933,5.8427,5.8972,5.9859,6.0378,6.0463,6.1219,6.1628,6.1776,6.275,6.3349,6.3565,6.4106,6.4783,6.5459,6.6271,6.6609,6.6677,6.6779,6.6896,6.718,6.7263,6.7346,6.751,6.7719,6.797,6.8412,6.8328,6.8398,6.8363,6.8264,6.8502,6.8642,6.8635,6.86,6.86,6.8559,6.844,6.8397,6.8241,6.8004,6.7879,6.7799,6.7719,6.7879,6.7799,6.7879,3.5644,3.5391,3.5215,3.498,3.4556,3.4401,3.4081,3.3819,3.3666,3.3455,3.3244,3.3206,3.3181,3.3058,3.3347,3.3053,3.2441,3.2422,3.2682,3.3168,3.3206,3.3546,3.4173,3.4342,3.4401,3.4726,3.5,3.5293,3.5527,3.5547,3.5547,3.5681,3.6216,3.6483,3.6729,3.7522,3.8308,3.8937,3.9733,4.059,4.1592,4.2418,4.3074,4.3402,4.4257,4.4741,4.4741,4.554,4.6119,4.6501,4.6891,4.756,4.8172,4.9098,5.0123,5.1017,5.1896,5.2544,5.3029,5.3791,5.4345,5.4466,5.4976,5.5381,5.588,5.6077,5.6439,5.7306,5.7933,5.8395,5.9062,5.9859,6.0378,6.0463,6.1136,6.191,6.2393,6.3087,6.37,6.4208,6.485,6.5595,6.6203,6.6643,6.6812,6.6812,6.6812,6.6812,6.693,6.7097,6.718,6.7346,6.7475,6.7638,6.7879,6.8284,6.844,6.8517,6.8482,6.8447,6.844,6.8319,6.8284,6.8128,6.8162,6.8083,6.7925,6.7879,6.7638,6.7557,6.7394,6.7394,6.7475,6.7557,6.7557,3.5859,3.5625,3.5586,3.541,3.5117,3.498,3.479,3.4638,3.4371,3.4158,3.3927,3.4018,3.3843,3.3906,3.4141,3.3882,3.3206,3.3206,3.3489,3.3869,3.3888,3.425,3.4863,3.4922,3.5,3.5156,3.543,3.5742,3.5996,3.6035,3.6016,3.6248,3.6809,3.7213,3.7616,3.8416,3.921,3.9844,4.0647,4.1399,4.2293,4.2925,4.3553,4.4299,4.4939,4.5331,4.5453,4.6059,4.6446,4.6661,4.6993,4.756,4.8521,4.9328,5.0235,5.0906,5.1677,5.2329,5.2816,5.3733,5.4257,5.4333,5.4845,5.5381,5.5979,5.5979,5.6537,5.7306,5.7933,5.8395,5.9062,5.9859,6.0378,6.0496,6.1418,6.2245,6.2747,6.366,6.4546,6.5256,6.5764,6.6271,6.6677,6.6779,6.6812,6.6812,6.6812,6.6812,6.6812,6.6896,6.7097,6.7097,6.7263,6.7428,6.7475,6.7799,6.8004,6.8004,6.8083,6.8162,6.8162,6.8039,6.7879,6.7799,6.7638,6.7557,6.7475,6.7428,6.7346,6.7312,6.7229,6.7146,6.7229,6.7312,6.7312,3.6016,3.5996,3.6016,3.5957,3.5859,3.5527,3.5391,3.5332,3.4961,3.4805,3.4726,3.4707,3.4668,3.4648,3.4668,3.4687,3.4537,3.4556,3.4576,3.4707,3.4707,3.4941,3.5371,3.5391,3.5566,3.5879,3.5976,3.6016,3.6016,3.6035,3.6152,3.6519,3.6924,3.7348,3.8191,3.8835,3.9473,4.0257,4.0928,4.1678,4.2293,4.3051,4.3701,4.4299,4.4939,4.5453,4.5817,4.6059,4.6301,4.6421,4.6874,4.7795,4.8895,4.9354,5.001,5.0795,5.1677,5.2329,5.2787,5.3722,5.4244,5.4333,5.4845,5.5381,5.588,5.5979,5.6439,5.7306,5.7933,5.8395,5.8972,5.9772,6.0378,6.0529,6.175,6.2714,6.3165,6.4536,6.5933,6.6474,6.6677,6.6779,6.6812,6.6812,6.6812,6.6812,6.6812,6.6812,6.6812,6.6812,6.6812,6.6812,6.7014,6.718,6.7263,6.7346,6.7394,6.7475,6.7638,6.7719,6.7719,6.7638,6.7638,6.7557,6.7394,6.7312,6.7229,6.718,6.7063,6.698,6.6896,6.6896,6.698,6.7063,6.718,3.6035,3.6035,3.6035,3.6035,3.6016,3.5879,3.582,3.582,3.5664,3.5449,3.5215,3.5176,3.5,3.4824,3.5019,3.5176,3.5215,3.5449,3.5449,3.5215,3.5176,3.5391,3.5742,3.582,3.5898,3.6016,3.6035,3.6035,3.6035,3.6035,3.6152,3.6519,3.6944,3.7502,3.8171,3.8835,3.9604,4.0647,4.1293,4.2061,4.2925,4.3428,4.4051,4.4939,4.5208,4.5574,4.6059,4.6301,4.6326,4.6301,4.6874,4.7677,4.8663,4.9125,4.967,5.0572,5.1458,5.2113,5.2787,5.3693,5.4215,5.4436,5.4845,5.5381,5.588,5.5979,5.6439,5.7306,5.7778,5.8243,5.8972,5.9684,6.0239,6.0378,6.185,6.3082,6.3802,6.5312,6.6356,6.6745,6.6812,6.6812,6.6812,6.6812,6.6812,6.6812,6.6812,6.6812,6.6812,6.6812,6.6812,6.6812,6.6896,6.698,6.698,6.7063,6.7063,6.7229,6.7312,6.7312,6.7394,6.7394,6.7312,6.7346,6.7146,6.7063,6.698,6.6896,6.6896,6.6812,6.6812,6.6812,6.6812,6.6896,6.7014,3.6035,3.6035,3.6035,3.6035,3.6035,3.6035,3.6035,3.6035,3.6035,3.5859,3.5664,3.5625,3.5469,3.5293,3.5508,3.5625,3.5644,3.5918,3.5879,3.5664,3.5625,3.5781,3.6016,3.6035,3.6035,3.6035,3.6035,3.6035,3.6035,3.6035,3.6287,3.6674,3.6944,3.7616,3.8437,3.8967,3.9735,4.0906,4.155,4.2316,4.3177,4.3678,4.4422,4.5184,4.5453,4.5817,4.6301,4.6326,4.6326,4.6421,4.6874,4.756,4.8431,4.8895,4.9556,5.046,5.1238,5.1896,5.268,5.3453,5.4081,5.4333,5.4773,5.528,5.588,5.5979,5.6439,5.7306,5.7778,5.8243,5.8914,5.979,6.0413,6.0803,6.223,6.3568,6.474,6.5986,6.6745,6.6812,6.6812,6.6812,6.6812,6.6812,6.6812,6.6812,6.6812,6.6812,6.6812,6.6812,6.6812,6.6812,6.6812,6.6812,6.6812,6.6812,6.6812,6.6896,6.7063,6.7063,6.7146,6.7146,6.7063,6.7063,6.698,6.6896,6.6896,6.6812,6.6812,6.6812,6.6812,6.6812,6.6812,6.6812,6.6896,3.6035,3.6035,3.6035,3.6035,3.6035,3.6035,3.6035,3.6035,3.6035,3.5996,3.5996,3.5957,3.5976,3.5996,3.5937,3.5957,3.6016,3.5996,3.6016,3.5976,3.5976,3.5996,3.6016,3.6035,3.6035,3.6035,3.6035,3.6035,3.6035,3.6035,3.6423,3.6944,3.7079,3.775,3.8814,3.921,3.9866,4.1164,4.1678,4.2443,4.3326,4.395,4.457,4.5331,4.5574,4.5939,4.618,4.6326,4.6301,4.6421,4.6874,4.7442,4.8172,4.8779,4.9583,5.0348,5.0989,5.1787,5.2573,5.3213,5.3815,5.4304,5.4671,5.5078,5.578,5.5979,5.6342,5.7306,5.7684,5.8182,5.8983,5.996,6.088,6.171,6.2908,6.447,6.6119,6.6643,6.6812,6.6812,6.6812,6.6812,6.6812,6.6812,6.6812,6.6812,6.6812,6.6812,6.6812,6.6812,6.6812,6.6812,6.6812,6.6812,6.6812,6.6812,6.6812,6.6812,6.6896,6.6896,6.698,6.6896,6.6896,6.6896,6.6812,6.6812,6.6812,6.6812,6.6812,6.6812,6.6812,6.6812,6.6812,6.6812,6.6812,3.6035,3.6035,3.6035,3.6035,3.6035,3.6035,3.6035,3.6035,3.6035,3.6035,3.6035,3.6035,3.6035,3.6035,3.6035,3.6035,3.6035,3.6035,3.6035,3.6035,3.6035,3.6035,3.6035,3.6035,3.6035,3.6035,3.6035,3.6035,3.6035,3.6016,3.6423,3.7079,3.7079,3.775,3.9078,3.9473,4.0127,4.1293,4.2189,4.2696,4.3326,4.4199,4.4816,4.5331,4.5574,4.5939,4.6301,4.6326,4.6421,4.6686,4.6993,4.7324,4.7821,4.8637,4.9354,4.9897,5.0795,5.1568,5.2329,5.3078,5.371,5.42,5.4568,5.5078,5.5681,5.588,5.6244,5.6892,5.7306,5.8091,5.9061,6.0077,6.1336,6.3078,6.4009,6.5124,6.6152,6.6643,6.6812,6.6812,6.6812,6.6812,6.6812,6.6812,6.6812,6.6812,6.6812,6.6812,6.6812,6.6812,6.6812,6.6812,6.6812,6.6812,6.6812,6.6812,6.6812,6.6812,6.6812,6.6812,6.6812,6.6812,6.6812,6.6812,6.6812,6.6812,6.6812,6.6812,6.6812,6.6812,6.6812,6.6812,6.6812,6.6812,6.6812,3.6035,3.6035,3.6035,3.6035,3.6035,3.6035,3.6035,3.6035,3.6035,3.6035,3.6035,3.6035,3.6035,3.6035,3.6035,3.6035,3.6035,3.6035,3.6035,3.6035,3.6035,3.6035,3.6035,3.6035,3.6035,3.6035,3.6035,3.6035,3.6016,3.6132,3.6539,3.7079,3.7213,3.8017,3.9078,3.9583,4.0236,4.1293,4.2316,4.2949,4.3326,4.4446,4.4963,4.5331,4.5696,4.618,4.6326,4.6326,4.6446,4.6661,4.6993,4.7324,4.756,4.8521,4.924,4.9583,5.0572,5.1458,5.2113,5.2759,5.353,5.4156,5.4495,5.4905,5.5441,5.5841,5.6206,5.7131,5.7645,5.8466,5.9602,6.0697,6.2256,6.3946,6.4839,6.5487,6.6302,6.6507,6.6728,6.6728,6.6812,6.6812,6.6812,6.6812,6.6812,6.6812,6.6812,6.6812,6.6812,6.6812,6.6812,6.6812,6.6812,6.6812,6.6812,6.6812,6.6812,6.6812,6.6812,6.6812,6.6812,6.6812,6.6812,6.6812,6.6812,6.6812,6.6812,6.6812,6.6812,6.6812,6.6812,6.6812,6.6812,6.6812,6.6812,3.6035,3.6035,3.6035,3.6035,3.6035,3.6035,3.6035,3.6035,3.6035,3.6035,3.6035,3.6035,3.6035,3.6035,3.6035,3.6035,3.6035,3.6035,3.6035,3.6035,3.6035,3.6035,3.6035,3.6035,3.6035,3.6035,3.6035,3.6035,3.6016,3.6268,3.6654,3.7079,3.7482,3.815,3.9078,3.9583,4.0257,4.1293,4.2316,4.2949,4.3451,4.457,4.5208,4.5331,4.5939,4.618,4.6326,4.6326,4.6326,4.6326,4.6874,4.7205,4.7324,4.8405,4.9125,4.9583,5.0348,5.1238,5.2004,5.2465,5.3136,5.3902,5.4318,5.4687,5.5478,5.6073,5.6686,5.7641,5.8262,5.909,6.036,6.185,6.3145,6.4309,6.5024,6.5537,6.5922,6.6302,6.6592,6.6728,6.6728,6.6812,6.6812,6.6812,6.6812,6.6812,6.6812,6.6812,6.6812,6.6812,6.6812,6.6812,6.6812,6.6812,6.6812,6.6812,6.6812,6.6812,6.6812,6.6812,6.6812,6.6812,6.6812,6.6812,6.6812,6.6812,6.6812,6.6812,6.6812,6.6812,6.6812,6.6812,6.6812,6.6812,6.6812,3.6035,3.6035,3.6035,3.6035,3.6035,3.6035,3.6035,3.6035,3.6035,3.6035,3.6035,3.6035,3.6035,3.6035,3.6035,3.6035,3.6035,3.6035,3.6035,3.6035,3.6035,3.6035,3.6035,3.6035,3.6035,3.6035,3.6035,3.6035,3.6152,3.6403,3.6654,3.7079,3.7616,3.815,3.9078,3.9866,4.0539,4.1444,4.257,4.32,4.3576,4.457,4.5331,4.5453,4.5939,4.6301,4.6326,4.6326,4.6326,4.6421,4.6874,4.7205,4.7442,4.8172,4.8895,4.9354,5.015,5.0934,5.1486,5.2335,5.3001,5.3751,5.4655,5.5308,5.5619,5.6612,5.7293,5.7943,5.8447,5.942,6.1024,6.2524,6.3479,6.4142,6.4761,6.5279,6.5603,6.6129,6.6421,6.6592,6.6728,6.6812,6.6812,6.6812,6.6812,6.6812,6.6812,6.6812,6.6812,6.6812,6.6812,6.6812,6.6812,6.6812,6.6812,6.6812,6.6812,6.6812,6.6812,6.6812,6.6812,6.6812,6.6812,6.6812,6.6812,6.6812,6.6812,6.6812,6.6812,6.6812,6.6812,6.6812,6.6812,6.6812,6.6812,3.6035,3.6035,3.6035,3.6035,3.6035,3.6035,3.6035,3.6035,3.6035,3.6035,3.6035,3.6035,3.6035,3.6035,3.6035,3.6035,3.6035,3.6035,3.6035,3.6035,3.6035,3.6035,3.6035,3.6035,3.6035,3.6035,3.6035,3.6035,3.6152,3.6539,3.6944,3.7213,3.775,3.8416,3.921,3.9997,4.0777,4.1421,4.257,4.3326,4.3451,4.457,4.5574,4.5696,4.6059,4.6326,4.6326,4.6326,4.6326,4.6421,4.678,4.7112,4.7324,4.8055,4.8663,4.9125,5.0081,5.0983,5.1822,5.271,5.3669,5.434,5.5213,5.5778,5.6212,5.7064,5.7794,5.8347,5.9083,5.9973,6.1589,6.236,6.326,6.3959,6.4333,6.4735,6.5279,6.5813,6.6249,6.6421,6.6592,6.6728,6.6728,6.6728,6.6812,6.6812,6.6812,6.6812,6.6812,6.6812,6.6812,6.6812,6.6812,6.6812,6.6812,6.6812,6.6812,6.6812,6.6812,6.6812,6.6812,6.6812,6.6812,6.6812,6.6812,6.6812,6.6812,6.6812,6.6812,6.6812,6.6812,6.6812,6.6812,6.6812,6.6812,3.6035,3.6035,3.6035,3.6035,3.6035,3.6035,3.6035,3.6035,3.6035,3.6035,3.6035,3.6035,3.6035,3.6035,3.6035,3.6035,3.6035,3.6035,3.6035,3.6035,3.6035,3.6035,3.6035,3.6035,3.6035,3.6035,3.6035,3.6035,3.6152,3.6674,3.7079,3.7213,3.8017,3.8681,3.9341,4.0127,4.0906,4.1421,4.257,4.3326,4.3576,4.457,4.5574,4.6059,4.6205,4.6326,4.6326,4.6326,4.6326,4.6301,4.6566,4.69,4.7231,4.7821,4.851,4.9143,5.0263,5.1195,5.221,5.3332,5.4333,5.5254,5.5995,5.6407,5.6828,5.7451,5.8189,5.8923,5.9685,6.0524,6.199,6.2481,6.2873,6.3484,6.3865,6.4272,6.4826,6.5336,6.578,6.6249,6.6388,6.6473,6.6643,6.6762,6.6728,6.6812,6.6812,6.6812,6.6812,6.6812,6.6812,6.6812,6.6812,6.6812,6.6812,6.6812,6.6812,6.6812,6.6812,6.6812,6.6812,6.6812,6.6812,6.6812,6.6812,6.6812,6.6812,6.6812,6.6812,6.6812,6.6812,6.6812,6.6812,6.6812,6.6812,3.6035,3.6035,3.6035,3.6035,3.6035,3.6035,3.6035,3.6035,3.6035,3.6035,3.6035,3.6035,3.6035,3.6035,3.6035,3.6035,3.6035,3.6035,3.6035,3.6035,3.6035,3.6035,3.6035,3.6035,3.6035,3.6035,3.6035,3.6035,3.6152,3.6674,3.7079,3.7233,3.7904,3.857,3.921,3.9997,4.0777,4.1421,4.257,4.3326,4.3576,4.457,4.5574,4.618,4.6326,4.6326,4.6326,4.6326,4.6326,4.6301,4.6301,4.6661,4.7163,4.7637,4.8433,4.9595,5.0354,5.1258,5.2536,5.3613,5.4175,5.484,5.5961,5.6828,5.7252,5.7981,5.859,5.9274,6.0028,6.0877,6.1277,6.1916,6.2383,6.2873,6.3389,6.3959,6.424,6.461,6.5156,6.5692,6.5955,6.6302,6.6388,6.6558,6.6558,6.6643,6.6728,6.6728,6.6728,6.6728,6.6812,6.6812,6.6812,6.6812,6.6812,6.6812,6.6812,6.6812,6.6812,6.6812,6.6812,6.6812,6.6812,6.6728,6.6728,6.6812,6.6812,6.6812,6.6812,6.6812,6.6812,6.6812,6.6812,6.6812,6.6812,3.6035,3.6035,3.6035,3.6035,3.6035,3.6035,3.6035,3.6035,3.6035,3.6035,3.6035,3.6035,3.6035,3.6035,3.6035,3.6035,3.6035,3.6035,3.6035,3.6035,3.6035,3.6035,3.6035,3.6035,3.6035,3.6035,3.6035,3.6035,3.6016,3.6809,3.7079,3.7348,3.8037,3.8702,3.9341,4.0127,4.0777,4.155,4.257,4.3326,4.3451,4.457,4.5574,4.6059,4.6326,4.6326,4.6326,4.6326,4.6326,4.6326,4.6301,4.6692,4.7205,4.7838,4.8536,4.9587,5.0655,5.1674,5.2877,5.3884,5.4826,5.5508,5.647,5.7283,5.7782,5.8317,5.8882,5.9529,6.0061,6.069,6.1,6.1512,6.1885,6.2383,6.2873,6.3389,6.377,6.4146,6.461,6.5066,6.5425,6.5746,6.6182,6.6302,6.6388,6.6473,6.6558,6.6643,6.6643,6.6643,6.6728,6.6728,6.6728,6.6694,6.6694,6.6694,6.6728,6.6728,6.6728,6.6728,6.6728,6.6643,6.6643,6.6592,6.6677,6.6728,6.6812,6.6812,6.6812,6.6812,6.6728,6.6728,6.6812,6.6812,6.6728,3.6035,3.6035,3.6035,3.6035,3.6035,3.6035,3.6035,3.6035,3.6035,3.6035,3.6035,3.6035,3.6035,3.6035,3.6035,3.6035,3.6035,3.6035,3.6035,3.6035,3.6035,3.6035,3.6035,3.6035,3.6035,3.6035,3.6035,3.6035,3.6152,3.6674,3.6944,3.7213,3.8017,3.8814,3.9341,4.0127,4.0777,4.155,4.257,4.3302,4.395,4.4693,4.5574,4.618,4.6326,4.6326,4.6326,4.6326,4.6326,4.6351,4.6451,4.6799,4.7542,4.8186,4.8799,4.9677,5.1043,5.2164,5.3206,5.4283,5.5299,5.605,5.6793,5.7416,5.8003,5.8415,5.8882,5.9422,5.9849,6.0377,6.069,6.1,6.141,6.1916,6.2284,6.258,6.3196,6.358,6.3959,6.4426,6.4885,6.5303,6.5658,6.5922,6.5922,6.6182,6.6388,6.6388,6.6388,6.6473,6.6558,6.6525,6.661,6.6542,6.6542,6.6491,6.6525,6.6473,6.6473,6.644,6.6473,6.6473,6.6473,6.6388,6.6473,6.6558,6.6643,6.6694,6.6542,6.6542,6.661,6.6643,6.6558,6.6558,6.6473,3.6035,3.6035,3.6035,3.6035,3.6035,3.6035,3.6035,3.6035,3.6035,3.6035,3.6035,3.6035,3.6035,3.6035,3.6035,3.6035,3.6035,3.6035,3.6035,3.6035,3.6035,3.6035,3.6035,3.6035,3.6035,3.6035,3.6035,3.6035,3.6152,3.6403,3.6809,3.7213,3.7616,3.8283,3.921,3.9997,4.0647,4.1421,4.257,4.3826,4.4816,4.5208,4.5696,4.6059,4.6326,4.6326,4.6326,4.6326,4.6326,4.6351,4.6778,4.7151,4.7744,4.8953,4.9708,5.0331,5.125,5.2366,5.3347,5.435,5.52,5.5958,5.6595,5.7193,5.7868,5.8394,5.8882,5.9422,5.9636,5.9849,6.0272,6.069,6.1,6.141,6.1885,6.2184,6.258,6.3099,6.3484,6.3675,6.4114,6.4669,6.5246,6.5392,6.557,6.5922,6.6095,6.6095,6.6182,6.6268,6.6354,6.6354,6.6354,6.6406,6.6372,6.6406,6.6302,6.6335,6.6268,6.6268,6.6268,6.6302,6.6182,6.6095,6.6182,6.6095,6.6095,6.6029,6.6186,6.6253,6.6421,6.6335,6.6182,6.6182,6.6268,3.6035,3.6035,3.6035,3.6035,3.6035,3.6035,3.6035,3.6035,3.6035,3.6035,3.6035,3.6035,3.6035,3.6035,3.6035,3.6035,3.6035,3.6035,3.6035,3.6035,3.6035,3.6035,3.6035,3.6035,3.6035,3.6035,3.6035,3.6035,3.6152,3.6403,3.6654,3.7079,3.7482,3.815,3.9078,3.9866,4.0517,4.1421,4.257,4.395,4.4939,4.5331,4.5574,4.6326,4.6326,4.6326,4.6326,4.6326,4.6326,4.6401,4.6828,4.7355,4.7881,4.8886,4.9745,5.0481,5.123,5.2253,5.3173,5.4074,5.4845,5.558,5.6365,5.7022,5.7868,5.8394,5.8803,5.9207,5.9422,5.9636,5.9955,6.0272,6.069,6.1,6.1512,6.1683,6.1985,6.2481,6.2905,6.3099,6.3389,6.3926,6.4485,6.4761,6.4943,6.5213,6.557,6.5692,6.5834,6.6009,6.6095,6.6182,6.6182,6.6148,6.6148,6.6148,6.6142,6.6089,6.6129,6.6129,6.6095,6.6009,6.5834,6.5658,6.5603,6.5514,6.5481,6.568,6.5995,6.6009,6.6089,6.6022,6.5901,6.6009,6.6095,3.6035,3.6035,3.6035,3.6035,3.6035,3.6035,3.6035,3.6035,3.6035,3.6035,3.6035,3.6035,3.6035,3.6035,3.6035,3.6035,3.6035,3.6035,3.6035,3.6035,3.6035,3.6035,3.6035,3.6035,3.6035,3.6035,3.6035,3.6035,3.6016,3.6268,3.6539,3.7079,3.7348,3.815,3.9078,3.9866,4.0495,4.1806,4.2822,4.395,4.5086,4.5331,4.5696,4.6059,4.6326,4.6326,4.6326,4.6326,4.6326,4.6622,4.7029,4.7657,4.8259,4.9141,4.9926,5.0587,5.1142,5.1793,5.2711,5.3592,5.446,5.5289,5.6164,5.702,5.7751,5.8335,5.8694,5.8991,5.9207,5.9422,5.9529,5.9955,6.0167,6.0586,6.0897,6.1206,6.141,6.1916,6.2315,6.2612,6.2808,6.3099,6.3548,6.402,6.43,6.461,6.4885,6.5156,6.5392,6.557,6.557,6.557,6.557,6.5592,6.558,6.568,6.5703,6.5802,6.5758,6.5692,6.557,6.5481,6.5425,6.5246,6.5099,6.5066,6.5033,6.5448,6.5713,6.5603,6.5525,6.5614,6.567,6.578,6.5746,3.6035,3.6035,3.6035,3.6035,3.6035,3.6035,3.6035,3.6035,3.6035,3.6035,3.6035,3.6035,3.6035,3.6035,3.6035,3.6035,3.6035,3.6035,3.6035,3.6035,3.6035,3.6035,3.6035,3.6035,3.6035,3.6035,3.6035,3.6035,3.6035,3.6016,3.6559,3.7079,3.7213,3.8017,3.8946,3.9844,4.1013,4.2189,4.3075,4.395,4.484,4.5331,4.5574,4.6059,4.6326,4.6326,4.6326,4.6376,4.6502,4.692,4.7554,4.8058,4.8636,4.9368,4.9977,5.0436,5.0867,5.1497,5.2245,5.3105,5.4036,5.511,5.5961,5.6878,5.7499,5.7974,5.8335,5.8694,5.8991,5.9207,5.9422,5.9636,5.9849,6.0061,6.0481,6.0721,6.1,6.141,6.1714,6.2016,6.2315,6.2481,6.271,6.3164,6.377,6.4053,6.4333,6.461,6.4669,6.4852,6.4852,6.4852,6.4852,6.4844,6.4794,6.4836,6.4918,6.5016,6.4918,6.4885,6.4852,6.4793,6.4761,6.4702,6.4551,6.461,6.4577,6.4728,6.4728,6.4793,6.4859,6.5074,6.5132,6.5156,6.5123,3.6035,3.6035,3.6035,3.6035,3.6035,3.6035,3.6035,3.6035,3.6035,3.6035,3.6035,3.6035,3.6035,3.6035,3.6035,3.6035,3.6035,3.6035,3.6035,3.6035,3.6035,3.6035,3.6035,3.6035,3.6035,3.6035,3.6035,3.6035,3.6035,3.6035,3.6423,3.6944,3.7079,3.8017,3.8946,4.0127,4.1399,4.2443,4.32,4.395,4.4717,4.5208,4.5574,4.5939,4.6205,4.6326,4.6351,4.6677,4.6853,4.723,4.7958,4.851,4.881,4.9543,4.995,5.0359,5.0614,5.112,5.1872,5.2738,5.3861,5.5082,5.5817,5.6337,5.7078,5.7528,5.7974,5.8445,5.8773,5.8991,5.9207,5.9422,5.9636,5.9743,5.9986,6.0302,6.0512,6.0897,6.1103,6.1308,6.1582,6.1885,6.2085,6.2284,6.2905,6.3484,6.377,6.4053,6.4114,6.4207,6.4207,6.4207,6.4207,6.424,6.4197,6.4203,6.4179,6.4179,6.4211,6.4146,6.4114,6.4207,6.4207,6.4146,6.3959,6.3959,6.3832,6.3832,6.3926,6.4333,6.4583,6.48,6.4767,6.461,6.4518,3.6035,3.6035,3.6035,3.6035,3.6035,3.6035,3.6035,3.6035,3.6035,3.6035,3.6035,3.6035,3.6035,3.6035,3.6035,3.6035,3.6035,3.6035,3.6035,3.6035,3.6035,3.6035,3.6035,3.6035,3.6035,3.6035,3.6035,3.6035,3.6035,3.6035,3.6423,3.6944,3.7213,3.7883,3.9078,4.0388,4.155,4.2316,4.3075,4.3678,4.457,4.5086,4.5453,4.5817,4.618,4.6476,4.6627,4.6928,4.733,4.7757,4.836,4.8785,4.9135,4.9361,4.9719,5.0104,5.0359,5.0715,5.1497,5.2615,5.3713,5.479,5.5407,5.6049,5.6652,5.7078,5.764,5.8085,5.8335,5.8664,5.8882,5.9099,5.9207,5.9422,5.9636,5.988,6.0092,6.0302,6.0512,6.0617,6.1,6.1277,6.1481,6.1714,6.2315,6.2905,6.3293,6.3484,6.3675,6.377,6.3643,6.3643,6.3643,6.3675,6.3675,6.3675,6.3707,6.3644,6.3644,6.358,6.3548,6.3516,6.342,6.3357,6.3196,6.3099,6.3099,6.3036,6.3548,6.4053,6.4085,6.4118,6.4118,6.3959,6.4053,3.6035,3.6035,3.6035,3.6035,3.6035,3.6035,3.6035,3.6035,3.6035,3.6035,3.6035,3.6035,3.6035,3.6035,3.6035,3.6035,3.6035,3.6035,3.6035,3.6035,3.6035,3.6035,3.6035,3.6035,3.6035,3.6035,3.6035,3.6035,3.6035,3.6035,3.6423,3.6944,3.7348,3.775,3.8814,4.0127,4.1164,4.1934,4.2799,4.3678,4.4323,4.4939,4.5453,4.582,4.6209,4.6652,4.7054,4.733,4.7757,4.846,4.8686,4.9138,4.949,4.9565,4.9719,4.9976,5.0129,5.0512,5.112,5.2615,5.3592,5.4286,5.488,5.5556,5.6077,5.6652,5.7303,5.764,5.7863,5.8335,5.8555,5.8803,5.8882,5.9099,5.9345,5.9529,5.9667,5.988,5.9986,6.0197,6.0272,6.0586,6.0897,6.1308,6.1815,6.2315,6.271,6.2905,6.3099,6.3099,6.2971,6.2971,6.2971,6.3002,6.2905,6.3099,6.3131,6.3098,6.3001,6.2905,6.2776,6.2678,6.258,6.2481,6.2481,6.2513,6.2481,6.2383,6.2776,6.3164,6.3293,6.3325,6.3325,6.3293,6.3389,3.6035,3.6035,3.6035,3.6035,3.6035,3.6035,3.6035,3.6035,3.6035,3.6035,3.6035,3.6035,3.6035,3.6035,3.6035,3.6035,3.6035,3.6035,3.6035,3.6035,3.6035,3.6035,3.6035,3.6035,3.6035,3.6035,3.6035,3.6035,3.6035,3.6035,3.6423,3.6944,3.7616,3.8283,3.9078,4.0257,4.1164,4.1806,4.2696,4.3576,4.4051,4.484,4.5503,4.6019,4.6559,4.7104,4.7631,4.7883,4.8335,4.8888,4.9038,4.9364,4.9565,4.959,4.959,4.9847,5.0001,5.0359,5.1146,5.2173,5.2941,5.3685,5.4414,5.5122,5.5673,5.6077,5.6652,5.7191,5.7416,5.7863,5.8195,5.8555,5.8773,5.8912,5.9021,5.9207,5.9315,5.9529,5.9743,5.9773,5.9955,6.0092,6.0407,6.0617,6.1103,6.141,6.1714,6.1985,6.2085,6.2085,6.2085,6.2085,6.2085,6.2116,6.2116,6.2216,6.2315,6.2247,6.2148,6.2016,6.1985,6.1885,6.1784,6.1784,6.1784,6.1885,6.1784,6.1784,6.1885,6.2085,6.2315,6.2513,6.271,6.271,6.2678,3.6152,3.6035,3.6035,3.6035,3.6035,3.6035,3.6035,3.6035,3.6035,3.6035,3.6035,3.6035,3.6035,3.6035,3.6035,3.6035,3.6035,3.6035,3.6035,3.6035,3.6035,3.6035,3.6035,3.6035,3.6035,3.6035,3.6035,3.6035,3.6035,3.6035,3.6423,3.7079,3.7904,3.8437,3.921,4.0127,4.0906,4.1678,4.257,4.3451,4.3998,4.4763,4.5773,4.6291,4.691,4.7657,4.8134,4.8535,4.8862,4.9088,4.9339,4.959,4.959,4.959,4.959,4.9719,4.9976,5.0359,5.0893,5.1549,5.2297,5.2983,5.3735,5.4477,5.5116,5.5613,5.6077,5.6509,5.6964,5.7416,5.7751,5.8225,5.8445,5.8474,5.8664,5.8773,5.8991,5.9207,5.9315,5.9452,5.9422,5.9667,5.9773,5.9986,6.0302,6.0481,6.069,6.1,6.1175,6.1277,6.1277,6.1308,6.1308,6.141,6.141,6.141,6.1379,6.1277,6.1277,6.1308,6.1103,6.1103,6.1103,6.1103,6.1,6.1,6.1,6.1,6.1103,6.1206,6.1206,6.1582,6.1985,6.2085,6.2085,3.6426,3.6055,3.6035,3.6035,3.6035,3.6035,3.6035,3.6035,3.6035,3.6035,3.6035,3.6035,3.6035,3.6035,3.6035,3.6035,3.6035,3.6035,3.6035,3.6035,3.6035,3.6035,3.6035,3.6035,3.6035,3.6035,3.6035,3.6035,3.6035,3.6287,3.6559,3.7079,3.777,3.857,3.921,4.0083,4.0713,4.1595,4.2708,4.3341,4.3938,4.515,4.6066,4.6736,4.7408,4.8109,4.8636,4.8912,4.9163,4.9364,4.959,4.959,4.959,4.959,4.959,4.9719,4.9847,5.0232,5.0614,5.1246,5.1747,5.2342,5.2956,5.3713,5.446,5.5054,5.5496,5.5845,5.6308,5.6737,5.7303,5.7528,5.7892,5.8114,5.8225,5.8445,5.8694,5.8803,5.8882,5.8882,5.8991,5.9099,5.9315,5.9422,5.9452,5.9529,5.9743,5.9925,6.0241,6.069,6.069,6.0794,6.0794,6.0794,6.0794,6.0794,6.0794,6.0794,6.069,6.0586,6.0377,6.0377,6.0481,6.0512,6.0197,6.0197,6.0407,6.0407,6.0197,6.0302,6.0512,6.069,6.1175,6.1277,6.141,3.6601,3.6445,3.6152,3.6035,3.6035,3.6035,3.6035,3.6035,3.6035,3.6035,3.6035,3.6035,3.6035,3.6035,3.6035,3.6035,3.6035,3.6035,3.6035,3.6035,3.6035,3.6035,3.6035,3.6035,3.6035,3.6035,3.6035,3.6035,3.6152,3.6423,3.6809,3.7213,3.7965,3.8611,3.9401,4.019,4.0912,4.1669,4.3113,4.3716,4.4389,4.5784,4.6504,4.7379,4.7981,4.8812,4.9138,4.9289,4.9464,4.954,4.959,4.959,4.959,4.959,4.959,4.959,4.9847,5.0104,5.0334,5.0661,5.1138,5.157,5.2094,5.2834,5.3592,5.4314,5.479,5.5261,5.5729,5.6308,5.6737,5.7078,5.7332,5.7528,5.7751,5.8003,5.8114,5.8335,5.8335,5.8445,5.8525,5.8525,5.8743,5.8664,5.8664,5.8664,5.8773,5.8961,5.9177,5.9743,5.9955,6.0061,6.0061,6.0061,6.0092,6.0197,6.0197,6.0197,5.9986,5.9986,5.9986,5.988,5.9986,5.988,5.9667,5.9773,6.0092,5.988,5.9667,5.988,6.0092,6.0197,6.0407,6.0586,6.069,3.6816,3.6621,3.6211,3.6035,3.6035,3.6035,3.6035,3.6035,3.6035,3.6035,3.6035,3.6035,3.6035,3.6035,3.6035,3.6035,3.6035,3.6035,3.6035,3.6035,3.6035,3.6035,3.6035,3.6035,3.6035,3.6035,3.6035,3.6035,3.6171,3.6714,3.7119,3.7516,3.8036,3.8967,3.9827,4.071,4.1507,4.2384,4.3341,4.4103,4.511,4.619,4.7268,4.7844,4.8657,4.9289,4.9515,4.959,4.959,4.959,4.959,4.959,4.959,4.959,4.959,4.959,4.9719,4.9976,5.0104,5.0283,5.0638,5.1042,5.1294,5.1917,5.2711,5.347,5.4047,5.4524,5.5144,5.5729,5.6193,5.6537,5.6737,5.6964,5.7191,5.7528,5.764,5.7751,5.7863,5.7974,5.7974,5.7974,5.7974,5.7863,5.7863,5.7863,5.7974,5.7974,5.8305,5.8743,5.8961,5.9069,5.9207,5.9207,5.9315,5.9452,5.9315,5.9315,5.9099,5.9099,5.9315,5.9315,5.9099,5.9207,5.9207,5.9315,5.9315,5.9207,5.9099,5.9345,5.9452,5.9315,5.9529,5.9986,6.0092,3.7109,3.6699,3.6211,3.6035,3.6035,3.6035,3.6035,3.6035,3.6035,3.6035,3.6035,3.6035,3.6035,3.6035,3.6035,3.6035,3.6035,3.6035,3.6035,3.6035,3.6035,3.6035,3.6035,3.6035,3.6035,3.6035,3.6035,3.6035,3.6171,3.6658,3.7305,3.7879,3.8487,3.9291,4.038,4.125,4.1946,4.2905,4.4055,4.4982,4.5527,4.6698,4.7942,4.8041,4.8853,4.959,4.959,4.959,4.959,4.959,4.959,4.959,4.959,4.959,4.959,4.959,4.959,4.9719,4.9873,5.0001,5.0257,5.0588,5.0865,5.1294,5.197,5.2738,5.3349,5.3954,5.4552,5.5026,5.5496,5.5817,5.6049,5.6279,5.6537,5.6851,5.7078,5.7191,5.7303,5.7416,5.7416,5.7303,5.7303,5.7191,5.7191,5.7191,5.7191,5.7191,5.7416,5.7751,5.7974,5.8085,5.8305,5.8415,5.8445,5.8555,5.8415,5.8305,5.8305,5.8415,5.8773,5.8555,5.8195,5.8445,5.8773,5.8555,5.8415,5.8555,5.8555,5.8555,5.8555,5.8305,5.8664,5.9099,5.9345,3.7519,3.707,3.6328,3.6035,3.6035,3.6035,3.6035,3.6035,3.6035,3.6035,3.6035,3.6035,3.6035,3.6035,3.6035,3.6035,3.6035,3.6035,3.6035,3.6035,3.6035,3.6035,3.6035,3.6035,3.6035,3.6035,3.6035,3.6055,3.6269,3.6739,3.7368,3.7803,3.8595,3.9633,4.0784,4.1525,4.236,4.3354,4.4635,4.5435,4.5715,4.7123,4.8403,4.8664,4.9227,4.959,4.959,4.959,4.959,4.959,4.959,4.959,4.959,4.959,4.959,4.959,4.959,4.9719,4.9744,4.9769,4.9898,5.018,5.0385,5.0766,5.1272,5.1996,5.2738,5.3349,5.3954,5.4314,5.4671,5.5144,5.5468,5.5729,5.5845,5.6193,5.6423,5.6537,5.6623,5.6623,5.6766,5.6652,5.6623,5.6623,5.6623,5.6623,5.6623,5.6623,5.6509,5.6737,5.6964,5.7191,5.7528,5.764,5.764,5.7781,5.7751,5.7863,5.7974,5.8085,5.8085,5.7974,5.7751,5.8085,5.8195,5.7974,5.7863,5.8195,5.8195,5.7974,5.7863,5.7751,5.7863,5.8335,5.8445,3.7793,3.748,3.666,3.6191,3.6035,3.6035,3.6035,3.6035,3.6035,3.6035,3.6035,3.6035,3.6035,3.6035,3.6035,3.6035,3.6035,3.6035,3.6035,3.6035,3.6035,3.6035,3.6035,3.6035,3.6035,3.6035,3.6035,3.6094,3.6289,3.6937,3.743,3.8246,3.9027,3.9909,4.105,4.1903,4.2704,4.3847,4.5073,4.568,4.5959,4.7329,4.8445,4.8706,4.9097,4.9332,4.959,4.959,4.959,4.959,4.959,4.959,4.959,4.959,4.959,4.959,4.959,4.959,4.959,4.959,4.9744,4.9898,5.0128,5.0487,5.0639,5.1372,5.1996,5.2615,5.3227,5.3713,5.4074,5.4433,5.479,5.5026,5.5172,5.5407,5.5613,5.5729,5.5729,5.5729,5.5729,5.5729,5.5613,5.5496,5.5496,5.5496,5.5613,5.5613,5.5613,5.5701,5.5933,5.6164,5.6394,5.6737,5.6964,5.7078,5.7078,5.7303,5.7416,5.7303,5.7191,5.7303,5.7416,5.7416,5.7416,5.7303,5.7303,5.7499,5.7416,5.7191,5.7191,5.7303,5.7303,5.7303,5.7303,3.7988,3.7812,3.7012,3.6465,3.6113,3.6035,3.6035,3.6035,3.6035,3.6035,3.6035,3.6035,3.6035,3.6035,3.6035,3.6035,3.6035,3.6035,3.6035,3.6035,3.6035,3.6035,3.6035,3.6035,3.6035,3.6074,3.6133,3.6348,3.6601,3.7153,3.7867,3.897,3.9617,4.0327,4.1608,4.2419,4.2914,4.3885,4.4778,4.5595,4.6382,4.734,4.805,4.8445,4.8967,4.9202,4.9461,4.959,4.959,4.959,4.959,4.959,4.959,4.959,4.959,4.959,4.959,4.959,4.959,4.959,4.959,4.964,4.987,5.0102,5.0257,5.0614,5.1372,5.1872,5.2492,5.3105,5.347,5.3713,5.4074,5.4341,5.446,5.458,5.4699,5.479,5.479,5.479,5.479,5.4671,5.458,5.446,5.446,5.446,5.4488,5.4488,5.446,5.4671,5.479,5.4998,5.5233,5.5584,5.6049,5.6279,5.6279,5.6394,5.6509,5.6394,5.6279,5.6394,5.6509,5.6394,5.6394,5.6394,5.6366,5.6451,5.6366,5.6394,5.6394,5.6509,5.6394,5.6394,5.6279,3.8242,3.7851,3.7031,3.6621,3.6484,3.6172,3.6035,3.6035,3.6035,3.6035,3.6035,3.6035,3.6035,3.6035,3.6035,3.6035,3.6035,3.6035,3.6035,3.6035,3.6035,3.6035,3.6035,3.6035,3.6035,3.6133,3.6289,3.6582,3.6875,3.7485,3.8141,3.9111,3.9473,4.033,4.1389,4.2018,4.2581,4.3558,4.425,4.5051,4.5731,4.6674,4.763,4.8158,4.8682,4.9072,4.9202,4.9461,4.959,4.959,4.959,4.959,4.959,4.959,4.959,4.959,4.959,4.959,4.959,4.959,4.959,4.959,4.9794,4.9898,4.9976,5.0129,5.0741,5.0994,5.1596,5.2342,5.2711,5.2861,5.3105,5.347,5.3592,5.3713,5.3833,5.3954,5.3954,5.3954,5.3954,5.3833,5.3833,5.3833,5.3833,5.3833,5.3861,5.3861,5.3833,5.3833,5.374,5.3954,5.4166,5.4552,5.5144,5.5233,5.5351,5.5496,5.5613,5.5496,5.5496,5.5613,5.5613,5.5468,5.5468,5.5613,5.5556,5.55,5.55,5.5528,5.5584,5.5729,5.5613,5.5496,5.5379]},{"header":{"parameterUnit":"m.s-1","parameterCategory":1,"la1":31.0,"la2":29.5877,"lo1":-88.7671,"lo2":-86.6584,"dy":0.0162,"dx":0.0185,"nx":115,"ny":88,"refTime":"2024-08-01T18:00:00:Z","depth":0,"parameterNumber":3,"parameterNumberName":"V-component_of_WINDS"},"data":[0.0,0.0,0.0,0.0,0.0,0.0,0.0,0.0,0.0,0.0,0.0,0.0,0.0,0.0,0.0,0.0,0.0,0.0,0.0,0.0,0.0,0.0,0.0,0.0,0.0,0.0,0.0,0.0,0.0,0.0,0.0,0.0,0.0,0.0,0.0,0.0,0.0,0.0,0.0,0.0,0.0,0.0,0.0,0.0,0.0,0.0,0.0,0.0,0.0,0.0,0.0,0.0,0.0,0.0,0.0,0.0,0.0,0.0,0.0,0.0,0.0,0.0,0.0,0.0,0.0,0.0,0.0,0.0,0.0,0.0,0.0,0.0,0.0,0.0,0.0,0.0,0.0,0.0,0.0,0.0,0.0,0.0,0.0,0.0,0.0,0.0,0.0,0.0,0.0,0.0,0.0,0.0,0.0,0.0,0.0,0.0,0.0,0.0,0.0,0.0,0.0,0.0,0.0,0.0,0.0,0.0,0.0,0.0,0.0,0.0,0.0,0.0,0.0,0.0,0.0,0.0,0.0,0.0,0.0,0.0,0.0,0.0,0.0,0.0,0.0,0.0,0.0,0.0,0.0,0.0,0.0,0.0,0.0,0.0,0.0,0.0,0.0,0.0,0.0,0.0,0.0,0.0,0.0,0.0,0.0,0.0,0.0,0.0,0.0,0.0,0.0,0.0,0.0,0.0,0.0,0.0,0.0,0.0,0.0,0.0,0.0,0.0,0.0,0.0,0.0,0.0,0.0,0.0,0.0,0.0,0.0,0.0,0.0,0.0,0.0,0.0,0.0,0.0,0.0,0.0,0.0,0.0,0.0,0.0,0.0,0.0,0.0,0.0,0.0,0.0,0.0,0.0,0.0,0.0,0.0,0.0,0.0,0.0,0.0,0.0,0.0,0.0,0.0,0.0,0.0,0.0,0.0,0.0,0.0,0.0,0.0,0.0,0.0,0.0,0.0,0.0,0.0,0.0,0.0,0.0,0.0,0.0,0.0,0.0,0.0,0.0,0.0,0.0,0.0,0.0,0.0,0.0,0.0,0.0,0.0,0.0,0.0,0.0,0.0,0.0,0.0,0.0,0.0,0.0,0.0,0.0,0.0,0.0,0.0,0.0,0.0,0.0,0.0,0.0,0.0,0.0,0.0,0.0,0.0,0.0,0.0,0.0,0.0,0.0,0.0,0.0,0.0,0.0,0.0,0.0,0.0,0.0,0.0,0.0,0.0,0.0,0.0,0.0,0.0,0.0,0.0,0.0,0.0,0.0,0.0,0.0,0.0,0.0,0.0,0.0,0.0,0.0,0.0,0.0,0.0,0.0,0.0,0.0,0.0,0.0,0.0,0.0,0.0,0.0,0.0,0.0,0.0,0.0,0.0,0.0,0.0,0.0,0.0,0.0,0.0,0.0,0.0,0.0,0.0,0.0,0.0,0.0,0.0,0.0,0.0,0.0,0.0,0.0,0.0,0.0,0.0,0.0,0.0,0.0,0.0,0.0,0.0,0.0,0.0,0.0,0.0,0.0,0.0,0.0,0.0,0.0,0.0,0.0,0.0,0.0,0.0,0.0,0.0,0.0,0.0,0.0,0.0,0.0,0.0,0.0,0.0,0.0,0.0,0.0,0.0,0.0,0.0,0.0,0.0,0.0,0.0,0.0,0.0,0.0,0.0,0.0,0.0,0.0,0.0,0.0,0.0,0.0,0.0,0.0,0.0,0.0,0.0,0.0,0.0,0.0,0.0,0.0,0.0,0.0,0.0,0.0,0.0,0.0,0.0,0.0,0.0,0.0,0.0,0.0,0.0,0.0,0.0,0.0,0.0,0.0,0.0,0.0,0.0,0.0,0.0,0.0,0.0,0.0,0.0,0.0,0.0,0.0,0.0,0.0,0.0,0.0,0.0,0.0,0.0,0.0,0.0,0.0,0.0,0.0,0.0,0.0,0.0,0.0,0.0,0.0,0.0,0.0,0.0,0.0,0.0,0.0,0.0,0.0,0.0,0.0,0.0,0.0,0.0,0.0,0.0,0.0,0.0,0.0,0.0,0.0,0.0,0.0,0.0,0.0,0.0,0.0,0.0,0.0,0.0,0.0,0.0,0.0,0.0,0.0,0.0,0.0,0.0,0.0,0.0,0.0,0.0,0.0,0.0,0.0,0.0,0.0,0.0,0.0,0.0,0.0,0.0,0.0,0.0,0.0,0.0,0.0,0.0,0.0,0.0,0.0,0.0,0.0,0.0,0.0,0.0,0.0,0.0,0.0,0.0,0.0,0.0,0.0,0.0,0.0,0.0,0.0,0.0,0.0,0.0,0.0,0.0,0.0,0.0,0.0,0.0,0.0,0.0,0.0,0.0,0.0,0.0,0.0,0.0,0.0,0.0,0.0,0.0,0.0,0.0,0.0,0.0,0.0,0.0,0.0,0.0,0.0,0.0,0.0,0.0,0.0,0.0,0.0,0.0,0.0,0.0,0.0,0.0,0.0,0.0,0.0,0.0,0.0,0.0,0.0,0.0,0.0,0.0,0.0,0.0,0.0,0.0,0.0,0.0,0.0,0.0,0.0,0.0,0.0,0.0,0.0,0.0,0.0,0.0,0.0,0.0,0.0,0.0,0.0,0.0,0.0,0.0,0.0,0.0,0.0,0.0,0.0,0.0,0.0,0.0,0.0,0.0,0.0,0.0,0.0,0.0,0.0,0.0,0.0,0.0,0.0,0.0,0.0,0.0,0.0,0.0,0.0,0.0,0.0,0.0,0.0,0.0,0.0,0.0,0.0,0.0,0.0,0.0,0.0,0.0,0.0,0.0,0.0,0.0,0.0,0.0,0.0,0.0,0.0,0.0,0.0,0.0,0.0,0.0,0.0,0.0,0.0,0.0,0.0,0.0,0.0,0.0,0.0,0.0,0.0,0.0,0.0,0.0,0.0,0.0,0.0,0.0,0.0,0.0,0.0,0.0,0.0,0.0,0.0,0.0,0.0,0.0,0.0,0.0,0.0,0.0,0.0,0.0,0.0,0.0,0.0,0.0,0.0,0.0,0.0,0.0,0.0,0.0,0.0,0.0,0.0,0.0,0.0,0.0,0.0,0.0,0.0,0.0,0.0,0.0,0.0,0.0,0.0,0.0,0.0,0.0,0.0,0.0,0.0,0.0,0.0,0.0,0.0,0.0,0.0,0.0,0.0,0.0,0.0,0.0,0.0,0.0,0.0,0.0,0.0,0.0,0.0,0.0,0.0,0.0,0.0,0.0,0.0,0.0,0.0,0.0,0.0,0.0,0.0,0.0,0.0,0.0,0.0,0.0,0.0,0.0,0.0,0.0,0.0,0.0,0.0,0.0,0.0,0.0,0.0,0.0,0.0,0.0,0.0,0.0,0.0,0.0,0.0,0.0,0.0,0.0,0.0,0.0,0.0,0.0,0.0,0.0,0.0,0.0,0.0,0.0,0.0,0.0,0.0,0.0,0.0,0.0,0.0,0.0,0.0,0.0,0.0,0.0,0.0,0.0,0.0,0.0,0.0,0.0,0.0,0.0,0.0,0.0,0.0,0.0,0.0,0.0,0.0,0.0,0.0,0.0,0.0,0.0,0.0,0.0,0.0,0.0,0.0,0.0,0.0,0.0,0.0,0.0,0.0,0.0,0.0,0.0,0.0,0.0,0.0,0.0,0.0,0.0,0.0,0.0,0.0,0.0,0.0,0.0,0.0,0.0,0.0,0.0,0.0,0.0,0.0,0.0,0.0,0.0,0.0,0.0,0.0,0.0,0.0,0.0,0.0,0.0,0.0,0.0,0.0,0.0,0.0,0.0,0.0,0.0,0.0,0.0,0.0,0.0,0.0,0.0,0.0,0.0,0.0,0.0,0.0,0.0,0.0,0.0,0.0,0.0,0.0,0.0,0.0,0.0,0.0,0.0,0.0,0.0,0.0,0.0,0.0,0.0,0.0,0.0,0.0,0.0,0.0,0.0,0.0,0.0,0.0,0.0,0.0,0.0,0.0,0.0,0.0,0.0,0.0,0.0,0.0,0.0,0.0,0.0,0.0,0.0,0.0,0.0,0.0,0.0,0.0,0.0,0.0,0.0,0.0,0.0,0.0,0.0,0.0,0.0,0.0,0.0,0.0,0.0,0.0,0.0,0.0,0.0,0.0,0.0,0.0,0.0,0.0,0.0,0.0,0.0,0.0,0.0,0.0,0.0,0.0,0.0,0.0,0.0,0.0,0.0,0.0,0.0,0.0,0.0,0.0,0.0,0.0,0.0,0.0,0.0,0.0,0.0,0.0,0.0,0.0,0.602,0.0,0.0,0.0,0.0,0.0,0.0,0.0,0.0,0.0,0.0,0.0,0.0,0.0,0.0,0.0,0.0,0.0,0.0,0.0,0.0,0.0,0.0,0.0,0.0,0.0,0.0,0.0,0.0,0.0,0.0,0.0,0.0,0.0,0.0,0.0,0.0,0.0,0.0,0.0,0.0,0.0,0.0,0.0,0.0,0.0,0.0,0.0,0.0,0.0,0.0,0.0,0.0,0.0,0.0,0.0,0.0,0.0,0.0,0.0,0.0,0.0,0.0,0.0,0.0,0.0,0.0,0.0,0.0,0.0,0.0,0.0,0.0,0.0,0.0,0.0,0.0,0.0,0.0,0.0,0.0,0.0,0.0,0.0,0.0,0.0,0.0,0.0,0.0,0.0,0.0,0.0,0.0,0.0,0.0,0.0,0.0,0.0,0.0,0.0,0.0,0.0,0.0,0.0,0.0,0.0,0.0,0.0,0.0,0.0,0.0,0.4635,0.4877,0.4921,0.4913,0.5117,0.0,0.0,0.0,0.0,0.0,0.0,0.0,0.0,0.0,0.0,0.0,0.0,0.0,0.0,0.0,0.0,0.0,0.0,0.0,0.0,0.0,0.0,0.0,0.0,0.0,0.0,0.0,0.0,0.0,0.0,0.0,0.0,0.0,0.0,0.0,0.0,0.0,0.0,0.0,0.0,0.0,0.0,0.0,0.0,0.0,0.0,0.0,0.0,0.0,0.0,0.0,0.0,0.0,0.0,0.0,0.0,0.0,0.0,0.0,0.0,0.0,0.0,0.0,0.0,0.0,0.0,0.0,0.0,0.0,0.0,0.0,0.0,0.0,0.0,0.0,0.0,0.0,0.0,0.0,0.0,0.0,0.0,0.0,0.0,0.0,0.0,0.0,0.0,0.0,0.0,0.0,0.0,0.0,0.0,0.0,0.0,0.0,0.0,0.0,0.0,0.0,0.0,0.0,0.0,0.0,0.0,0.0,0.0,0.0,0.0,0.0,0.0,0.3665,0.3842,0.4066,0.0,0.0,0.0,0.0,0.0,0.0,0.0,0.0,0.0,0.0,0.0,0.0,0.0,0.0,0.0,0.0,0.0,0.0,0.0,0.0,0.0,0.0,0.0,0.0,0.0,0.0,0.0,0.0,0.0,0.0,0.0,0.0,0.0,0.0,0.0,0.0,0.0,0.0,0.0,0.0,0.0,0.0,0.0,0.0,0.0,0.0,0.0,0.0,0.0,0.0,0.0,0.0,0.0,0.0,0.0,0.0,0.0,0.0,0.0,0.0,0.0,0.0,0.0,0.0,0.0,0.0,0.0,0.0,0.0,0.0,0.0,0.0,0.0,0.0,0.0,0.0,0.0,0.0,0.0,0.0,0.0,0.0,0.0,0.0,0.0,0.0,0.0,0.0,0.0,0.0,0.0,0.0,0.0,0.0,0.0,0.0,0.0,0.0,0.0,0.0,0.0,0.0,0.0,0.0,0.0,0.0,0.0,0.0,0.0,0.0,0.1821,0.2638,0.2589,0.0,0.2974,0.0,0.0,0.0,0.0,0.0,0.0,0.0,0.0,0.0,0.0,0.0,0.0,0.0,0.0,0.0,0.0,0.0,0.0,0.0,0.0,0.0,0.0,0.0,0.0,0.0,0.0,0.0,0.0,0.0,0.0,0.0,0.0,0.0,0.0,0.0,0.0,0.0,0.0,0.0,0.0,0.0,0.0,0.0,0.0,0.0,0.0,0.0,0.0,0.0,0.0,0.0,0.0,0.0,0.0,0.0,0.0,0.0,0.0,0.0,0.0,0.0,0.0,0.0,0.0,0.0,0.0,0.0,0.0,0.0,0.0,0.0,0.0,0.0,0.0,0.0,0.0,0.0,0.0,0.0,0.0,0.0,0.0,0.0,0.0,0.0,0.0,0.0,0.0,0.0,0.0,0.0,0.0,0.0,0.0,0.0,0.0,0.0,0.0,0.0,0.0,0.0,0.0,0.0,0.0,0.0,0.0,0.0,0.0,0.0,0.0,0.0097,0.0498,0.0967,0.1567,0.0,0.0,0.0,0.0,0.0,0.0,0.0,0.0,0.0,0.0,0.0,0.0,0.0,0.0,0.0,0.0,0.0,0.0,0.0,0.0,0.0,0.0,0.0,0.0,0.0,0.0,0.0,0.0,0.0,0.0,0.0,0.0,0.0,0.0,0.0,0.0,0.0,0.0,0.0,0.0,0.0,0.0,0.0,0.0,0.0,0.0,0.0,0.0,0.0,0.0,0.0,0.0,0.0,0.0,0.0,0.0,0.0,0.0,0.0,0.0,0.0,0.0,0.0,0.0,0.0,0.0,0.0,0.0,0.0,0.0,0.0,0.0,0.0,0.0,0.0,0.0,0.0,0.0,0.0,0.0,0.0,0.0,0.0,0.0,0.0,0.0,0.0,0.0,0.0,0.0,0.0,0.0,0.0,0.0,0.0,0.0,0.0,0.0,0.0,0.0,0.0,0.0,0.0,0.0,0.0,0.0,0.0,0.0,0.0,0.0,-0.2471,0.0,-0.1494,-0.0774,-0.0092,0.0696,0.0,0.0,0.0,0.0,0.0,0.0,0.0,0.0,0.0,0.0,0.0,0.0,0.0,0.0,0.0,0.0,0.0,0.0,0.0,0.0,0.0,0.0,0.0,0.0,0.0,0.0,0.0,0.0,0.0,0.0,0.0,0.0,0.0,0.0,0.0,0.0,0.0,0.0,0.0,0.0,0.0,0.0,0.0,0.0,0.0,0.0,0.0,0.0,0.0,0.0,0.0,0.0,0.0,0.0,0.0,0.0,0.0,0.0,0.0,0.0,0.0,0.0,0.0,0.0,0.0,0.0,0.0,0.0,0.0,0.0,0.0,0.0,0.0,0.0,0.0,0.0,0.0,0.0,0.0,0.0,0.0,0.0,0.0,0.0,0.0,0.0,0.0,0.0,0.0,0.0,0.0,0.0,0.0,0.0,0.0,0.0,0.0,0.0,0.0,0.0,0.0,0.0,0.0,0.0,0.0,0.0,0.0,0.0,0.0,-0.4277,-0.3745,-0.3136,-0.2695,-0.2315,0.0,0.0,0.0,0.0,0.0,0.0,0.0,0.0,0.0,0.0,0.0,0.0,0.0,0.0,0.0,0.0,0.0,0.0,0.0,0.0,0.0,0.0,0.0,0.0,0.0,0.0,0.0,0.0,0.0,0.0,0.0,0.0,0.0,0.0,0.0,0.0,0.0,0.0,0.0,0.0,0.0,0.0,0.0,0.0,0.0,0.0,0.0,0.0,0.0,0.0,0.0,0.0,0.0,0.0,0.0,0.0,0.0,0.0,0.0,0.0,0.0,0.0,0.0,0.0,0.0,0.0,0.0,0.0,0.0,0.0,0.0,0.0,0.0,0.0,0.0,0.0,0.0,0.0,0.0,0.0,0.0,0.0,0.0,0.0,0.0,0.0,0.0,0.0,0.0,0.0,0.0,0.0,0.0,0.0,0.0,0.0,0.0,0.0,0.0,0.0,0.0,0.0,0.0,0.0,0.0,0.0,0.0,0.0,0.0,-0.6543,-0.593,-0.5241,-0.4476,-0.406,-0.3462,0.0,0.0,0.0,0.0,0.0,0.0,0.0,0.0,0.0,0.0,0.0,0.0,0.0,0.0,0.0,0.0,0.0,0.0,0.0,0.0,0.0,0.0,0.0,0.0,0.0,0.0,0.0,0.0,0.0,0.0,0.0,0.0,0.0,0.0,0.0,0.0,0.0,0.0,0.0,0.0,0.0,0.0,0.0,0.0,0.0,0.0,0.0,0.0,0.0,0.0,0.0,0.0,0.0,0.0,0.0,0.0,0.0,0.0,0.0,0.0,0.0,0.0,0.0,0.0,0.0,0.0,0.0,0.0,0.0,0.0,0.0,0.0,0.0,0.0,0.0,0.0,0.0,0.0,0.0,0.0,0.0,0.0,0.0,0.0,0.0,0.0,0.0,0.0,0.0,0.0,0.0,0.0,0.0,0.0,0.0,0.0,0.0,0.0,0.0,0.0,0.0,0.0,0.0,0.0,0.0,0.0,0.0,0.0,0.0,-0.8196,0.0,-0.6894,0.0,-0.5611,-0.4862,0.0,0.0,0.0,0.0,0.0,0.0,0.0,0.0,0.0,0.0,0.0,0.0,0.0,0.0,0.0,0.0,0.0,0.0,0.0,0.0,0.0,0.0,0.0,0.0,0.0,0.0,0.0,0.0,0.0,0.0,0.0,0.0,0.0,0.0,0.0,0.0,0.0,0.0,0.0,0.0,0.0,0.0,0.0,0.0,0.0,0.0,0.0,0.0,0.0,0.0,0.0,0.0,0.0,0.0,0.0,0.0,0.0,0.0,0.0,0.0,0.0,0.0,0.0,0.0,0.0,0.0,0.0,0.0,0.0,0.0,0.0,0.0,0.0,0.0,0.0,0.0,0.0,0.0,0.0,0.0,0.0,0.0,0.0,0.0,0.0,0.0,0.0,0.0,0.0,0.0,0.0,0.0,0.0,0.0,0.0,0.0,0.0,0.0,0.0,0.0,0.0,0.0,0.0,0.0,0.0,0.0,0.0,0.0,-0.9917,-0.969,-0.9291,-0.867,-0.7948,-0.7296,-0.6457,0.0,0.0,0.0,0.0,0.0,0.0,0.0,0.0,0.0,0.0,0.0,0.0,0.0,0.0,0.0,0.0,0.0,0.0,0.0,0.0,0.0,0.0,0.0,0.0,0.0,0.0,0.0,0.0,0.0,0.0,0.0,0.0,0.0,0.0,0.0,0.0,0.0,0.0,0.0,0.0,0.0,0.0,0.0,0.0,0.0,0.0,0.0,0.0,0.0,0.0,0.0,0.0,0.0,0.0,0.0,0.0,0.0,0.0,0.0,0.0,0.0,0.0,0.0,0.0,0.0,0.0,0.0,0.0,0.0,0.0,0.0,0.0,0.0,0.0,0.0,0.0,0.0,0.0,0.0,0.0,0.0,0.0,0.0,0.0,0.0,0.0,0.0,0.0,0.0,0.0,0.0,0.0,0.0,0.0,0.0,0.0,0.0,0.0,0.0,0.0,0.0,0.0,0.0,0.0,0.0,0.0,0.0,0.0,0.0,-1.0988,-1.0595,-1.0174,-0.9538,-0.8765,-0.7916,0.0,0.0,0.0,0.0,0.0,0.0,0.0,0.0,0.0,0.0,0.0,0.0,0.0,0.0,0.0,0.0,0.0,0.0,0.0,0.0,0.0,0.0,0.0,0.0,0.0,0.0,0.0,0.0,0.0,0.0,0.0,0.0,0.0,0.0,0.0,0.0,0.0,0.0,0.0,0.0,0.0,0.0,0.0,0.0,0.0,0.0,0.0,0.0,0.0,0.0,0.0,0.0,0.0,0.0,0.0,0.0,0.0,0.0,0.0,0.0,0.0,0.0,0.0,0.0,0.0,0.0,0.0,0.0,0.0,0.0,0.0,0.0,0.0,0.0,0.0,0.0,0.0,0.0,0.0,0.0,0.0,0.0,0.0,0.0,0.0,0.0,0.0,0.0,0.0,0.0,0.0,0.0,0.0,0.0,0.0,0.0,0.0,0.0,0.0,0.0,0.0,0.0,0.0,0.0,0.0,0.0,0.0,0.0,0.0,-1.4163,-1.2904,-1.2039,-1.1494,-1.0578,-0.9438,-0.8193,0.0,0.0,0.0,0.0,0.0,0.0,0.0,0.0,0.0,0.0,0.0,0.0,0.0,0.0,0.0,0.0,0.0,0.0,0.0,0.0,0.0,0.0,0.0,0.0,0.0,0.0,0.0,0.0,0.0,0.0,0.0,0.0,0.0,0.0,0.0,0.0,0.0,0.0,0.0,0.0,0.0,0.0,0.0,0.0,0.0,0.0,0.0,0.0,0.0,0.0,0.0,0.0,0.0,0.0,0.0,0.0,0.0,0.0,0.0,0.0,0.0,0.0,0.0,0.0,0.0,0.0,0.0,0.0,0.0,0.0,0.0,0.0,0.0,0.0,0.0,0.0,0.0,0.0,0.0,0.0,0.0,0.0,0.0,0.0,0.0,0.0,0.0,0.0,0.0,0.0,0.0,0.0,0.0,0.0,0.0,0.0,0.0,0.0,0.0,0.0,0.0,0.0,0.0,0.0,0.0,0.0,0.0,0.0,-1.8693,-1.6016,-1.431,-1.3619,-1.2559,-1.1129,0.0,0.0,0.0,0.0,0.0,0.0,0.0,0.0,0.0,0.0,0.0,0.0,0.0,0.0,0.0,0.0,0.0,0.0,0.0,0.0,0.0,0.0,0.0,0.0,0.0,0.0,0.0,0.0,0.0,0.0,0.0,0.0,0.0,0.0,0.0,0.0,0.0,0.0,0.0,0.0,0.0,0.0,0.0,0.0,0.0,0.0,0.0,0.0,0.0,0.0,0.0,0.0,0.0,0.0,0.0,0.0,0.0,0.0,0.0,0.0,0.0,0.0,0.0,0.0,0.0,0.0,0.0,0.0,0.0,0.0,0.0,0.0,0.0,0.0,0.0,0.0,0.0,0.0,0.0,0.0,0.0,0.0,0.0,0.0,0.0,0.0,0.0,0.0,0.0,0.0,0.0,0.0,0.0,0.0,0.0,0.0,0.0,0.0,0.0,0.0,0.0,0.0,0.0,0.0,0.0,0.0,0.0,0.0,0.0,-2.093,-1.9924,-1.7974,-1.5074,-1.4191,-1.287,0.0,0.0,0.0,0.0,0.0,0.0,0.0,0.0,0.0,0.0,0.0,0.0,0.0,0.0,0.0,0.0,0.0,0.0,0.0,0.0,0.0,0.0,0.0,0.0,0.0,0.0,0.0,0.0,0.0,0.0,0.0,0.0,0.0,0.0,0.0,0.0,0.0,0.0,0.0,0.0,0.0,0.0,0.0,0.0,0.0,0.0,0.0,0.0,0.0,0.0,0.0,0.0,0.0,0.0,0.0,0.0,0.0,0.0,0.0,0.0,0.0,0.0,0.0,0.0,0.0,0.0,0.0,0.0,0.0,0.0,0.0,0.0,0.0,0.0,0.0,0.0,0.0,0.0,0.0,0.0,0.0,0.0,0.0,0.0,0.0,0.0,0.0,0.0,0.0,0.0,0.0,0.0,0.0,0.0,0.0,0.0,0.0,0.0,0.0,0.0,0.0,0.0,0.0,0.0,0.0,0.0,0.0,0.0,-2.2681,-2.308,-2.2706,-2.1023,-1.8137,-1.6441,-1.4707,0.0,0.0,0.0,0.0,0.0,0.0,0.0,0.0,0.0,0.0,0.0,0.0,0.0,0.0,0.0,0.0,0.0,0.0,0.0,0.0,0.0,0.0,0.0,0.0,0.0,0.0,0.0,0.0,0.0,0.0,0.0,0.0,0.0,0.0,0.0,0.0,0.0,0.0,0.0,0.0,0.0,0.0,0.0,0.0,0.0,0.0,0.0,0.0,0.0,0.0,0.0,0.0,0.0,0.0,0.0,0.0,0.0,0.0,0.0,0.0,0.0,0.0,0.0,0.0,0.0,0.0,0.0,0.0,0.0,0.0,0.0,0.0,0.0,0.0,0.0,0.0,0.0,0.0,0.0,0.0,0.0,0.0,0.0,0.0,0.0,0.0,0.0,0.0,0.0,0.0,0.0,0.0,0.0,0.0,0.0,0.0,0.0,0.0,0.0,0.0,0.0,0.0,0.0,0.0,0.0,0.0,0.0,0.0,-2.4486,-2.5081,-2.4685,-2.3704,-2.2056,-1.922,-1.6787,0.0,0.0,0.0,0.0,0.0,0.0,0.0,0.0,0.0,0.0,0.0,0.0,0.0,0.0,0.0,0.0,0.0,0.0,0.0,0.0,0.0,0.0,0.0,0.0,0.0,0.0,0.0,0.0,0.0,0.0,0.0,0.0,0.0,0.0,0.0,0.0,0.0,0.0,0.0,0.0,0.0,0.0,0.0,0.0,0.0,0.0,0.0,0.0,0.0,0.0,0.0,0.0,0.0,0.0,0.0,0.0,0.0,0.0,0.0,0.0,0.0,0.0,0.0,0.0,0.0,0.0,0.0,0.0,0.0,0.0,0.0,0.0,0.0,0.0,0.0,0.0,0.0,0.0,0.0,0.0,0.0,0.0,0.0,0.0,0.0,0.0,0.0,0.0,0.0,0.0,0.0,0.0,0.0,0.0,0.0,0.0,0.0,0.0,0.0,0.0,0.0,0.0,0.0,0.0,0.0,0.0,0.0,0.0,-2.6546,-2.6749,-2.6555,-2.5737,-2.4514,-2.1604,-1.8985,0.0,0.0,0.0,0.0,0.0,0.0,0.0,0.0,0.0,0.0,0.0,0.0,0.0,0.0,0.0,0.0,0.0,0.0,0.0,0.0,0.0,0.0,0.0,0.0,0.0,0.0,0.0,0.0,0.0,0.0,0.0,0.0,0.0,0.0,0.0,0.0,0.0,0.0,0.0,0.0,0.0,0.0,0.0,0.0,0.0,0.0,0.0,0.0,0.1494,0.0,0.0,0.0,0.0,0.0,0.0,0.0,0.0,0.0,0.0,0.0,0.0,0.0,0.0,0.0,0.0,0.0,0.0,0.0,0.0,0.0,0.0,0.0,0.0,0.0,0.0,0.0,0.0,0.0,0.0,0.0,0.0,0.0,0.0,0.0,0.0,0.0,0.0,0.0,0.0,0.0,0.0,0.0,0.0,0.0,0.0,0.0,0.0,0.0,0.0,0.0,0.0,0.0,0.0,0.0,0.0,0.0,0.0,0.0,-2.8136,-2.8391,-2.8121,-2.7384,-2.6027,-2.399,-2.1481,0.0,0.0,0.0,0.0,0.0,0.0,0.0,0.0,0.0,0.0,0.0,0.0,0.0,0.0,0.0,0.0,0.0,0.0,0.0,0.0,0.0,0.0,0.0,0.0,0.0,0.0,0.0,0.0,0.0,0.0,0.0,0.0,0.0,0.0,0.0,0.0,0.0,0.0,0.0,0.0,0.0,0.0,0.0,0.0,0.0,0.0,0.0,0.0,0.0,0.0,0.0,0.0,0.0,0.0,0.0,0.0,0.0,0.0,0.0,0.0,0.0,0.0,0.0,0.0,0.0,0.0,0.0,0.0,0.0,0.0,0.0,0.0,0.0,0.0,0.0,0.0,0.0,0.0,0.0,0.0,0.0,0.0,0.0,0.0,0.0,0.0,0.0,0.0,0.0,0.0,0.0,0.0,0.0,0.0,0.0,0.0,0.0,0.0,0.0,0.0,0.0,0.0,0.0,0.0,0.0,0.0,0.0,-2.9217,-2.9602,-2.996,-2.9497,-2.8648,-2.7239,-2.615,-2.3997,-2.0585,0.0,0.0,0.0,0.0,0.0,0.0,0.0,0.0,0.0,0.0,0.0,0.0,0.0,0.0,0.0,0.0,0.0,0.0,0.0,0.0,0.0,0.0,0.0,0.0,0.0,0.0,0.0,0.0,0.0,0.0,0.0,0.0,0.0,0.0,0.0,0.0,0.0,0.0,-0.1934,-0.2453,0.0,0.0,0.0,0.0,0.0,0.0,0.0,0.0,-0.1009,0.0,0.0,0.0,0.0,0.0,0.0,0.0,0.0,0.0,0.0,0.0,0.0,0.0,0.0,0.0,0.0,0.0,0.0,0.0,0.0,0.0,0.0,0.0,0.0,0.0,0.0,0.0,0.0,0.0,0.0,0.0,0.0,0.0,0.0,0.0,0.0,0.0,0.0,0.0,0.0,0.0,0.0,0.0,0.0,0.0,0.0,0.0,0.0,0.0,0.0,0.0,0.0,0.0,0.0,0.0,0.0,-2.9852,-3.058,-3.0927,-3.1064,-3.0448,-2.9638,-2.8436,-2.7318,-2.5654,-2.3402,0.0,0.0,0.0,0.0,0.0,0.0,0.0,0.0,0.0,0.0,0.0,0.0,0.0,0.0,0.0,0.0,0.0,0.0,0.0,0.0,0.0,0.0,0.0,0.0,0.0,0.0,0.0,0.0,0.0,0.0,0.0,0.0,0.0,0.0,0.0,0.0,0.0,0.0,0.0,-0.2863,-0.2805,0.0,0.0,0.0,0.0,0.0,0.0,0.0,0.0,-0.1567,0.0,0.0,0.0,0.0,0.0,0.0,0.0,0.0,0.0,0.0,0.0,0.0,0.0,0.0,0.0,0.0,0.0,0.0,0.0,0.0,0.0,0.0,0.0,0.0,0.0,0.0,0.0,0.0,0.0,0.0,0.0,0.0,0.0,0.0,0.0,0.0,0.0,0.0,0.0,0.0,0.0,0.0,0.0,0.0,0.0,0.0,0.0,0.0,0.0,0.0,0.0,0.0,0.0,0.0,0.0,-3.1366,-3.2014,-3.2387,-3.2438,-3.1702,-3.0681,-2.9638,-2.8451,-2.6983,0.0,0.0,0.0,0.0,0.0,0.0,0.0,0.0,0.0,0.0,0.0,0.0,0.0,0.0,0.0,0.0,0.0,0.0,0.0,0.0,0.0,0.0,0.0,0.0,0.0,0.0,0.0,0.0,0.0,0.0,0.0,0.0,0.0,0.0,0.0,0.0,0.0,0.0,0.0,0.0,-0.3036,-0.3312,-0.3253,0.0,0.0,0.0,0.0,0.0,0.0,-0.2399,-0.2158,0.0,0.0,0.0,0.0,0.0,0.0,0.0,0.0,0.0,0.0,0.0,0.0,0.0,0.0,0.0,0.0,0.0,0.0,0.0,0.0,0.0,0.0,0.0,0.0,0.0,0.0,0.0,0.0,0.0,0.0,0.0,0.0,0.0,0.0,0.0,0.0,0.0,0.0,0.0,0.0,0.0,0.0,0.0,0.0,0.0,0.0,0.0,0.0,0.0,0.0,0.0,0.0,0.0,0.0,0.0,-3.2796,-3.3252,-3.3647,-3.3773,-3.2823,-3.171,-3.0681,-2.9488,-2.8074,0.0,0.0,0.0,0.0,0.0,0.0,0.0,0.0,0.0,0.0,0.0,0.0,0.0,0.0,0.0,0.0,0.0,0.0,0.0,0.0,0.0,0.0,0.0,0.0,0.0,0.0,0.0,0.0,0.0,0.0,0.0,0.0,0.0,0.0,0.0,0.0,0.0,0.0,0.0,0.0,0.0,-0.3949,-0.3774,-0.3903,0.0,0.0,0.0,0.0,-0.3058,-0.3027,0.0,0.0,0.0,0.0,0.0,0.0,0.0,0.0,0.0,0.0,0.0,0.0,0.0,0.0,0.0,0.0,0.0,0.0,0.0,0.0,0.0,0.0,0.0,0.0,0.0,0.0,0.0,0.0,0.0,0.0,0.0,0.0,0.0,0.0,0.0,0.0,0.0,0.0,0.0,0.0,0.0,0.0,0.0,0.0,0.0,0.0,0.0,0.0,0.0,0.0,0.0,0.0,0.0,0.0,0.0,0.0,-3.3733,-3.4212,-3.4558,-3.463,-3.3598,-3.2499,-3.1505,-3.0513,-2.9268,0.0,0.0,0.0,0.0,0.0,0.0,0.0,0.0,0.0,0.0,0.0,0.0,0.0,0.0,0.0,0.0,0.0,0.0,0.0,0.0,0.0,0.0,0.0,0.0,0.0,0.0,0.0,0.0,0.0,0.0,0.0,0.0,0.0,0.0,0.0,0.0,0.0,0.0,0.0,0.0,0.0,-0.5072,-0.5033,-0.5163,-0.5018,0.0,0.0,-0.3763,-0.3763,-0.3526,0.0,0.0,0.0,0.0,0.0,0.0,0.0,0.0,0.0,0.0,0.0,0.0,0.0,0.0,0.0,0.0,0.0,0.0,0.0,0.0,0.0,0.0,0.0,0.0,0.0,0.0,0.0,0.0,0.0,0.0,0.0,0.0,0.0,0.0,0.0,0.0,0.0,0.0,0.0,0.0,0.0,0.0,0.0,0.0,0.0,0.0,0.0,0.0,0.0,0.0,0.0,0.0,0.0,0.0,0.0,-3.3745,-3.4979,-3.5236,-3.5476,-3.5593,-3.4483,-3.3423,-3.2499,-3.1577,-3.0326,0.0,0.0,0.0,0.0,0.0,0.0,0.0,0.0,0.0,0.0,0.0,0.0,0.0,0.0,0.0,0.0,0.0,0.0,0.0,0.0,0.0,0.0,0.0,0.0,0.0,0.0,0.0,0.0,0.0,0.0,0.0,0.0,0.0,0.0,0.0,0.0,0.0,0.0,0.0,0.0,0.0,0.0,-0.6276,-0.6544,0.0,0.0,0.0,-0.5818,-0.5571,0.0,0.0,0.0,0.0,0.0,0.0,0.0,0.0,0.0,0.0,0.0,0.0,0.0,0.0,0.0,0.0,0.0,0.0,0.0,0.0,0.0,0.0,0.0,0.0,0.0,0.0,0.0,0.0,0.0,0.0,0.0,0.0,0.0,0.0,0.0,0.0,0.0,0.0,0.0,0.0,0.0,0.0,0.0,0.0,0.0,0.0,0.0,0.0,0.0,0.0,0.0,0.0,0.0,0.0,0.0,0.0,0.0,-3.6108,-3.632,-3.653,-3.6658,-3.5475,-3.4507,-3.3674,-3.2622,0.0,0.0,0.0,0.0,0.0,0.0,0.0,0.0,0.0,0.0,0.0,0.0,0.0,0.0,0.0,0.0,0.0,0.0,0.0,0.0,0.0,0.0,0.0,0.0,0.0,0.0,0.0,-1.0162,0.0,0.0,0.0,0.0,0.0,0.0,0.0,0.0,0.0,0.0,0.0,0.0,0.0,0.0,-0.7564,-0.777,-0.8068,-0.8122,0.0,0.0,-0.7704,-0.7454,-0.7421,-0.7138,0.0,0.0,0.0,0.0,0.0,0.0,0.0,0.0,0.0,0.0,0.0,0.0,0.0,0.0,0.0,0.0,0.0,0.0,0.0,0.0,0.0,0.0,0.0,0.0,0.0,0.0,0.0,0.0,0.0,0.0,0.0,0.0,0.0,0.0,0.0,0.0,0.0,0.0,0.0,0.0,0.0,0.0,0.0,0.0,0.0,0.0,0.0,0.0,0.0,0.0,0.0,0.0,0.0,0.0,0.0,-3.6972,-3.74,-3.7584,-3.7678,-3.6684,-3.5833,-3.5066,-3.3765,-3.2432,0.0,0.0,0.0,0.0,0.0,0.0,0.0,0.0,0.0,0.0,0.0,0.0,0.0,0.0,0.0,0.0,0.0,0.0,0.0,0.0,0.0,0.0,0.0,0.0,0.0,0.0,0.0,0.0,0.0,0.0,0.0,0.0,0.0,0.0,0.0,0.0,0.0,0.0,0.0,0.0,0.0,-0.9734,-0.9516,-0.991,-1.0122,0.0,-0.9488,-0.9239,-0.9239,-0.8866,-0.8234,-0.7627,0.0,0.0,0.0,0.0,0.0,0.0,0.0,0.0,0.0,0.0,0.0,0.0,0.0,0.0,0.0,0.0,0.0,0.0,0.0,0.0,0.0,0.0,0.0,0.0,0.0,0.0,0.0,0.0,0.0,0.0,0.0,0.0,0.0,0.0,0.0,0.0,0.0,0.0,0.0,0.0,0.0,0.0,0.0,0.0,0.0,0.0,0.0,0.0,0.0,0.0,0.0,0.0,0.0,-3.7734,-3.862,-3.8569,-3.8528,-3.8675,-3.7612,-3.6684,-3.6143,-3.47,-3.3514,0.0,0.0,0.0,0.0,0.0,0.0,0.0,0.0,0.0,0.0,0.0,0.0,0.0,0.0,0.0,0.0,0.0,0.0,0.0,0.0,0.0,0.0,0.0,0.0,0.0,0.0,0.0,0.0,-1.309,-1.2436,-1.1413,0.0,0.0,0.0,0.0,0.0,0.0,0.0,0.0,0.0,0.0,-1.1518,-1.2051,-1.2019,0.0,0.0,-1.1315,-1.1062,-1.0541,-1.0541,-1.0263,-0.9487,-0.8723,0.0,0.0,0.0,0.0,0.0,0.0,0.0,0.0,0.0,0.0,0.0,0.0,0.0,0.0,0.0,0.0,0.0,0.0,0.0,0.0,0.0,0.0,0.0,0.0,0.0,0.0,0.0,0.0,0.0,0.0,0.0,0.0,0.0,0.0,0.0,0.0,0.0,0.0,0.0,0.0,0.0,0.0,0.0,0.0,0.0,0.0,0.0,0.0,0.0,0.0,0.0,0.0,-3.8987,-3.9951,-3.9634,-3.9561,-3.9793,-3.8702,-3.7887,-3.7335,-3.5978,-3.4754,0.0,0.0,0.0,0.0,0.0,0.0,0.0,0.0,0.0,0.0,0.0,0.0,0.0,0.0,0.0,0.0,0.0,0.0,0.0,0.0,0.0,0.0,0.0,0.0,0.0,0.0,0.0,0.0,-1.4551,-1.3659,-1.2861,0.0,0.0,0.0,0.0,0.0,0.0,0.0,0.0,0.0,0.0,-1.3609,-1.4391,-1.428,-1.3988,-1.3409,-1.317,-1.2757,-1.2041,-1.2019,-1.1865,-1.1367,0.0,0.0,0.0,0.0,0.0,0.0,0.0,0.0,0.0,0.0,0.0,0.0,0.0,0.0,0.0,0.0,0.0,0.0,0.0,0.0,0.0,0.0,0.0,0.0,0.0,0.0,0.0,-3.0845,0.0,0.0,-3.1759,0.0,0.0,0.0,0.0,0.0,0.0,0.0,0.0,0.0,0.0,0.0,0.0,0.0,0.0,0.0,0.0,0.0,0.0,0.0,0.0,0.0,0.0,-3.973,-4.0788,-4.0694,-4.0699,-4.0944,-4.0027,-3.9326,-3.8792,-3.758,-3.6322,-3.4943,0.0,0.0,0.0,0.0,0.0,0.0,0.0,0.0,0.0,0.0,0.0,0.0,0.0,0.0,0.0,0.0,0.0,0.0,0.0,0.0,0.0,0.0,0.0,0.0,0.0,0.0,-1.656,-1.5921,-1.5352,0.0,0.0,0.0,0.0,0.0,0.0,0.0,0.0,0.0,0.0,-1.5013,-1.6193,-1.6473,-1.6583,-1.6365,-1.5776,-1.5091,-1.4494,-1.3919,-1.344,-1.3157,0.0,0.0,0.0,0.0,0.0,0.0,0.0,0.0,0.0,0.0,0.0,0.0,0.0,0.0,0.0,0.0,0.0,0.0,0.0,0.0,0.0,0.0,0.0,0.0,0.0,0.0,0.0,-3.443,-3.4236,0.0,0.0,0.0,0.0,0.0,0.0,0.0,0.0,0.0,0.0,0.0,-3.8432,-3.9375,0.0,0.0,0.0,0.0,0.0,0.0,0.0,0.0,0.0,0.0,0.0,0.0,-4.1386,-4.1862,-4.1927,-4.1853,-4.1616,-4.0887,-4.0287,-3.9853,-3.8492,-3.6751,-3.4653,0.0,0.0,0.0,0.0,0.0,0.0,0.0,0.0,0.0,0.0,0.0,0.0,0.0,0.0,0.0,0.0,0.0,0.0,0.0,0.0,0.0,0.0,0.0,0.0,0.0,-1.8078,0.0,0.0,0.0,0.0,0.0,0.0,0.0,0.0,0.0,0.0,0.0,-1.534,-1.6213,-1.7367,-1.8211,-1.8381,-1.8017,-1.7545,0.0,0.0,0.0,0.0,0.0,0.0,0.0,0.0,0.0,0.0,0.0,0.0,0.0,0.0,-1.4405,-1.2972,-1.0974,-1.011,-1.1751,0.0,0.0,0.0,0.0,0.0,0.0,0.0,0.0,0.0,0.0,0.0,0.0,0.0,0.0,-3.7638,-3.7479,-3.6672,0.0,0.0,0.0,0.0,0.0,0.0,0.0,0.0,-4.058,-4.1077,-4.0992,-4.1876,-4.2347,0.0,-4.2425,-4.1693,0.0,0.0,0.0,0.0,0.0,0.0,0.0,0.0,-4.2512,-4.3149,-4.2908,-4.2719,-4.2467,-4.184,-4.1254,-4.0802,-3.9274,-3.7655,-3.5991,-3.5758,-3.4821,0.0,0.0,0.0,0.0,0.0,0.0,0.0,0.0,0.0,0.0,0.0,0.0,0.0,0.0,0.0,0.0,0.0,0.0,0.0,0.0,0.0,0.0,0.0,-1.9775,0.0,0.0,0.0,0.0,0.0,0.0,0.0,0.0,0.0,-1.5582,-1.6167,-1.7196,-1.8231,-1.9113,-1.9808,-2.0112,0.0,0.0,0.0,0.0,0.0,0.0,0.0,-1.5846,-1.7381,-1.8325,-1.8608,-1.7908,-1.777,-1.797,-1.8987,0.0,0.0,-1.6722,-1.49,-1.4026,-1.5462,-1.716,-1.7894,-1.6008,-1.6121,-1.6635,0.0,0.0,0.0,0.0,0.0,0.0,0.0,0.0,-4.0734,-4.0622,0.0,-3.9657,0.0,0.0,0.0,0.0,-4.0193,-4.1229,0.0,0.0,-4.2914,-4.3323,-4.3654,-4.4029,-4.4313,-4.4417,-4.3973,-4.4138,-4.4723,-4.2842,0.0,0.0,0.0,0.0,0.0,0.0,-4.3261,-4.4551,-4.384,-4.335,-4.3389,-4.2777,-4.2286,-4.1731,-4.0097,-3.9084,-3.8773,-3.7508,-3.6443,-3.5817,-3.3977,0.0,0.0,0.0,0.0,0.0,0.0,0.0,0.0,0.0,0.0,0.0,0.0,0.0,0.0,0.0,0.0,0.0,0.0,0.0,0.0,-2.2042,0.0,0.0,0.0,0.0,0.0,0.0,0.0,0.0,0.0,0.0,-1.7736,-1.7931,-1.8677,-1.9589,0.0,0.0,0.0,0.0,-2.0605,-1.9929,-1.983,-1.9484,-1.8969,-1.7686,-1.7718,-1.9912,0.0,0.0,-2.0862,-2.0651,-2.0947,-2.1752,-2.2263,-2.1885,-1.9841,-1.8659,-1.8197,-1.9089,-2.0459,-2.095,-1.9715,-1.9484,-1.9865,-4.5746,0.0,0.0,0.0,0.0,-4.4416,-4.4164,-4.4113,-4.3768,-4.361,-4.3594,-4.2381,0.0,0.0,0.0,0.0,0.0,0.0,-4.4306,-4.4643,-4.5934,-4.6388,-4.6354,-4.7216,-4.7729,-4.7874,-4.7744,-4.7655,-4.7501,-4.6979,-4.5799,-4.4033,0.0,0.0,0.0,0.0,-4.5885,-4.5588,-4.5872,-4.585,-4.5464,-4.4817,-4.3867,-4.2647,-4.1424,-4.0379,-3.9508,-3.9005,-3.8145,-3.6878,-3.5916,0.0,0.0,0.0,0.0,0.0,0.0,0.0,0.0,0.0,0.0,0.0,0.0,0.0,0.0,0.0,0.0,0.0,0.0,0.0,-2.3322,-2.3626,-2.3548,0.0,0.0,0.0,0.0,0.0,0.0,0.0,0.0,0.0,-2.123,-2.0597,-2.0592,0.0,0.0,-2.2597,-2.2652,-2.2319,-2.1907,-2.1537,-2.1172,0.0,-2.084,-2.032,-2.0462,-2.1481,-2.219,-2.255,-2.2294,-2.2356,-2.2614,-2.326,-2.3472,-2.3382,-2.3164,-2.2356,-2.1726,-2.1567,-2.2627,-2.3119,-2.1672,-2.1635,-2.1907,-4.8973,-4.8231,-4.733,-4.6882,-4.6708,-4.6339,-4.6158,-4.6103,-4.5849,-4.5738,-4.567,-4.4565,-4.4231,-4.4458,-4.4177,0.0,0.0,0.0,-4.6542,-4.7282,-4.7876,-4.8364,-4.8695,-4.9243,-4.9599,-4.9637,-4.967,-4.9542,-4.9253,-4.9356,-4.8762,-4.7407,0.0,0.0,-4.6739,-4.7539,-4.7789,-4.7309,-4.7447,-4.72,-4.6573,-4.5607,-4.4542,-4.3578,-4.2466,-4.1612,-4.0879,-4.0546,-3.9843,-3.8583,-3.7724,-3.6457,0.0,0.0,0.0,0.0,0.0,0.0,0.0,0.0,0.0,0.0,0.0,-2.5628,-2.5637,0.0,0.0,0.0,-2.5441,-2.545,-2.5099,-2.5729,0.0,0.0,0.0,0.0,0.0,0.0,0.0,-2.3536,-2.3259,-2.3297,-2.366,-2.3006,-2.2669,-2.2902,-2.324,-2.3426,-2.3456,0.0,-2.2755,-2.2599,-2.2413,-2.2344,-2.2344,-2.2607,-2.2752,-2.3078,-2.3313,-2.3417,-2.3598,-2.3637,-2.3849,-2.414,-2.4193,-2.4341,-2.4488,-2.4222,-2.3784,-2.3271,-2.3892,-2.4222,-2.3246,-2.322,-2.3484,-5.1634,-5.1645,-4.9742,-4.8552,-4.7885,-4.7683,-4.7569,-4.7329,-4.7248,-4.7189,-4.7121,-4.6408,-4.6259,-4.6631,-4.6898,0.0,-4.7108,-4.7637,-4.8552,-4.9811,-4.9215,-4.9712,-5.0793,-5.0559,-5.0456,-5.0456,-5.049,-5.0421,-5.049,-5.0625,-5.066,-5.0627,-4.9292,-4.8656,-4.8684,-4.8929,-4.9184,-4.942,-4.8573,-4.7851,-4.7091,-4.5654,-4.473,-4.4488,-4.3367,-4.2688,-4.2474,-4.2034,-4.1414,-4.051,-3.942,-3.8168,-3.673,0.0,0.0,0.0,0.0,0.0,0.0,0.0,0.0,0.0,0.0,0.0,0.0,0.0,0.0,0.0,-2.7043,0.0,-2.7458,-2.8085,0.0,0.0,0.0,-2.8303,-2.8008,-2.7024,-2.6241,-2.5831,0.0,0.0,-2.5059,-2.5087,-2.4818,-2.412,-2.3964,-2.395,-2.3977,-2.3718,-2.3405,-2.3432,-2.3628,-2.3653,-2.3653,-2.4103,-2.4421,-2.4421,-2.4622,-2.4596,-2.4462,-2.4475,-2.4623,-2.4636,-2.4636,-2.4636,-2.4636,-2.4623,-2.4636,-2.4609,-2.4609,-2.4623,-2.4435,-2.4435,-2.4356,-5.1854,-5.1346,-5.141,-5.0912,-5.0017,-4.9812,-4.929,-4.8719,-4.8565,-4.8599,-4.8651,-4.8055,-4.7695,-4.7588,-4.775,-4.8062,-4.8543,-4.9136,-4.9791,-5.0635,-5.1395,-5.182,-5.2128,-5.2471,-5.2606,-5.264,-5.2504,-5.2469,-5.2469,-5.2367,-5.21,-5.1732,-5.19,-5.143,-5.0225,-5.076,-5.0921,-5.0528,-5.0399,-4.9783,-4.8729,-4.7339,-4.6326,-4.5799,-4.4406,-4.3488,-4.309,-4.2688,-4.2222,-4.1637,-4.0539,-3.9414,-3.8131,-3.6508,0.0,0.0,0.0,0.0,0.0,0.0,0.0,0.0,0.0,-2.9648,-3.0033,0.0,-2.8871,0.0,-2.9071,-2.9133,-2.868,-2.97,0.0,0.0,-3.0363,-3.0138,-3.0085,-2.9172,-2.8309,-2.7642,-2.7168,-2.6952,-2.6546,-2.6446,-2.6446,-2.6287,-2.5524,-2.5036,-2.5257,-2.5285,-2.5139,-2.5139,-2.4902,-2.4823,-2.481,-2.469,-2.469,-2.4543,-2.4596,-2.4636,-2.4636,-2.4636,-2.4636,-2.4636,-2.4636,-2.4636,-2.4636,-2.4945,-2.5092,-2.5092,-2.4784,-2.4636,-2.4636,-2.4636,-2.4609,-5.2604,-5.2266,-5.2672,-5.2295,-5.1429,-5.0934,-5.0391,-4.9739,-4.965,-4.9508,-4.9316,-4.912,-4.9056,-4.9217,-4.9388,-4.9803,-5.0472,-5.0769,-5.1356,-5.2149,-5.2666,-5.3151,-5.3524,-5.3676,-5.3715,-5.3749,-5.3517,-5.3619,-5.3923,-5.3752,-5.365,-5.372,-5.3787,-5.3348,-5.2472,-5.2438,-5.2129,-5.1711,-5.128,-5.0647,-4.9868,-4.8592,-4.7512,-4.6573,-4.5323,-4.4261,-4.3518,-4.317,-4.2799,-4.2398,-4.1414,-4.0205,-3.8863,-3.7729,-3.6277,0.0,0.0,0.0,0.0,0.0,0.0,0.0,0.0,0.0,0.0,0.0,-3.1272,-3.0847,-3.1248,-3.1311,-3.0703,-3.1894,-3.2656,-3.2409,-3.2359,-3.2225,-3.182,-3.1203,-3.0446,-2.9257,-2.9039,-2.8632,-2.8099,-2.797,-2.7985,-2.7825,-2.7241,-2.6619,-2.6196,-2.5946,-2.58,-2.58,-2.5653,-2.5345,-2.5011,-2.5038,-2.5065,-2.5065,-2.5065,-2.5065,-2.5065,-2.5065,-2.5079,-2.5079,-2.5065,-2.5065,-2.5065,-2.5212,-2.5359,-2.5373,-2.5373,-2.5226,-2.5212,-2.5065,-2.5065,-5.3721,-5.3653,-5.3653,-5.3179,-5.2367,-5.1758,-5.1176,-5.0521,-5.0521,-5.0271,-4.9838,-4.9983,-5.0454,-5.1073,-5.1252,-5.1657,-5.2278,-5.2382,-5.2857,-5.3602,-5.3618,-5.3998,-5.4648,-5.4362,-5.4303,-5.4342,-5.4051,-5.4227,-5.4941,-5.477,-5.5074,-5.5649,-5.5074,-5.4735,-5.4702,-5.3821,-5.3142,-5.259,-5.1729,-5.1027,-5.0602,-4.9546,-4.8418,-4.7169,-4.6284,-4.52,-4.4055,-4.3758,-4.3498,-4.3078,-4.2187,-4.1,-3.9395,-3.8668,-3.7836,0.0,-3.6222,0.0,0.0,0.0,0.0,0.0,0.0,0.0,0.0,-3.4647,-3.3879,-3.3038,-3.3505,-3.353,-3.3114,-3.4021,-3.4626,-3.4367,-3.4347,-3.407,-3.3423,-3.3046,-3.2289,-3.0907,-3.0634,-3.0266,-2.9585,-2.9585,-2.9282,-2.8995,-2.8835,-2.8243,-2.7114,-2.6531,-2.6239,-2.6093,-2.5946,-2.5772,-2.513,-2.5465,-2.58,-2.58,-2.58,-2.58,-2.58,-2.58,-2.58,-2.58,-2.58,-2.58,-2.58,-2.5625,-2.5625,-2.58,-2.6107,-2.6267,-2.58,-2.58,-2.58,-5.4938,-5.4397,-5.4397,-5.3991,-5.3413,-5.3277,-5.2527,-5.1269,-5.1492,-5.1514,-5.1562,-5.1864,-5.2052,-5.2226,-5.2369,-5.2497,-5.2671,-5.3296,-5.3619,-5.3636,-5.426,-5.4516,-5.4557,-5.4494,-5.4711,-5.5166,-5.4969,-5.5144,-5.5757,-5.5549,-5.5581,-5.5716,-5.5581,-5.548,-5.548,0.0,0.0,0.0,-5.2236,-5.1729,-5.1059,-5.0156,-4.9209,-4.8279,-4.7388,0.0,-4.5627,-4.5516,-4.5049,-4.4049,-4.3629,0.0,0.0,0.0,0.0,0.0,0.0,0.0,0.0,0.0,0.0,0.0,-3.7987,-3.827,-3.7907,-3.6461,-3.5244,-3.4274,-3.5001,-3.5396,-3.4745,-3.5201,-3.5627,-3.5514,-3.5373,-3.5239,-3.4967,-3.4203,-3.3255,-3.2681,-3.2193,-3.1542,-3.0852,-3.0726,-3.0567,-3.014,-2.9855,-2.9568,-2.9282,-2.8274,-2.7695,-2.7695,-2.7129,-2.6546,-2.596,-2.5946,-2.596,-2.5974,-2.596,-2.58,-2.58,-2.58,-2.58,-2.58,-2.58,-2.58,-2.58,-2.5946,-2.6239,-2.6253,-2.6838,-2.6969,-2.6093,-2.58,-2.58,-5.5513,-5.5175,-5.5141,-5.477,0.0,-5.4328,-5.3813,-5.2819,-5.2569,-5.2413,-5.2218,-5.2433,-5.2761,-5.3167,-5.3286,-5.346,-5.3843,-5.42,-5.4313,-5.4313,-5.4634,-5.4988,-5.5299,-5.5237,-5.546,-5.6053,-5.5788,-5.5928,-5.6505,-5.6295,-5.6427,-5.6765,-5.6427,-5.6258,-5.6224,-5.5513,-5.4359,-5.2764,-5.2886,-5.2561,-5.1573,-5.0736,-4.9821,-4.8811,-4.7918,0.0,0.0,0.0,0.0,0.0,0.0,0.0,0.0,0.0,0.0,-4.071,-4.0307,-3.9928,-3.9695,-4.0089,-4.0104,-3.955,-4.0533,-4.0612,-3.9259,-3.8274,-3.7471,-3.6746,-3.7002,-3.704,-3.6439,-3.6618,-3.6603,-3.6202,-3.613,-3.5879,-3.547,-3.5059,-3.437,-3.3659,-3.3242,-3.2684,-3.1999,-3.1859,-3.17,-3.1277,-3.1118,-3.0852,-3.0425,-2.9282,-2.8418,-2.813,-2.7855,-2.726,-2.6808,-2.6677,-2.6677,-2.656,-2.6546,-2.6399,-2.6399,-2.6399,-2.6399,-2.6677,-2.6677,-2.6677,-2.6969,-2.7114,-2.7274,-2.726,-2.755,-2.7695,-2.6969,-2.6823,-2.6677,-5.6021,-5.5919,-5.5919,-5.5585,-5.5043,-5.5246,-5.5104,-5.4583,0.0,0.0,0.0,-5.2969,-5.3401,-5.4112,-5.4147,-5.446,-5.5053,-5.5104,-5.5077,-5.5139,-5.5154,-5.557,-5.6189,-5.6096,-5.6284,-5.6776,-5.6474,-5.6678,-5.7287,-5.7074,-5.7273,-5.778,-5.7273,-5.6934,-5.6765,-5.6254,-5.5134,-5.3405,-5.3661,-5.3334,-5.2187,-5.1415,-5.0512,-4.9379,-4.855,-4.765,-4.6689,-4.619,-4.5769,-4.5312,-4.4647,-4.4138,-4.3891,-4.3172,-4.2753,-4.2753,-4.2213,-4.1913,-4.1712,-4.1931,-4.1849,-4.1686,-4.2613,-4.2427,-4.0293,-4.0043,-3.9769,-3.9154,-3.8873,-3.8505,-3.7743,-3.7657,-3.7482,-3.6789,-3.6519,-3.6248,-3.5743,-3.5606,-3.5059,-3.4232,-3.4094,-3.3678,-3.2981,-3.2859,-3.2701,-3.2263,-3.2105,-3.1982,-3.1135,-2.9997,-2.8851,-2.8418,-2.8289,-2.8114,-2.7505,-2.7375,-2.755,-2.7274,-2.7129,-2.7129,-2.7129,-2.7129,-2.7274,-2.755,-2.7695,-2.7695,-2.7985,-2.813,-2.813,-2.8274,-2.8274,-2.8418,-2.8418,-2.8274,-2.7985,-5.7205,-5.663,-5.6664,-5.6401,-5.5996,-5.6064,-5.6232,-5.6291,-5.4879,-5.435,-5.4468,-5.4618,-5.4774,-5.5059,-5.5214,-5.5249,-5.5234,-5.5872,-5.6063,-5.5848,-5.6408,-5.6625,-5.6466,-5.64,-5.6644,-5.7192,-5.7053,-5.7321,-5.7967,-5.7785,-5.7814,-5.7848,-5.778,-5.7408,-5.69,-5.7161,-5.6471,-5.4845,-5.4695,-5.4221,-5.34,-5.2667,-5.1882,-5.0965,-5.0429,-4.983,-4.9159,-4.8745,-4.8417,-4.7965,-4.723,-4.6509,-4.5802,-4.5121,-4.4412,-4.3686,-4.3406,-4.2891,-4.2188,-4.3008,-4.3593,-4.3762,-4.4476,-4.4105,-4.2114,-4.1545,-4.0876,-3.9936,-3.9993,-3.9649,-3.8729,-3.8262,-3.7904,-3.7482,-3.6924,-3.6384,-3.6248,-3.5879,-3.547,-3.5196,-3.4921,-3.4508,-3.3817,-3.3678,-3.3418,-3.2859,-3.279,-3.2456,-3.2051,-3.0993,-3.0014,-2.9298,-2.9154,-2.8851,-2.813,-2.7985,-2.7985,-2.7985,-2.784,-2.784,-2.784,-2.7885,-2.803,-2.8,-2.8191,-2.8191,-2.832,-2.8418,-2.8769,-2.8785,-2.9217,-2.9649,-2.9665,-2.9649,-2.9186,-5.7679,-5.7374,-5.7408,-5.7182,-5.6782,-5.6609,-5.6673,-5.6736,-5.6081,-5.58,-5.5992,-5.6021,-5.6147,-5.6334,-5.6431,-5.6431,-5.6369,-5.6593,-5.6605,-5.6512,-5.6729,-5.6978,-5.7089,-5.7089,-5.7364,-5.7769,-5.7766,-5.7793,-5.8027,-5.7954,-5.7881,-5.7881,-5.7881,-5.764,-5.7296,-5.7493,-5.7103,-5.617,-5.5514,-5.4665,-5.3616,-5.2877,-5.215,-5.1518,-5.0753,-5.0144,-4.9791,-4.9344,-4.8892,-4.8496,-4.7753,-4.7262,-4.6897,-4.6034,-4.5602,-4.5708,-4.505,-4.4565,-4.4552,-4.43,-4.437,-4.4928,-4.5191,-4.491,-4.399,-4.2956,-4.1948,-4.1294,-4.0666,-4.0149,-3.9604,-3.8967,-3.8304,-3.7904,-3.7213,-3.6789,-3.6519,-3.6132,-3.5743,-3.547,-3.5333,-3.5059,-3.4508,-3.437,-3.4482,-3.4231,-3.4153,-3.3874,-3.3429,-3.2733,-3.1718,-3.0524,-3.0014,-2.9585,-2.8866,-2.8707,-2.8563,-2.813,-2.813,-2.813,-2.8145,-2.8412,-2.8826,-2.9003,-2.9404,-2.9692,-2.9854,-3.0146,-3.0292,-3.0292,-3.0438,-3.0745,-3.0874,-3.0874,-3.0308,-5.8152,-5.8152,-5.7949,-5.7759,-5.7533,-5.7362,-5.7256,-5.7322,-5.7288,-5.7354,-5.7417,-5.7105,-5.7097,-5.7324,-5.7324,-5.7289,-5.726,-5.727,-5.7274,-5.7209,-5.7285,-5.7464,-5.7741,-5.781,-5.7909,-5.8137,-5.8099,-5.8027,-5.7881,-5.7881,-5.7881,-5.7881,-5.7881,-5.7808,-5.7588,-5.7588,-5.7364,-5.6877,-5.6117,-5.5172,-5.4059,-5.3198,-5.246,-5.1987,-5.0984,-5.0423,-5.0364,-4.9823,-4.9453,-4.9174,-4.8632,-4.8247,-4.8141,-4.7263,-4.7087,-4.7405,-4.6648,-4.614,-4.6351,-4.5336,-4.4869,-4.5623,-4.561,-4.5448,-4.5159,-4.395,-4.2949,-4.242,-4.1293,-4.0539,-4.0149,-3.9341,-3.8702,-3.8304,-3.7636,-3.6944,-3.6674,-3.6268,-3.5879,-3.5626,-3.5626,-3.5508,-3.531,-3.5192,-3.5224,-3.5501,-3.5377,-3.5134,-3.4865,-3.4415,-3.3409,-3.2165,-3.1246,-3.0722,-2.9953,-2.9841,-2.9568,-2.894,-2.8972,-2.9164,-2.9179,-2.9498,-2.9901,-3.0226,-3.0713,-3.1138,-3.1662,-3.1793,-3.1776,-3.1889,-3.2019,-3.207,-3.2182,-3.2182,-3.1496,-5.893,-5.8795,-5.8186,-5.8099,-5.8353,-5.8495,-5.8634,-5.8771,-5.8806,-5.8806,-5.8599,-5.7555,-5.7131,-5.7289,-5.7358,-5.723,-5.7136,-5.776,-5.804,-5.7874,-5.8495,-5.8634,-5.8424,-5.8424,-5.8246,-5.7954,-5.7988,-5.8022,-5.7949,-5.7949,-5.7915,-5.7881,-5.7881,-5.7876,-5.7621,-5.7473,-5.7172,-5.6757,-5.6303,-5.5763,-5.5247,-5.4389,-5.3624,-5.2927,-5.2153,-5.1698,-5.1514,-5.1523,-5.1439,-5.1179,-5.1157,-5.0803,-5.0171,-4.9784,-4.9181,-4.8246,-4.781,-4.7277,-4.6463,-4.5304,-4.5153,-4.6125,-4.6205,-4.5892,-4.5331,-4.457,-4.3826,-4.2822,-4.2061,-4.1293,-4.0409,-3.9604,-3.8946,-3.8681,-3.775,-3.7079,-3.6944,-3.6423,-3.6016,-3.6016,-3.5918,-3.6035,-3.5912,-3.6047,-3.6099,-3.618,-3.6228,-3.6018,-3.5569,-3.5281,-3.4812,-3.4072,-3.3314,-3.2261,-3.1513,-3.1432,-3.1186,-3.1072,-3.1252,-3.1056,-3.104,-3.1089,-3.1482,-3.1482,-3.1695,-3.1926,-3.2204,-3.2414,-3.2741,-3.3137,-3.3412,-3.3617,-3.3709,-3.3634,-3.2982,-5.9674,-5.9573,-5.8863,-5.8434,-5.8382,-5.8561,-5.8701,-5.8909,-5.8909,-5.8909,-5.8841,-5.8289,-5.8183,-5.8282,-5.8282,-5.8215,-5.8183,-5.8494,-5.8564,-5.8462,-5.8772,-5.8701,-5.8314,-5.8314,-5.8171,-5.7949,-5.8355,-5.8558,-5.8626,-5.8964,-5.9201,-5.9201,-5.9051,-5.89,-5.8748,-5.8518,-5.8208,-5.7846,-5.7331,-5.6921,-5.6356,-5.5325,-5.4631,-5.4383,-5.3622,-5.3155,-5.2997,-5.2762,-5.2397,-5.2034,-5.1842,-5.1483,-5.0691,-5.0275,-4.9783,-4.9282,-4.8865,-4.8258,-4.7458,-4.6627,-4.6231,-4.6541,-4.6426,-4.5966,-4.5355,-4.484,-4.4199,-4.32,-4.2316,-4.155,-4.0928,-3.9866,-3.9078,-3.8814,-3.7883,-3.7079,-3.7079,-3.6423,-3.6035,-3.6035,-3.625,-3.6465,-3.656,-3.6828,-3.7016,-3.6962,-3.7153,-3.6998,-3.6727,-3.6309,-3.5852,-3.5559,-3.4823,-3.3856,-3.2844,-3.2397,-3.2267,-3.1973,-3.1973,-3.1973,-3.2023,-3.2634,-3.2884,-3.2884,-3.3169,-3.3438,-3.3839,-3.3935,-3.4084,-3.4345,-3.438,-3.4528,-3.4528,-3.4528,-3.4232,-6.0419,-6.0317,-5.9641,-5.9072,-5.8783,-5.8723,-5.8798,-5.8975,-5.8804,-5.8701,-5.8701,-5.8701,-5.8771,-5.8875,-5.8875,-5.8875,-5.8875,-5.8875,-5.884,-5.8701,-5.8701,-5.8663,-5.8477,-5.8511,-5.854,-5.8558,-5.9066,-5.9302,-5.937,-5.981,-6.008,-6.0114,-5.9886,-5.9688,-5.9499,-5.9297,-5.8899,-5.8462,-5.805,-5.7644,-5.7281,-5.6201,-5.5516,-5.5468,-5.4543,-5.3975,-5.3975,-5.3676,-5.3277,-5.2782,-5.2729,-5.2311,-5.1621,-5.0995,-5.0556,-5.0106,-4.9427,-4.8895,-4.8172,-4.7781,-4.7308,-4.6806,-4.6522,-4.6038,-4.5477,-4.5086,-4.4446,-4.3451,-4.2443,-4.1806,-4.1293,-3.9997,-3.921,-3.9078,-3.7883,-3.7079,-3.7079,-3.6502,-3.6211,-3.623,-3.6601,-3.6894,-3.709,-3.7617,-3.7942,-3.7856,-3.7943,-3.8009,-3.7715,-3.7236,-3.6922,-3.6645,-3.6201,-3.5371,-3.4115,-3.3639,-3.3145,-3.3145,-3.3049,-3.3083,-3.2998,-3.3717,-3.4154,-3.4023,-3.4733,-3.4954,-3.4847,-3.5068,-3.542,-3.5587,-3.5587,-3.5569,-3.5794,-3.5569,-3.5587,-6.1231,-6.1129,-6.0385,-6.0088,-6.0245,-5.9565,-5.9332,-5.9549,-5.8866,-5.8524,-5.8558,-5.8524,-5.849,-5.8561,-5.8524,-5.8561,-5.8561,-5.8561,-5.8595,-5.8558,-5.8558,-5.8829,-5.9259,-5.9293,-5.9451,-5.9776,-5.9979,-6.008,-6.0114,-6.0148,-6.008,-6.0148,-6.0021,-5.9755,-5.9555,-5.9272,-5.8738,-5.8379,-5.7962,-5.7678,-5.7788,-5.7105,-5.6336,-5.5563,-5.4573,-5.4097,-5.4097,-5.4127,-5.4062,-5.3733,-5.3934,-5.3847,-5.3384,-5.2751,-5.1863,-5.0601,-4.9643,-4.8895,-4.8341,-4.8172,-4.7725,-4.6951,-4.6446,-4.6084,-4.5331,-4.5208,-4.4693,-4.3451,-4.2673,-4.2061,-4.1293,-3.9997,-3.921,-3.9078,-3.7883,-3.7213,-3.7119,-3.6779,-3.6759,-3.6699,-3.7012,-3.7402,-3.7793,-3.8262,-3.8457,-3.8496,-3.8555,-3.8428,-3.8009,-3.7862,-3.7715,-3.7421,-3.696,-3.6331,-3.5235,-3.4627,-3.4663,-3.4645,-3.4408,-3.4716,-3.4786,-3.4971,-3.4954,-3.4954,-3.5121,-3.5438,-3.5605,-3.5903,-3.6349,-3.6664,-3.6812,-3.696,-3.6664,-3.6812,-3.6664,-6.1738,-6.1298,-6.0994,-6.0588,-6.0156,-5.9885,-5.9933,-6.0081,-5.9808,-5.9434,-5.906,-5.8991,-5.8647,-5.8133,-5.8642,-5.8719,-5.8524,-5.849,-5.8658,-5.8923,-5.8991,-5.9293,-5.979,-5.9783,-5.9885,-6.0148,-6.0622,-6.1129,-6.1535,-6.1569,-6.1569,-6.1491,-6.1177,-6.1019,-6.0826,-6.034,-5.9843,-5.9389,-5.8907,-5.851,-5.8042,-5.7587,-5.6902,-5.6308,-5.5638,-5.525,-5.525,-5.4999,-5.4719,-5.4446,-5.442,-5.3993,-5.35,-5.2652,-5.1677,-5.0795,-4.9897,-4.9213,-4.8806,-4.8433,-4.787,-4.7138,-4.6541,-4.6059,-4.5453,-4.5208,-4.4693,-4.3576,-4.2673,-4.2038,-4.1164,-3.9997,-3.921,-3.9078,-3.8017,-3.7199,-3.7305,-3.6976,-3.6777,-3.707,-3.7441,-3.7871,-3.8223,-3.8476,-3.8574,-3.8574,-3.8574,-3.8574,-3.8448,-3.8155,-3.8009,-3.7715,-3.7402,-3.7107,-3.6664,-3.5736,-3.5438,-3.5288,-3.5271,-3.5253,-3.5438,-3.5754,-3.5736,-3.6034,-3.6052,-3.6201,-3.6497,-3.6664,-3.7107,-3.7255,-3.7549,-3.7549,-3.7402,-3.7255,-3.7255,-6.211,-6.1704,-6.1637,-6.1332,-6.0825,-6.0588,-6.0562,-6.0604,-6.0442,-6.0068,-5.9661,-5.9519,-5.9214,-5.8727,-5.9133,-5.9282,-5.8991,-5.8991,-5.9191,-5.9559,-5.9593,-5.9926,-6.0385,-6.0486,-6.0622,-6.0892,-6.1366,-6.1907,-6.2347,-6.2415,-6.2381,-6.2156,-6.187,-6.1628,-6.1383,-6.0886,-6.0378,-5.9914,-5.9419,-5.885,-5.8211,-5.7746,-5.7275,-5.67,-5.6244,-5.5979,-5.588,-5.5381,-5.5108,-5.4875,-5.4539,-5.3993,-5.3184,-5.2437,-5.1568,-5.0906,-5.0123,-4.9442,-4.9037,-4.8381,-4.7792,-4.7231,-4.6636,-4.6059,-4.5331,-4.5331,-4.457,-4.3576,-4.2673,-4.2038,-4.1164,-3.9997,-3.921,-3.9099,-3.8007,-3.7401,-3.7702,-3.7312,-3.7266,-3.7676,-3.7969,-3.8262,-3.8496,-3.8555,-3.8574,-3.8574,-3.8574,-3.8574,-3.8574,-3.8428,-3.8155,-3.8155,-3.7862,-3.7568,-3.7402,-3.6812,-3.6349,-3.6349,-3.6201,-3.6052,-3.6052,-3.6367,-3.6664,-3.6812,-3.7107,-3.7255,-3.7402,-3.7568,-3.7715,-3.7696,-3.7843,-3.799,-3.7843,-3.7696,-3.7696,-6.2381,-6.2347,-6.2381,-6.2279,-6.211,-6.1535,-6.1298,-6.1197,-6.0554,-6.0283,-6.0148,-6.0114,-6.0047,-6.0013,-6.0047,-6.008,-6.0122,-6.0156,-6.019,-6.0114,-6.0114,-6.052,-6.1264,-6.1298,-6.1603,-6.2144,-6.2313,-6.2381,-6.2381,-6.2415,-6.2302,-6.1997,-6.1756,-6.1547,-6.1119,-6.0666,-6.0206,-5.9684,-5.9274,-5.8701,-5.8211,-5.7653,-5.7211,-5.67,-5.6244,-5.588,-5.5581,-5.5381,-5.5179,-5.5078,-5.4641,-5.3785,-5.2894,-5.2465,-5.1787,-5.1017,-5.0123,-4.9442,-4.901,-4.816,-4.7571,-4.7231,-4.6636,-4.6059,-4.5453,-4.5331,-4.4693,-4.3576,-4.2673,-4.2038,-4.1293,-4.0127,-3.921,-3.912,-3.8212,-3.7682,-3.7766,-3.7825,-3.8066,-3.8379,-3.8496,-3.8555,-3.8574,-3.8574,-3.8574,-3.8574,-3.8574,-3.8574,-3.8574,-3.8574,-3.8574,-3.8574,-3.8302,-3.8009,-3.7862,-3.7715,-3.7549,-3.7402,-3.7107,-3.696,-3.696,-3.7107,-3.7107,-3.7255,-3.7549,-3.7696,-3.7843,-3.8009,-3.8136,-3.8282,-3.8428,-3.8428,-3.8282,-3.8136,-3.8009,-6.2415,-6.2415,-6.2415,-6.2415,-6.2381,-6.2144,-6.2042,-6.2042,-6.1772,-6.14,-6.0994,-6.0926,-6.0622,-6.0317,-6.0655,-6.0926,-6.0994,-6.14,-6.14,-6.0994,-6.0926,-6.1298,-6.1907,-6.2042,-6.2178,-6.2381,-6.2415,-6.2415,-6.2415,-6.2415,-6.2302,-6.1997,-6.179,-6.1499,-6.1086,-6.0666,-6.012,-5.9419,-5.8972,-5.8427,-5.7746,-5.737,-5.6892,-5.6244,-5.6077,-5.578,-5.5381,-5.5179,-5.5209,-5.5179,-5.4641,-5.389,-5.3107,-5.268,-5.2113,-5.1238,-5.0348,-4.967,-4.901,-4.8133,-4.7545,-4.7112,-4.6636,-4.6059,-4.5453,-4.5331,-4.4693,-4.3576,-4.2949,-4.2316,-4.1293,-4.0257,-3.9494,-3.921,-3.8274,-3.7903,-3.8147,-3.828,-3.8504,-3.8535,-3.8574,-3.8574,-3.8574,-3.8574,-3.8574,-3.8574,-3.8574,-3.8574,-3.8574,-3.8574,-3.8574,-3.8574,-3.8428,-3.8282,-3.8282,-3.8136,-3.8136,-3.7843,-3.7696,-3.7696,-3.7549,-3.7549,-3.7696,-3.7715,-3.799,-3.8136,-3.8282,-3.8428,-3.8428,-3.8574,-3.8574,-3.8574,-3.8574,-3.8428,-3.8302,-6.2415,-6.2415,-6.2415,-6.2415,-6.2415,-6.2415,-6.2415,-6.2415,-6.2415,-6.211,-6.1772,-6.1704,-6.1434,-6.1129,-6.1501,-6.1704,-6.1738,-6.2212,-6.2144,-6.1772,-6.1704,-6.1975,-6.2381,-6.2415,-6.2415,-6.2415,-6.2415,-6.2415,-6.2415,-6.2415,-6.2223,-6.1951,-6.179,-6.1383,-6.0919,-6.0581,-6.0033,-5.9241,-5.8792,-5.8243,-5.7559,-5.718,-5.6603,-5.6047,-5.588,-5.5581,-5.5179,-5.5209,-5.5209,-5.5078,-5.4641,-5.3993,-5.3319,-5.2894,-5.2221,-5.1348,-5.0572,-4.9897,-4.9125,-4.8341,-4.7637,-4.7231,-4.678,-4.618,-4.5453,-4.5331,-4.4693,-4.3576,-4.2949,-4.2316,-4.1444,-4.0519,-3.9797,-3.9486,-3.8697,-3.8384,-3.8708,-3.8675,-3.8535,-3.8574,-3.8574,-3.8574,-3.8574,-3.8574,-3.8574,-3.8574,-3.8574,-3.8574,-3.8574,-3.8574,-3.8574,-3.8574,-3.8574,-3.8574,-3.8574,-3.8574,-3.8574,-3.8428,-3.8136,-3.8136,-3.799,-3.799,-3.8136,-3.8136,-3.8282,-3.8428,-3.8428,-3.8574,-3.8574,-3.8574,-3.8574,-3.8574,-3.8574,-3.8574,-3.8428,-6.2415,-6.2415,-6.2415,-6.2415,-6.2415,-6.2415,-6.2415,-6.2415,-6.2415,-6.2347,-6.2347,-6.2279,-6.2313,-6.2347,-6.2245,-6.2279,-6.2381,-6.2347,-6.2381,-6.2313,-6.2313,-6.2347,-6.2381,-6.2415,-6.2415,-6.2415,-6.2415,-6.2415,-6.2415,-6.2415,-6.2144,-6.179,-6.1709,-6.1301,-6.0633,-6.0378,-5.9946,-5.9062,-5.8701,-5.815,-5.7495,-5.7019,-5.6537,-5.5979,-5.578,-5.5481,-5.528,-5.5209,-5.5179,-5.5078,-5.4641,-5.4097,-5.35,-5.3001,-5.225,-5.1458,-5.0767,-5.001,-4.924,-4.8548,-4.7821,-4.7205,-4.69,-4.6421,-4.5574,-4.5331,-4.4816,-4.3576,-4.3075,-4.2466,-4.1685,-4.0825,-4.0296,-3.9884,-3.9309,-3.8929,-3.9141,-3.8865,-3.8574,-3.8574,-3.8574,-3.8574,-3.8574,-3.8574,-3.8574,-3.8574,-3.8574,-3.8574,-3.8574,-3.8574,-3.8574,-3.8574,-3.8574,-3.8574,-3.8574,-3.8574,-3.8574,-3.8574,-3.8428,-3.8428,-3.8282,-3.8428,-3.8428,-3.8428,-3.8574,-3.8574,-3.8574,-3.8574,-3.8574,-3.8574,-3.8574,-3.8574,-3.8574,-3.8574,-3.8574,-6.2415,-6.2415,-6.2415,-6.2415,-6.2415,-6.2415,-6.2415,-6.2415,-6.2415,-6.2415,-6.2415,-6.2415,-6.2415,-6.2415,-6.2415,-6.2415,-6.2415,-6.2415,-6.2415,-6.2415,-6.2415,-6.2415,-6.2415,-6.2415,-6.2415,-6.2415,-6.2415,-6.2415,-6.2415,-6.2381,-6.2144,-6.1709,-6.1709,-6.1301,-6.0463,-6.0206,-5.9772,-5.8972,-5.8335,-5.7965,-5.7495,-5.6827,-5.6342,-5.5979,-5.578,-5.5481,-5.5179,-5.5209,-5.5078,-5.4905,-5.4539,-5.42,-5.3815,-5.3078,-5.2465,-5.1896,-5.1017,-5.0235,-4.9442,-4.8637,-4.7938,-4.7324,-4.7019,-4.6421,-4.5696,-4.5453,-4.4939,-4.4051,-4.3576,-4.2985,-4.2518,-4.1483,-4.0597,-3.9992,-3.961,-3.9131,-3.9161,-3.8865,-3.8574,-3.8574,-3.8574,-3.8574,-3.8574,-3.8574,-3.8574,-3.8574,-3.8574,-3.8574,-3.8574,-3.8574,-3.8574,-3.8574,-3.8574,-3.8574,-3.8574,-3.8574,-3.8574,-3.8574,-3.8574,-3.8574,-3.8574,-3.8574,-3.8574,-3.8574,-3.8574,-3.8574,-3.8574,-3.8574,-3.8574,-3.8574,-3.8574,-3.8574,-3.8574,-3.8574,-3.8574,-6.2415,-6.2415,-6.2415,-6.2415,-6.2415,-6.2415,-6.2415,-6.2415,-6.2415,-6.2415,-6.2415,-6.2415,-6.2415,-6.2415,-6.2415,-6.2415,-6.2415,-6.2415,-6.2415,-6.2415,-6.2415,-6.2415,-6.2415,-6.2415,-6.2415,-6.2415,-6.2415,-6.2415,-6.2381,-6.2268,-6.203,-6.1709,-6.1628,-6.1136,-6.0463,-6.0087,-5.9652,-5.8972,-5.8243,-5.7778,-5.7495,-5.6634,-5.6274,-5.5979,-5.5681,-5.528,-5.5209,-5.5209,-5.5108,-5.4875,-5.4539,-5.42,-5.3993,-5.3184,-5.2573,-5.225,-5.1238,-5.0348,-4.967,-4.8983,-4.8198,-4.7493,-4.7163,-4.6686,-4.6109,-4.5624,-4.511,-4.4635,-4.4033,-4.3659,-4.3303,-4.2303,-4.1402,-4.0738,-4.0124,-3.9739,-3.9445,-3.9176,-3.872,-3.872,-3.8574,-3.8574,-3.8574,-3.8574,-3.8574,-3.8574,-3.8574,-3.8574,-3.8574,-3.8574,-3.8574,-3.8574,-3.8574,-3.8574,-3.8574,-3.8574,-3.8574,-3.8574,-3.8574,-3.8574,-3.8574,-3.8574,-3.8574,-3.8574,-3.8574,-3.8574,-3.8574,-3.8574,-3.8574,-3.8574,-3.8574,-3.8574,-3.8574,-3.8574,-3.8574,-6.2415,-6.2415,-6.2415,-6.2415,-6.2415,-6.2415,-6.2415,-6.2415,-6.2415,-6.2415,-6.2415,-6.2415,-6.2415,-6.2415,-6.2415,-6.2415,-6.2415,-6.2415,-6.2415,-6.2415,-6.2415,-6.2415,-6.2415,-6.2415,-6.2415,-6.2415,-6.2415,-6.2415,-6.2381,-6.2189,-6.1917,-6.1709,-6.1465,-6.1053,-6.0463,-6.0087,-5.9684,-5.8972,-5.8243,-5.7778,-5.7401,-5.6537,-5.6077,-5.5979,-5.5481,-5.528,-5.5209,-5.5209,-5.5209,-5.5209,-5.4641,-5.4304,-5.42,-5.329,-5.268,-5.225,-5.1458,-5.0572,-4.9783,-4.9354,-4.869,-4.7899,-4.7427,-4.7121,-4.6552,-4.6018,-4.5699,-4.544,-4.4706,-4.4325,-4.3854,-4.3107,-4.2391,-4.1763,-4.1226,-4.0555,-4.0002,-3.9445,-3.903,-3.872,-3.872,-3.8574,-3.8574,-3.8574,-3.8574,-3.8574,-3.8574,-3.8574,-3.8574,-3.8574,-3.8574,-3.8574,-3.8574,-3.8574,-3.8574,-3.8574,-3.8574,-3.8574,-3.8574,-3.8574,-3.8574,-3.8574,-3.8574,-3.8574,-3.8574,-3.8574,-3.8574,-3.8574,-3.8574,-3.8574,-3.8574,-3.8574,-3.8574,-3.8574,-3.8574,-6.2415,-6.2415,-6.2415,-6.2415,-6.2415,-6.2415,-6.2415,-6.2415,-6.2415,-6.2415,-6.2415,-6.2415,-6.2415,-6.2415,-6.2415,-6.2415,-6.2415,-6.2415,-6.2415,-6.2415,-6.2415,-6.2415,-6.2415,-6.2415,-6.2415,-6.2415,-6.2415,-6.2415,-6.2302,-6.211,-6.1917,-6.1709,-6.1383,-6.1053,-6.0463,-5.9946,-5.954,-5.8914,-5.8058,-5.759,-5.7306,-5.6537,-5.5979,-5.588,-5.5481,-5.5179,-5.5209,-5.5209,-5.5209,-5.5078,-5.4641,-5.4304,-5.4097,-5.35,-5.2894,-5.2465,-5.1706,-5.0934,-5.0375,-4.9664,-4.8779,-4.8186,-4.7931,-4.7656,-4.7293,-4.7084,-4.681,-4.6504,-4.5869,-4.5184,-4.4336,-4.378,-4.3222,-4.2656,-4.1855,-4.1188,-4.0596,-3.9734,-3.9321,-3.903,-3.872,-3.8574,-3.8574,-3.8574,-3.8574,-3.8574,-3.8574,-3.8574,-3.8574,-3.8574,-3.8574,-3.8574,-3.8574,-3.8574,-3.8574,-3.8574,-3.8574,-3.8574,-3.8574,-3.8574,-3.8574,-3.8574,-3.8574,-3.8574,-3.8574,-3.8574,-3.8574,-3.8574,-3.8574,-3.8574,-3.8574,-3.8574,-3.8574,-3.8574,-3.8574,-6.2415,-6.2415,-6.2415,-6.2415,-6.2415,-6.2415,-6.2415,-6.2415,-6.2415,-6.2415,-6.2415,-6.2415,-6.2415,-6.2415,-6.2415,-6.2415,-6.2415,-6.2415,-6.2415,-6.2415,-6.2415,-6.2415,-6.2415,-6.2415,-6.2415,-6.2415,-6.2415,-6.2415,-6.2302,-6.203,-6.179,-6.1628,-6.1301,-6.0886,-6.0378,-5.9859,-5.9331,-5.8882,-5.8058,-5.7495,-5.7401,-5.6537,-5.578,-5.5681,-5.5381,-5.5209,-5.5209,-5.5209,-5.5209,-5.5078,-5.4773,-5.4436,-5.42,-5.3605,-5.3107,-5.268,-5.2315,-5.1655,-5.0925,-5.0459,-4.9611,-4.8288,-4.8421,-4.8487,-4.8222,-4.7883,-4.7431,-4.7248,-4.6577,-4.5812,-4.4953,-4.4687,-4.409,-4.3141,-4.2581,-4.2039,-4.1188,-4.033,-3.961,-3.9321,-3.903,-3.872,-3.872,-3.872,-3.8574,-3.8574,-3.8574,-3.8574,-3.8574,-3.8574,-3.8574,-3.8574,-3.8574,-3.8574,-3.8574,-3.8574,-3.8574,-3.8574,-3.8574,-3.8574,-3.8574,-3.8574,-3.8574,-3.8574,-3.8574,-3.8574,-3.8574,-3.8574,-3.8574,-3.8574,-3.8574,-3.8574,-3.8574,-3.8574,-3.8574,-6.2415,-6.2415,-6.2415,-6.2415,-6.2415,-6.2415,-6.2415,-6.2415,-6.2415,-6.2415,-6.2415,-6.2415,-6.2415,-6.2415,-6.2415,-6.2415,-6.2415,-6.2415,-6.2415,-6.2415,-6.2415,-6.2415,-6.2415,-6.2415,-6.2415,-6.2415,-6.2415,-6.2415,-6.2302,-6.1951,-6.1709,-6.1628,-6.1136,-6.0717,-6.0292,-5.9772,-5.9241,-5.8882,-5.8058,-5.7495,-5.7306,-5.6537,-5.578,-5.5381,-5.531,-5.5209,-5.5209,-5.5209,-5.5209,-5.5179,-5.5006,-5.4671,-5.4333,-5.3815,-5.3405,-5.293,-5.2735,-5.2324,-5.1756,-5.1278,-5.0445,-4.867,-4.8891,-4.9251,-4.9183,-4.8636,-4.8181,-4.7715,-4.7264,-4.6442,-4.5661,-4.5187,-4.464,-4.3836,-4.328,-4.2743,-4.1898,-4.1025,-4.031,-3.961,-3.9301,-3.9156,-3.8865,-3.8739,-3.872,-3.8574,-3.8574,-3.8574,-3.8574,-3.8574,-3.8574,-3.8574,-3.8574,-3.8574,-3.8574,-3.8574,-3.8574,-3.8574,-3.8574,-3.8574,-3.8574,-3.8574,-3.8574,-3.8574,-3.8574,-3.8574,-3.8574,-3.8574,-3.8574,-3.8574,-3.8574,-3.8574,-3.8574,-3.8574,-3.8574,-6.2415,-6.2415,-6.2415,-6.2415,-6.2415,-6.2415,-6.2415,-6.2415,-6.2415,-6.2415,-6.2415,-6.2415,-6.2415,-6.2415,-6.2415,-6.2415,-6.2415,-6.2415,-6.2415,-6.2415,-6.2415,-6.2415,-6.2415,-6.2415,-6.2415,-6.2415,-6.2415,-6.2415,-6.2302,-6.1951,-6.1709,-6.1662,-6.1252,-6.0835,-6.0378,-5.9859,-5.9331,-5.8882,-5.8058,-5.7495,-5.7306,-5.6537,-5.578,-5.528,-5.5209,-5.5209,-5.5209,-5.5209,-5.5209,-5.5179,-5.5179,-5.4875,-5.4495,-5.4081,-5.3791,-5.3417,-5.3295,-5.3079,-5.2536,-5.1774,-5.1186,-5.0472,-5.0167,-4.9837,-4.9768,-4.952,-4.9163,-4.8645,-4.7962,-4.7136,-4.6808,-4.6025,-4.5324,-4.464,-4.3974,-4.3141,-4.2721,-4.2159,-4.131,-4.0453,-4.0022,-3.9445,-3.9301,-3.9011,-3.9011,-3.8865,-3.872,-3.872,-3.872,-3.872,-3.8574,-3.8574,-3.8574,-3.8574,-3.8574,-3.8574,-3.8574,-3.8574,-3.8574,-3.8574,-3.8574,-3.8574,-3.8574,-3.872,-3.872,-3.8574,-3.8574,-3.8574,-3.8574,-3.8574,-3.8574,-3.8574,-3.8574,-3.8574,-3.8574,-6.2415,-6.2415,-6.2415,-6.2415,-6.2415,-6.2415,-6.2415,-6.2415,-6.2415,-6.2415,-6.2415,-6.2415,-6.2415,-6.2415,-6.2415,-6.2415,-6.2415,-6.2415,-6.2415,-6.2415,-6.2415,-6.2415,-6.2415,-6.2415,-6.2415,-6.2415,-6.2415,-6.2415,-6.2381,-6.187,-6.1709,-6.1547,-6.1169,-6.075,-6.0292,-5.9772,-5.9331,-5.8792,-5.8058,-5.7495,-5.7401,-5.6537,-5.578,-5.5381,-5.5209,-5.5209,-5.5209,-5.5209,-5.5209,-5.5209,-5.5179,-5.5155,-5.5026,-5.4789,-5.438,-5.4115,-5.4084,-5.398,-5.3573,-5.2951,-5.2485,-5.1762,-5.1294,-5.068,-5.0229,-5.0028,-4.9847,-4.9072,-4.842,-4.763,-4.7232,-4.6563,-4.6001,-4.5324,-4.464,-4.3974,-4.3419,-4.2861,-4.2159,-4.1452,-4.0882,-4.0289,-3.957,-3.9445,-3.9301,-3.9156,-3.9011,-3.8865,-3.8865,-3.8865,-3.872,-3.872,-3.872,-3.87,-3.87,-3.87,-3.872,-3.872,-3.872,-3.872,-3.872,-3.8865,-3.8865,-3.903,-3.8885,-3.872,-3.8574,-3.8574,-3.8574,-3.8574,-3.872,-3.872,-3.8574,-3.8574,-3.872,-6.2415,-6.2415,-6.2415,-6.2415,-6.2415,-6.2415,-6.2415,-6.2415,-6.2415,-6.2415,-6.2415,-6.2415,-6.2415,-6.2415,-6.2415,-6.2415,-6.2415,-6.2415,-6.2415,-6.2415,-6.2415,-6.2415,-6.2415,-6.2415,-6.2415,-6.2415,-6.2415,-6.2415,-6.2302,-6.1951,-6.179,-6.1628,-6.1136,-6.0633,-6.0292,-5.9772,-5.9331,-5.8792,-5.8058,-5.7464,-5.7019,-5.6439,-5.578,-5.528,-5.5209,-5.5209,-5.5209,-5.5209,-5.5209,-5.5239,-5.5359,-5.5526,-5.5664,-5.5677,-5.54,-5.4931,-5.5217,-5.497,-5.4618,-5.4047,-5.3402,-5.2727,-5.2041,-5.1471,-5.0867,-5.0334,-4.9847,-4.9202,-4.8682,-4.8026,-4.763,-4.7232,-4.6697,-4.6025,-4.546,-4.5051,-4.425,-4.3697,-4.3141,-4.2441,-4.1735,-4.1004,-4.0433,-4.0002,-4.0002,-3.957,-3.9301,-3.9301,-3.9301,-3.9156,-3.9011,-3.8991,-3.8846,-3.8806,-3.8806,-3.8971,-3.8991,-3.9156,-3.9156,-3.9136,-3.9156,-3.9156,-3.9156,-3.9301,-3.9156,-3.9011,-3.8865,-3.87,-3.8806,-3.8806,-3.8846,-3.8865,-3.9011,-3.9011,-3.9156,-6.2415,-6.2415,-6.2415,-6.2415,-6.2415,-6.2415,-6.2415,-6.2415,-6.2415,-6.2415,-6.2415,-6.2415,-6.2415,-6.2415,-6.2415,-6.2415,-6.2415,-6.2415,-6.2415,-6.2415,-6.2415,-6.2415,-6.2415,-6.2415,-6.2415,-6.2415,-6.2415,-6.2415,-6.2302,-6.211,-6.187,-6.1628,-6.1383,-6.0969,-6.0378,-5.9859,-5.9419,-5.8882,-5.8058,-5.7115,-5.6342,-5.6077,-5.5681,-5.5381,-5.5209,-5.5209,-5.5209,-5.5209,-5.5209,-5.5239,-5.5748,-5.5944,-5.5902,-5.6563,-5.6682,-5.6391,-5.5929,-5.5424,-5.5243,-5.4588,-5.4008,-5.3335,-5.2545,-5.1951,-5.1198,-5.0538,-4.9847,-4.9202,-4.8942,-4.8682,-4.8158,-4.763,-4.7232,-4.6697,-4.6001,-4.5595,-4.5051,-4.4388,-4.3836,-4.3558,-4.284,-4.1997,-4.1167,-4.0862,-4.0576,-4.0002,-3.9714,-3.9714,-3.957,-3.9425,-3.9281,-3.9281,-3.9281,-3.9116,-3.9096,-3.9116,-3.9445,-3.9465,-3.9425,-3.9425,-3.9425,-3.9445,-3.957,-3.9714,-3.957,-3.9714,-3.9714,-3.9674,-3.9181,-3.9221,-3.9321,-3.9465,-3.957,-3.957,-3.9425,-6.2415,-6.2415,-6.2415,-6.2415,-6.2415,-6.2415,-6.2415,-6.2415,-6.2415,-6.2415,-6.2415,-6.2415,-6.2415,-6.2415,-6.2415,-6.2415,-6.2415,-6.2415,-6.2415,-6.2415,-6.2415,-6.2415,-6.2415,-6.2415,-6.2415,-6.2415,-6.2415,-6.2415,-6.2302,-6.211,-6.1917,-6.1709,-6.1465,-6.1053,-6.0463,-5.9946,-5.9508,-5.8882,-5.8058,-5.7019,-5.6244,-5.5979,-5.578,-5.5209,-5.5209,-5.5209,-5.5209,-5.5209,-5.5209,-5.5299,-5.5807,-5.6436,-5.681,-5.7238,-5.7478,-5.7563,-5.6897,-5.628,-5.5789,-5.5026,-5.4369,-5.3673,-5.2791,-5.2023,-5.1198,-5.0538,-5.0001,-4.9461,-4.9202,-4.8942,-4.8551,-4.8158,-4.763,-4.7232,-4.6563,-4.6271,-4.5866,-4.5187,-4.4663,-4.4388,-4.3974,-4.3119,-4.2278,-4.1855,-4.1573,-4.1147,-4.0576,-4.0453,-4.0146,-3.9858,-3.9714,-3.957,-3.957,-3.955,-3.955,-3.955,-3.9939,-4.0104,-3.9734,-3.9734,-3.9714,-3.9858,-4.0146,-4.0433,-4.0596,-4.074,-4.0719,-4.0249,-3.9654,-3.9858,-4.0104,-4.0063,-4.0187,-3.9858,-3.9714,-6.2415,-6.2415,-6.2415,-6.2415,-6.2415,-6.2415,-6.2415,-6.2415,-6.2415,-6.2415,-6.2415,-6.2415,-6.2415,-6.2415,-6.2415,-6.2415,-6.2415,-6.2415,-6.2415,-6.2415,-6.2415,-6.2415,-6.2415,-6.2415,-6.2415,-6.2415,-6.2415,-6.2415,-6.2381,-6.2189,-6.203,-6.1709,-6.1547,-6.1053,-6.0463,-5.9946,-5.9476,-5.861,-5.7871,-5.7019,-5.6176,-5.5979,-5.5681,-5.5381,-5.5209,-5.5209,-5.5209,-5.5209,-5.5209,-5.5317,-5.6047,-5.6795,-5.7513,-5.7791,-5.7942,-5.7937,-5.7552,-5.702,-5.6279,-5.5496,-5.4699,-5.3861,-5.2834,-5.1793,-5.1094,-5.0487,-5.0129,-4.9719,-4.9461,-4.9202,-4.9072,-4.8551,-4.8289,-4.7762,-4.7364,-4.6965,-4.6697,-4.6025,-4.5483,-4.5074,-4.48,-4.4388,-4.3675,-4.2979,-4.2559,-4.2159,-4.1735,-4.131,-4.0862,-4.0576,-4.0576,-4.0576,-4.0576,-4.0392,-4.0187,-4.0249,-4.0658,-4.072,-4.0494,-4.0453,-4.0576,-4.0719,-4.0882,-4.1167,-4.1473,-4.1452,-4.1431,-4.0698,-4.0269,-4.0596,-4.0944,-4.0801,-4.0638,-4.031,-4.0289,-6.2415,-6.2415,-6.2415,-6.2415,-6.2415,-6.2415,-6.2415,-6.2415,-6.2415,-6.2415,-6.2415,-6.2415,-6.2415,-6.2415,-6.2415,-6.2415,-6.2415,-6.2415,-6.2415,-6.2415,-6.2415,-6.2415,-6.2415,-6.2415,-6.2415,-6.2415,-6.2415,-6.2415,-6.2415,-6.2381,-6.2064,-6.1709,-6.1628,-6.1136,-6.0548,-5.9914,-5.912,-5.8335,-5.7684,-5.7019,-5.6372,-5.5979,-5.578,-5.5381,-5.5209,-5.5209,-5.5209,-5.5269,-5.5418,-5.5424,-5.6422,-5.7274,-5.7962,-5.8316,-5.8515,-5.8276,-5.8003,-5.7445,-5.6766,-5.5961,-5.5228,-5.4156,-5.3105,-5.1891,-5.132,-5.0842,-5.0487,-5.0129,-4.9719,-4.9461,-4.9202,-4.8942,-4.8682,-4.842,-4.7894,-4.7654,-4.7232,-4.6697,-4.6294,-4.589,-4.5483,-4.5187,-4.4937,-4.4228,-4.3419,-4.3001,-4.2581,-4.2159,-4.1997,-4.1714,-4.1714,-4.1714,-4.1714,-4.1509,-4.108,-4.1305,-4.1756,-4.182,-4.1756,-4.1735,-4.1714,-4.1877,-4.1855,-4.2018,-4.2321,-4.2159,-4.2138,-4.1834,-4.1834,-4.1877,-4.1919,-4.1657,-4.1494,-4.131,-4.1289,-6.2415,-6.2415,-6.2415,-6.2415,-6.2415,-6.2415,-6.2415,-6.2415,-6.2415,-6.2415,-6.2415,-6.2415,-6.2415,-6.2415,-6.2415,-6.2415,-6.2415,-6.2415,-6.2415,-6.2415,-6.2415,-6.2415,-6.2415,-6.2415,-6.2415,-6.2415,-6.2415,-6.2415,-6.2415,-6.2415,-6.2144,-6.179,-6.1709,-6.1136,-6.0548,-5.9772,-5.885,-5.815,-5.759,-5.7019,-5.647,-5.6077,-5.578,-5.5481,-5.531,-5.5209,-5.5239,-5.5628,-5.5837,-5.6286,-5.7154,-5.7812,-5.8428,-5.8782,-5.8743,-5.8445,-5.8225,-5.7781,-5.7107,-5.6308,-5.5289,-5.4129,-5.32,-5.2535,-5.1846,-5.1346,-5.0842,-5.0359,-4.9976,-4.9719,-4.9461,-4.9202,-4.8942,-4.8812,-4.8576,-4.8182,-4.7918,-4.7364,-4.7098,-4.6831,-4.6405,-4.6001,-4.5731,-4.546,-4.4663,-4.3836,-4.3419,-4.3001,-4.284,-4.27,-4.27,-4.27,-4.27,-4.2721,-4.229,-4.2495,-4.2883,-4.2883,-4.2905,-4.2861,-4.284,-4.27,-4.27,-4.2861,-4.3141,-4.3141,-4.3258,-4.3258,-4.3119,-4.2581,-4.2343,-4.2082,-4.2061,-4.2159,-4.23,-6.2415,-6.2415,-6.2415,-6.2415,-6.2415,-6.2415,-6.2415,-6.2415,-6.2415,-6.2415,-6.2415,-6.2415,-6.2415,-6.2415,-6.2415,-6.2415,-6.2415,-6.2415,-6.2415,-6.2415,-6.2415,-6.2415,-6.2415,-6.2415,-6.2415,-6.2415,-6.2415,-6.2415,-6.2415,-6.2415,-6.2144,-6.179,-6.1628,-6.1219,-6.0463,-5.9596,-5.8792,-5.8243,-5.7684,-5.718,-5.6537,-5.6176,-5.588,-5.5581,-5.528,-5.5388,-5.5568,-5.5927,-5.6406,-5.6915,-5.7633,-5.8398,-5.8817,-5.9087,-5.8991,-5.8664,-5.8445,-5.8085,-5.7445,-5.6423,-5.5379,-5.4314,-5.374,-5.2956,-5.2368,-5.1846,-5.122,-5.0715,-5.0487,-5.0104,-4.9847,-4.959,-4.9461,-4.9202,-4.8942,-4.8706,-4.8445,-4.8182,-4.7918,-4.7786,-4.7232,-4.6808,-4.654,-4.6294,-4.5483,-4.4663,-4.4112,-4.3836,-4.3558,-4.3419,-4.3536,-4.3536,-4.3536,-4.3558,-4.3558,-4.3558,-4.358,-4.3742,-4.3742,-4.3697,-4.3675,-4.3653,-4.3791,-4.3952,-4.425,-4.4388,-4.4388,-4.4343,-4.3675,-4.3001,-4.3023,-4.3045,-4.3045,-4.3141,-4.3001,-6.2415,-6.2415,-6.2415,-6.2415,-6.2415,-6.2415,-6.2415,-6.2415,-6.2415,-6.2415,-6.2415,-6.2415,-6.2415,-6.2415,-6.2415,-6.2415,-6.2415,-6.2415,-6.2415,-6.2415,-6.2415,-6.2415,-6.2415,-6.2415,-6.2415,-6.2415,-6.2415,-6.2415,-6.2415,-6.2415,-6.2144,-6.179,-6.1547,-6.1301,-6.0633,-5.9772,-5.9062,-5.8518,-5.784,-5.718,-5.673,-5.6244,-5.588,-5.5832,-5.5561,-5.5598,-5.6077,-5.6406,-5.6915,-5.7497,-5.8022,-5.856,-5.8979,-5.9069,-5.8991,-5.8773,-5.8694,-5.8364,-5.7781,-5.6423,-5.5496,-5.4762,-5.4166,-5.3416,-5.2983,-5.2368,-5.1596,-5.122,-5.0968,-5.0487,-5.0232,-5.0001,-4.9847,-4.959,-4.9357,-4.9072,-4.8967,-4.8706,-4.8576,-4.8313,-4.8158,-4.7762,-4.7364,-4.6831,-4.616,-4.5483,-4.4937,-4.4663,-4.4388,-4.4388,-4.4503,-4.4503,-4.4503,-4.4526,-4.4663,-4.4388,-4.4411,-4.4593,-4.4731,-4.4663,-4.4778,-4.4914,-4.5051,-4.5187,-4.5187,-4.521,-4.5187,-4.5324,-4.4778,-4.4228,-4.4112,-4.4135,-4.4135,-4.4112,-4.3974,-6.2415,-6.2415,-6.2415,-6.2415,-6.2415,-6.2415,-6.2415,-6.2415,-6.2415,-6.2415,-6.2415,-6.2415,-6.2415,-6.2415,-6.2415,-6.2415,-6.2415,-6.2415,-6.2415,-6.2415,-6.2415,-6.2415,-6.2415,-6.2415,-6.2415,-6.2415,-6.2415,-6.2415,-6.2415,-6.2415,-6.2144,-6.179,-6.1383,-6.0969,-6.0463,-5.9684,-5.9062,-5.861,-5.7965,-5.7306,-5.6892,-5.6372,-5.6191,-5.6325,-5.5981,-5.6137,-5.6765,-5.7064,-5.7603,-5.8005,-5.8441,-5.883,-5.9069,-5.9099,-5.9099,-5.8882,-5.8803,-5.8445,-5.781,-5.6937,-5.6278,-5.5351,-5.4414,-5.3697,-5.3295,-5.2983,-5.2368,-5.1721,-5.1471,-5.0968,-5.0588,-5.0232,-4.9976,-4.9873,-4.9744,-4.9461,-4.9332,-4.9072,-4.8812,-4.8837,-4.8551,-4.8445,-4.805,-4.7786,-4.7098,-4.6697,-4.6294,-4.5866,-4.5731,-4.5731,-4.5731,-4.5731,-4.5731,-4.5754,-4.5754,-4.5619,-4.5483,-4.5642,-4.5777,-4.589,-4.5866,-4.6001,-4.6136,-4.6136,-4.6136,-4.6001,-4.6136,-4.6136,-4.6001,-4.5731,-4.5483,-4.521,-4.4937,-4.4937,-4.4914,-6.2618,-6.2415,-6.2415,-6.2415,-6.2415,-6.2415,-6.2415,-6.2415,-6.2415,-6.2415,-6.2415,-6.2415,-6.2415,-6.2415,-6.2415,-6.2415,-6.2415,-6.2415,-6.2415,-6.2415,-6.2415,-6.2415,-6.2415,-6.2415,-6.2415,-6.2415,-6.2415,-6.2415,-6.2415,-6.2415,-6.2144,-6.1709,-6.1252,-6.0919,-6.0378,-5.9772,-5.9241,-5.8701,-5.8058,-5.7401,-5.7081,-5.6782,-5.6525,-5.6658,-5.6654,-5.6795,-5.7363,-5.7842,-5.8231,-5.8501,-5.88,-5.9099,-5.9099,-5.9099,-5.9099,-5.8991,-5.8773,-5.8445,-5.8033,-5.7503,-5.6823,-5.6077,-5.4921,-5.424,-5.3926,-5.347,-5.2983,-5.2465,-5.197,-5.1471,-5.1094,-5.0614,-5.0359,-5.0385,-5.0104,-4.9976,-4.9719,-4.9461,-4.9332,-4.9227,-4.9202,-4.8967,-4.8837,-4.8576,-4.8182,-4.7894,-4.763,-4.7232,-4.6941,-4.6808,-4.6808,-4.6831,-4.6831,-4.6697,-4.6697,-4.6697,-4.6674,-4.6808,-4.6808,-4.6831,-4.7098,-4.7098,-4.7098,-4.7098,-4.7232,-4.7232,-4.7232,-4.7232,-4.7098,-4.6965,-4.6965,-4.6405,-4.5866,-4.5731,-4.5731,-6.3091,-6.2448,-6.2415,-6.2415,-6.2415,-6.2415,-6.2415,-6.2415,-6.2415,-6.2415,-6.2415,-6.2415,-6.2415,-6.2415,-6.2415,-6.2415,-6.2415,-6.2415,-6.2415,-6.2415,-6.2415,-6.2415,-6.2415,-6.2415,-6.2415,-6.2415,-6.2415,-6.2415,-6.2415,-6.2223,-6.2064,-6.1709,-6.1334,-6.0835,-6.0378,-5.9989,-5.9516,-5.8855,-5.8247,-5.7777,-5.7521,-5.7273,-5.7142,-5.7202,-5.7256,-5.7588,-5.7962,-5.8291,-5.859,-5.883,-5.9099,-5.9099,-5.9099,-5.9099,-5.9099,-5.8991,-5.8882,-5.8555,-5.8225,-5.7669,-5.722,-5.6623,-5.6049,-5.5379,-5.4699,-5.4101,-5.3592,-5.3227,-5.2738,-5.2218,-5.1596,-5.1346,-5.0994,-5.0741,-5.0614,-5.0359,-5.0129,-5.0001,-4.9847,-4.9847,-4.9719,-4.959,-4.9332,-4.9202,-4.9227,-4.9072,-4.8812,-4.8526,-4.8133,-4.763,-4.763,-4.7497,-4.7497,-4.7497,-4.7497,-4.7497,-4.7497,-4.7497,-4.763,-4.7762,-4.8026,-4.8026,-4.7894,-4.7918,-4.8313,-4.8313,-4.805,-4.805,-4.8313,-4.8182,-4.7918,-4.763,-4.6941,-4.6808,-4.6697,-6.3396,-6.3125,-6.2618,-6.2415,-6.2415,-6.2415,-6.2415,-6.2415,-6.2415,-6.2415,-6.2415,-6.2415,-6.2415,-6.2415,-6.2415,-6.2415,-6.2415,-6.2415,-6.2415,-6.2415,-6.2415,-6.2415,-6.2415,-6.2415,-6.2415,-6.2415,-6.2415,-6.2415,-6.2302,-6.2144,-6.187,-6.1628,-6.1351,-6.0901,-6.0672,-6.0434,-5.9806,-5.9234,-5.8531,-5.8277,-5.8111,-5.7817,-5.7943,-5.7989,-5.7948,-5.8171,-5.856,-5.874,-5.8949,-5.9039,-5.9099,-5.9099,-5.9099,-5.9099,-5.9099,-5.9099,-5.8882,-5.8664,-5.8415,-5.7768,-5.7295,-5.7274,-5.6851,-5.6164,-5.5496,-5.479,-5.4314,-5.3833,-5.3349,-5.2738,-5.2218,-5.1846,-5.1622,-5.1346,-5.1094,-5.0867,-5.0741,-5.0487,-5.0487,-5.0359,-5.0206,-5.0206,-4.995,-5.0104,-5.0104,-5.0104,-4.9976,-4.9694,-4.9436,-4.8812,-4.8551,-4.842,-4.842,-4.842,-4.8445,-4.8313,-4.8313,-4.8313,-4.8576,-4.8576,-4.8576,-4.8706,-4.8576,-4.8706,-4.8967,-4.8837,-4.8445,-4.8706,-4.8967,-4.8706,-4.8445,-4.8313,-4.805,-4.7762,-4.763,-6.3768,-6.3429,-6.2719,-6.2415,-6.2415,-6.2415,-6.2415,-6.2415,-6.2415,-6.2415,-6.2415,-6.2415,-6.2415,-6.2415,-6.2415,-6.2415,-6.2415,-6.2415,-6.2415,-6.2415,-6.2415,-6.2415,-6.2415,-6.2415,-6.2415,-6.2415,-6.2415,-6.2415,-6.2336,-6.2018,-6.1776,-6.213,-6.1767,-6.1462,-6.1328,-6.1215,-6.0677,-5.9972,-5.9381,-5.9061,-5.8789,-5.8592,-5.8632,-5.8819,-5.8504,-5.874,-5.9009,-5.9099,-5.9099,-5.9099,-5.9099,-5.9099,-5.9099,-5.9099,-5.9099,-5.9099,-5.8991,-5.8773,-5.8664,-5.8356,-5.7996,-5.7693,-5.747,-5.6907,-5.6279,-5.5613,-5.4998,-5.4524,-5.3954,-5.3349,-5.2861,-5.2492,-5.2218,-5.197,-5.1721,-5.1346,-5.122,-5.1094,-5.0968,-5.0842,-5.0842,-5.0842,-5.0842,-5.0968,-5.0968,-5.0968,-5.0842,-5.0842,-5.0461,-4.995,-4.9694,-4.9565,-4.9461,-4.9461,-4.9332,-4.9227,-4.9332,-4.9332,-4.959,-4.959,-4.9332,-4.9332,-4.959,-4.9461,-4.9461,-4.9332,-4.9332,-4.9461,-4.959,-4.9357,-4.9227,-4.9332,-4.9072,-4.8576,-4.8445,-6.4275,-6.3565,-6.2719,-6.2415,-6.2415,-6.2415,-6.2415,-6.2415,-6.2415,-6.2415,-6.2415,-6.2415,-6.2415,-6.2415,-6.2415,-6.2415,-6.2415,-6.2415,-6.2415,-6.2415,-6.2415,-6.2415,-6.2415,-6.2415,-6.2415,-6.2415,-6.2415,-6.2415,-6.2336,-6.2232,-6.2393,-6.2732,-6.2498,-6.2273,-6.2179,-6.2028,-6.1607,-6.0991,-6.0359,-5.9965,-5.9601,-5.9236,-5.894,-5.9062,-5.9001,-5.9099,-5.9099,-5.9099,-5.9099,-5.9099,-5.9099,-5.9099,-5.9099,-5.9099,-5.9099,-5.9099,-5.9099,-5.8991,-5.8912,-5.8803,-5.8584,-5.8195,-5.7745,-5.747,-5.6964,-5.6308,-5.5729,-5.5144,-5.4552,-5.4074,-5.3592,-5.32,-5.2956,-5.2711,-5.2492,-5.2094,-5.1846,-5.1721,-5.1596,-5.1471,-5.1471,-5.1596,-5.1596,-5.1721,-5.1721,-5.1721,-5.1721,-5.1721,-5.1471,-5.1094,-5.0842,-5.0715,-5.0461,-5.0334,-5.0359,-5.0232,-5.0334,-5.0461,-5.0461,-5.0334,-4.9976,-5.0232,-5.0588,-5.0359,-4.9976,-5.0232,-5.0334,-5.0232,-5.0232,-5.0232,-5.0232,-5.0461,-5.0104,-4.959,-4.9357,-6.4986,-6.4208,-6.2922,-6.2415,-6.2415,-6.2415,-6.2415,-6.2415,-6.2415,-6.2415,-6.2415,-6.2415,-6.2415,-6.2415,-6.2415,-6.2415,-6.2415,-6.2415,-6.2415,-6.2415,-6.2415,-6.2415,-6.2415,-6.2415,-6.2415,-6.2415,-6.2415,-6.2448,-6.2505,-6.2683,-6.281,-6.2915,-6.2982,-6.312,-6.2802,-6.2737,-6.2506,-6.1916,-6.1435,-6.0845,-6.0391,-6.0045,-5.9773,-5.9562,-5.9452,-5.9099,-5.9099,-5.9099,-5.9099,-5.9099,-5.9099,-5.9099,-5.9099,-5.9099,-5.9099,-5.9099,-5.9099,-5.8991,-5.9021,-5.905,-5.8942,-5.8753,-5.8474,-5.8143,-5.7698,-5.6993,-5.6308,-5.5729,-5.5144,-5.479,-5.4433,-5.3954,-5.3565,-5.3349,-5.3227,-5.2861,-5.2615,-5.2492,-5.2342,-5.2342,-5.2245,-5.2368,-5.2342,-5.2342,-5.2342,-5.2342,-5.2342,-5.2342,-5.2465,-5.2218,-5.197,-5.1721,-5.1346,-5.122,-5.122,-5.112,-5.1094,-5.0968,-5.0842,-5.0715,-5.0715,-5.0842,-5.1094,-5.0715,-5.0588,-5.0842,-5.0968,-5.0588,-5.0588,-5.0842,-5.0968,-5.1094,-5.0968,-5.0487,-5.0359,-6.5459,-6.4918,-6.3497,-6.2685,-6.2415,-6.2415,-6.2415,-6.2415,-6.2415,-6.2415,-6.2415,-6.2415,-6.2415,-6.2415,-6.2415,-6.2415,-6.2415,-6.2415,-6.2415,-6.2415,-6.2415,-6.2415,-6.2415,-6.2415,-6.2415,-6.2415,-6.2415,-6.2516,-6.2854,-6.302,-6.3228,-6.3651,-6.4,-6.3868,-6.3514,-6.361,-6.3311,-6.262,-6.2323,-6.1734,-6.0989,-6.0578,-6.0092,-5.988,-5.956,-5.9315,-5.9099,-5.9099,-5.9099,-5.9099,-5.9099,-5.9099,-5.9099,-5.9099,-5.9099,-5.9099,-5.9099,-5.9099,-5.9099,-5.9099,-5.9021,-5.8942,-5.8952,-5.8593,-5.8254,-5.7557,-5.6993,-5.6423,-5.5845,-5.5379,-5.5026,-5.4671,-5.4314,-5.4074,-5.3981,-5.374,-5.347,-5.3349,-5.3349,-5.3349,-5.3349,-5.3349,-5.347,-5.3592,-5.3592,-5.3592,-5.347,-5.347,-5.347,-5.3322,-5.3078,-5.2834,-5.2588,-5.2218,-5.197,-5.1846,-5.1846,-5.1596,-5.1471,-5.1596,-5.1721,-5.1596,-5.1471,-5.1471,-5.1471,-5.1596,-5.1596,-5.132,-5.1471,-5.1721,-5.1721,-5.1596,-5.1596,-5.1596,-5.1596,-6.5797,-6.5493,-6.4106,-6.3159,-6.255,-6.2415,-6.2415,-6.2415,-6.2415,-6.2415,-6.2415,-6.2415,-6.2415,-6.2415,-6.2415,-6.2415,-6.2415,-6.2415,-6.2415,-6.2415,-6.2415,-6.2415,-6.2415,-6.2415,-6.2415,-6.2482,-6.2584,-6.2956,-6.3396,-6.3708,-6.4285,-6.4857,-6.4967,-6.4851,-6.4688,-6.4393,-6.3923,-6.326,-6.2776,-6.2184,-6.1551,-6.0866,-6.0407,-6.0092,-5.9667,-5.9422,-5.9207,-5.9099,-5.9099,-5.9099,-5.9099,-5.9099,-5.9099,-5.9099,-5.9099,-5.9099,-5.9099,-5.9099,-5.9099,-5.9099,-5.9099,-5.9159,-5.917,-5.8922,-5.8584,-5.8225,-5.7557,-5.7107,-5.6537,-5.5961,-5.5613,-5.5379,-5.5026,-5.4817,-5.4699,-5.458,-5.446,-5.4314,-5.4314,-5.4314,-5.4314,-5.4433,-5.458,-5.4699,-5.4699,-5.4699,-5.4726,-5.4726,-5.4699,-5.4433,-5.4314,-5.4047,-5.3806,-5.3443,-5.2956,-5.2711,-5.2711,-5.2588,-5.2465,-5.2588,-5.2711,-5.2588,-5.2465,-5.2588,-5.2588,-5.2588,-5.2562,-5.2412,-5.2562,-5.2588,-5.2588,-5.2465,-5.2588,-5.2588,-5.2711,-6.6237,-6.5561,-6.414,-6.3429,-6.3193,-6.2651,-6.2415,-6.2415,-6.2415,-6.2415,-6.2415,-6.2415,-6.2415,-6.2415,-6.2415,-6.2415,-6.2415,-6.2415,-6.2415,-6.2415,-6.2415,-6.2415,-6.2415,-6.2415,-6.2415,-6.2584,-6.2854,-6.3362,-6.3869,-6.46,-6.5076,-6.5091,-6.5694,-6.5492,-6.4967,-6.4702,-6.4333,-6.3675,-6.3196,-6.258,-6.2085,-6.1379,-6.069,-6.0272,-5.9849,-5.9529,-5.9422,-5.9207,-5.9099,-5.9099,-5.9099,-5.9099,-5.9099,-5.9099,-5.9099,-5.9099,-5.9099,-5.9099,-5.9099,-5.9099,-5.9099,-5.9099,-5.908,-5.8942,-5.8773,-5.8694,-5.8114,-5.7892,-5.7303,-5.6623,-5.6279,-5.6193,-5.5961,-5.5613,-5.5496,-5.5379,-5.5261,-5.5144,-5.5144,-5.5144,-5.5144,-5.5261,-5.5261,-5.5261,-5.5261,-5.5261,-5.5289,-5.5289,-5.5261,-5.5261,-5.5407,-5.5144,-5.488,-5.4552,-5.3954,-5.3806,-5.3685,-5.3592,-5.347,-5.3592,-5.3592,-5.347,-5.347,-5.3565,-5.3565,-5.347,-5.3416,-5.3362,-5.3362,-5.3389,-5.3443,-5.3349,-5.347,-5.3592,-5.3713]}]]